GFSCGP_700_temp_000.txt.gz
Temp
13 13 14 15 16 17 18 18 18 18 17 16 16 16 16 14 13 13 12 14 14 14 14 14 14 14 14 14 14 13 13 12 11 11 10 10 10 9 9 9 9 9 9 9
12 13 15 15 16 16 17 18 18 18 16 16 17 16 16 15 15 13 13 12 14 14 14 14 14 14 14 14 14 13 13 12 12 11 10 10 10 10 10 10 10 10 9 9
13 14 14 15 16 16 17 18 18 18 16 16 17 17 17 16 14 15 14 13 13 14 14 14 14 14 14 13 13 13 13 12 12 11 11 11 10 10 10 10 10 10 10 10
13 15 14 14 15 16 17 17 18 18 17 17 17 19 18 18 15 15 16 16 15 14 15 14 14 14 14 13 13 13 13 12 12 12 11 11 11 11 10 11 11 11 11 11
14 14 13 14 15 16 17 18 17 17 18 17 18 17 19 17 17 16 17 17 17 17 16 15 14 14 14 13 13 13 13 13 12 12 11 11 11 11 11 10 11 11 11 11
13 13 14 14 15 15 16 16 17 17 17 19 18 18 18 18 18 18 17 15 17 17 17 16 15 14 14 13 13 14 14 14 13 12 12 11 11 11 11 11 11 11 10 10
12 13 13 14 14 15 15 16 17 18 18 19 18 18 18 19 19 18 18 17 16 17 17 17 16 16 15 14 14 14 14 14 13 13 12 11 11 11 11 11 11 11 10 10
13 13 13 13 15 16 15 16 18 18 19 20 18 18 18 18 18 18 18 17 16 17 17 16 16 16 16 15 15 14 14 14 14 13 13 12 11 11 11 11 11 11 11 10
14 14 14 14 14 15 16 16 17 18 19 19 19 18 17 18 17 18 18 18 18 18 18 17 16 16 16 15 15 15 14 14 14 13 13 13 12 12 11 11 11 11 10 10
14 14 14 14 14 15 16 16 16 17 19 19 19 19 19 18 18 19 19 19 19 19 18 18 17 16 16 15 15 15 14 14 14 13 13 13 12 12 11 11 11 11 10 9
13 13 14 14 14 15 15 16 16 17 18 20 19 19 19 18 18 18 19 19 19 19 19 18 17 17 16 15 15 14 14 14 13 13 13 13 13 12 11 11 10 10 10 9
13 13 13 14 15 15 16 16 16 17 17 18 18 19 19 18 18 18 19 19 19 19 19 19 18 17 17 16 15 14 14 14 14 13 13 13 13 12 12 11 10 10 9 9
13 13 14 14 15 15 15 16 16 16 17 18 18 18 18 18 18 18 18 18 19 19 19 19 18 18 17 16 15 15 14 14 14 13 13 13 12 12 12 11 10 10 9 8
12 13 13 15 15 15 15 15 16 16 17 17 18 18 18 18 17 17 18 19 19 19 19 19 19 18 17 17 16 16 15 14 14 13 13 13 13 12 12 11 10 9 9 9
11 12 13 13 14 15 15 15 15 16 16 17 17 18 17 17 17 17 18 18 18 19 19 19 18 18 18 17 16 16 15 15 14 14 14 14 13 13 12 11 10 10 9 10
11 11 12 13 14 14 15 15 15 15 16 16 16 17 17 17 17 17 17 18 18 19 18 19 18 18 17 17 17 16 16 15 15 14 14 14 13 13 13 12 11 11 11 11
10 11 11 13 14 14 14 15 15 15 15 16 16 16 17 17 17 17 17 18 18 19 18 18 18 18 17 17 17 16 16 15 15 15 15 14 14 14 14 13 12 12 11 11
9 9 11 12 12 14 15 15 15 15 15 15 15 16 17 17 17 17 17 18 18 18 18 18 18 18 18 17 16 16 16 16 16 15 15 14 14 14 13 13 12 12 12 11
8 9 11 12 13 13 13 14 14 14 15 15 15 15 16 15 16 17 18 18 18 18 18 18 18 18 18 17 16 16 16 16 16 15 15 14 14 13 12 12 12 11 11 10
9 8 10 11 12 13 11 12 13 13 13 15 15 15 15 14 15 17 17 18 18 18 18 18 18 18 18 17 16 16 16 16 15 15 15 14 12 12 12 11 11 11 10 10
9 9 10 11 11 11 10 12 11 10 14 15 14 15 15 15 15 17 17 18 18 18 18 18 18 17 17 16 16 16 15 15 14 14 13 13 12 12 12 12 11 10 9 8
8 9 11 10 10 11 9 10 10 10 12 13 15 16 16 16 16 16 17 17 17 18 17 17 17 16 16 15 15 15 14 13 13 13 12 12 12 12 11 10 10 10 8 7
9 10 10 9 10 9 9 10 9 7 8 11 12 14 13 15 15 16 15 14 16 16 15 15 14 14 14 14 14 13 12 12 12 12 12 12 11 10 10 9 9 9 7 7
8 8 8 8 8 8 8 9 9 5 6 7 7 8 8 11 13 12 12 13 13 13 13 13 12 13 13 13 13 13 12 12 12 12 11 10 10 9 9 8 8 7 7 6
6 6 6 6 7 8 7 7 7 7 7 8 8 8 10 10 10 11 11 10 11 11 10 11 11 11 12 12 12 12 12 12 12 11 11 10 9 8 7 7 7 6 6 6
5 5 6 6 6 7 7 7 6 8 8 9 9 9 9 9 9 10 10 10 10 11 11 11 11 11 12 12 12 12 12 12 11 10 9 9 8 7 7 6 6 6 6 6

GFSCGP_700_temp_003.txt.gz
Temp
13 14 15 16 17 17 19 20 20 20 19 18 18 18 17 16 15 15 15 14 13 12 14 14 15 15 14 14 14 14 13 13 13 12 11 11 10 10 10 10 8 9 10 10
14 15 16 16 17 17 18 19 20 20 19 19 19 19 19 17 16 16 15 15 14 13 12 13 15 14 14 14 14 14 14 14 13 12 11 11 9 9 7 7 9 10 9 10
15 16 16 16 17 17 18 19 20 20 19 17 19 18 19 18 17 16 16 15 15 14 13 12 14 15 14 14 14 14 14 14 13 12 11 11 10 10 8 7 9 10 11 11
15 16 16 16 17 17 18 18 19 20 19 19 19 20 19 19 18 17 16 16 15 14 13 12 12 15 14 14 14 14 13 13 13 12 12 12 10 10 8 7 8 11 11 11
15 16 16 16 17 17 18 19 19 19 20 17 20 20 21 19 19 18 17 16 16 15 14 13 12 14 15 14 14 14 13 13 13 13 12 12 11 8 7 7 9 11 11 11
15 16 16 17 17 17 17 18 19 19 19 21 20 20 20 18 20 19 19 17 16 15 15 13 12 12 15 14 14 14 13 13 14 13 12 12 12 11 8 10 10 10 10 10
15 16 16 16 16 17 17 18 19 20 21 21 20 20 17 21 20 20 19 19 18 16 15 14 15 16 17 16 15 14 14 14 14 14 13 13 12 11 11 11 11 11 10 10
16 16 16 16 16 17 17 18 19 19 21 22 20 21 21 21 20 20 20 19 19 17 16 15 17 17 17 17 16 15 15 14 14 14 14 13 12 11 11 11 11 10 10 10
17 16 16 16 16 16 17 17 18 19 20 21 21 21 20 20 20 20 19 19 19 18 17 16 17 18 17 17 16 16 15 14 14 14 13 13 12 11 11 11 11 11 11 11
16 17 17 16 16 16 17 18 18 19 20 20 22 21 21 20 19 19 19 19 19 19 17 16 16 18 18 17 16 16 15 14 14 14 13 13 12 12 11 11 11 11 11 11
15 16 17 16 16 16 16 17 18 18 19 21 21 22 21 20 19 19 19 20 19 19 17 16 16 18 18 17 16 16 15 15 14 14 14 13 13 12 12 12 12 12 11 11
15 15 16 17 17 16 16 17 17 19 19 19 20 21 21 20 19 19 19 20 20 19 18 17 16 15 17 18 17 16 15 15 15 14 14 13 13 13 12 12 12 12 11 11
15 15 16 16 16 16 16 16 17 18 18 19 20 20 20 20 20 19 19 19 19 19 18 17 17 16 16 17 18 16 15 15 14 14 14 13 13 13 13 13 13 12 12 12
14 15 15 17 16 17 16 16 17 18 19 19 19 19 20 20 19 18 18 19 19 19 18 18 17 16 16 16 18 17 16 15 14 14 14 13 13 13 13 13 13 12 12 12
13 14 15 15 16 17 17 17 17 17 18 18 19 19 19 19 19 19 18 18 18 19 18 19 19 19 18 16 17 17 16 15 14 14 14 13 13 13 13 13 13 12 12 12
13 14 14 15 15 16 16 17 17 17 17 17 18 18 19 19 19 19 18 18 18 18 18 18 19 19 19 18 18 18 16 15 14 14 14 14 14 14 14 13 13 12 12 11
12 13 13 14 15 15 16 16 16 17 17 17 17 17 18 18 18 18 18 18 18 18 18 18 19 19 19 18 18 17 17 15 15 15 14 14 15 14 14 14 14 13 13 12
12 12 13 13 14 15 15 15 16 16 16 16 17 17 17 17 17 18 18 18 18 17 18 18 18 19 19 18 18 17 17 16 16 15 15 15 15 14 14 14 14 14 13 12
10 11 12 13 14 12 14 13 14 13 15 16 16 16 16 17 17 17 17 17 18 18 18 17 18 18 18 18 18 17 17 16 16 16 15 15 15 14 14 14 13 12 12 12
9 9 10 13 14 15 15 12 14 13 14 15 15 16 16 16 17 17 17 16 17 17 17 17 18 18 18 18 18 17 16 16 16 15 15 15 14 14 14 12 12 12 12 12
9 9 10 11 13 14 12 12 12 13 13 14 14 15 15 16 16 16 16 16 17 17 18 18 18 18 18 18 18 17 16 16 16 15 15 15 14 13 12 12 12 12 11 12
9 10 11 11 12 13 11 11 11 12 11 12 13 14 15 15 15 15 15 15 16 17 17 18 18 18 18 17 17 16 16 16 15 15 14 14 13 12 12 12 12 12 11 10
10 10 11 12 12 10 11 11 11 11 9 10 12 12 12 13 13 14 13 14 15 16 16 16 16 17 17 15 15 14 14 14 14 14 13 13 12 12 12 12 11 11 10 9
10 11 11 11 8 8 10 10 9 9 8 9 10 10 10 10 10 10 10 10 10 10 11 11 12 14 14 13 13 12 12 12 12 12 12 12 12 12 11 10 10 9 8 8
4 8 10 8 6 8 9 10 9 7 7 7 9 8 8 8 8 8 8 8 8 8 8 9 11 11 12 12 12 12 12 12 12 12 12 12 12 11 10 9 8 8 8 7
5 6 6 8 7 6 7 7 5 6 6 6 6 7 7 7 8 7 7 7 9 9 10 10 10 11 11 11 11 12 12 12 12 12 11 11 10 9 8 8 7 7 7 6

GFSCGP_700_temp_006.txt.gz
Temp
13 14 14 15 16 17 18 19 20 21 19 19 19 18 15 16 16 16 15 15 14 13 13 13 14 14 14 14 14 14 14 14 13 13 12 12 11 11 11 10 10 10 9 10
14 14 15 16 16 17 18 19 20 21 20 19 20 19 18 16 17 17 16 15 15 14 13 12 13 14 15 15 15 14 14 14 13 13 13 12 11 10 10 10 11 11 10 10
15 16 16 17 17 17 18 19 20 21 20 20 20 20 19 18 18 17 17 16 15 15 14 13 12 14 14 14 14 14 14 14 14 13 13 12 11 11 9 9 9 11 11 11
15 16 17 17 17 18 18 19 19 20 20 19 19 19 19 18 18 17 17 17 16 15 14 14 13 13 15 15 14 14 14 14 14 13 13 12 12 11 11 10 10 11 11 11
16 16 17 17 17 18 18 19 19 20 20 19 19 19 20 19 19 18 17 17 17 16 15 14 14 13 14 15 15 15 14 14 14 13 13 13 12 11 10 11 11 11 11 11
16 16 17 18 18 18 18 19 19 20 20 21 21 19 19 20 20 19 18 18 17 17 16 15 14 14 14 15 15 15 14 14 13 13 12 12 12 11 11 9 11 11 11 11
16 16 17 17 18 18 18 18 19 20 21 21 21 19 19 20 19 19 18 18 18 17 16 16 15 16 16 17 17 16 15 15 14 13 13 13 12 11 11 11 12 11 11 11
16 17 17 17 17 18 18 18 20 18 20 21 21 21 21 20 19 19 18 18 18 18 17 16 17 17 17 17 17 17 17 15 14 14 14 13 13 12 12 12 12 12 11 11
17 17 18 17 18 18 18 18 18 19 20 21 21 22 21 21 20 20 19 20 20 19 18 17 16 17 17 17 17 17 17 16 15 14 14 14 13 13 13 13 12 12 12 12
17 17 18 18 17 18 18 18 18 19 19 20 21 21 22 22 21 19 19 20 20 20 18 18 17 17 17 17 17 16 16 16 15 14 14 14 13 13 13 13 12 12 12 12
16 16 18 18 18 17 17 17 18 19 19 21 21 21 22 22 21 21 20 19 20 20 19 18 18 17 17 16 17 17 16 16 15 14 14 14 13 13 13 13 13 13 12 12
16 16 17 18 18 18 18 17 17 18 19 20 20 21 21 22 21 20 20 20 20 20 20 19 18 17 17 18 17 18 16 16 15 15 15 14 14 14 14 13 13 13 13 12
17 16 17 17 18 18 18 18 18 18 18 19 20 20 20 20 19 20 20 20 20 19 19 19 18 17 17 19 18 18 17 16 16 15 15 14 14 14 14 13 13 13 13 13
16 16 16 18 17 18 18 18 18 18 18 19 19 20 20 20 20 20 20 19 19 19 19 18 18 17 17 18 18 18 18 16 15 15 15 15 14 14 14 14 13 13 13 13
15 15 16 16 17 18 18 18 18 18 18 18 19 19 20 20 20 20 19 19 19 19 18 18 18 18 17 17 18 17 17 17 16 15 15 15 14 14 14 14 14 13 13 13
14 14 14 16 16 17 18 18 18 18 18 17 18 18 19 19 20 19 19 19 19 19 19 18 18 18 17 17 17 17 17 17 15 15 15 15 15 15 14 14 14 14 13 13
13 14 14 15 16 17 17 17 18 18 18 18 18 18 18 19 19 19 19 19 18 18 18 18 18 18 18 18 18 18 17 16 16 16 16 16 15 15 15 14 14 14 13 13
13 13 13 14 15 15 17 17 17 17 18 18 18 18 18 18 18 18 18 18 18 18 18 18 18 18 18 18 18 17 16 16 16 15 15 15 15 16 15 15 14 13 13 13
12 13 13 14 15 15 16 17 17 17 17 17 17 17 17 17 17 17 18 17 17 17 18 18 18 18 17 18 18 18 18 17 17 16 16 16 16 16 15 14 13 13 13 13
10 11 12 13 14 15 14 14 15 14 15 15 15 15 15 16 17 17 17 17 17 18 18 18 18 18 17 18 18 18 18 18 17 17 17 16 16 15 14 13 13 13 12 12
9 9 11 12 13 14 13 13 13 13 14 14 14 15 15 15 15 16 16 17 17 17 18 17 17 17 17 18 18 18 18 18 17 17 16 15 15 14 13 14 13 12 12 12
8 9 10 11 12 12 12 11 10 11 12 13 13 14 14 15 15 15 15 16 15 16 17 16 16 16 17 18 18 18 18 17 16 16 16 15 14 13 13 12 12 12 12 12
7 8 10 10 11 12 11 11 12 12 11 12 13 13 13 14 14 13 13 15 15 16 16 15 15 16 16 16 16 16 16 16 16 15 14 14 13 12 13 13 12 12 12 11
8 9 10 10 11 11 10 10 9 11 11 11 12 12 13 12 12 12 13 14 14 15 14 13 15 15 15 14 15 15 15 15 14 14 13 12 12 12 12 12 12 11 11 10
6 7 8 10 10 8 8 7 8 11 11 11 11 11 11 11 11 11 11 11 12 12 13 12 12 12 12 13 13 13 12 12 12 12 12 12 12 12 12 12 11 10 10 8
3 4 6 8 8 8 7 6 8 10 10 10 10 10 10 10 9 10 10 9 9 9 9 9 9 10 11 11 11 11 12 12 12 12 12 12 12 11 11 10 9 8 7 7

GFSCGP_700_temp_009.txt.gz
Temp
12 13 13 14 14 15 16 17 18 19 19 19 18 18 17 16 16 15 15 14 14 14 13 12 13 13 13 14 14 14 14 14 14 13 13 13 12 11 11 11 11 10 10 10
13 13 13 14 14 15 16 16 17 18 19 19 19 18 18 17 18 16 15 15 14 14 14 14 13 13 14 14 14 14 14 14 14 14 13 13 12 11 11 11 11 11 11 10
13 14 13 14 15 15 16 16 17 18 19 19 19 18 18 17 18 16 15 16 15 14 14 13 14 14 14 14 15 14 14 14 14 14 13 13 12 12 12 11 12 10 11 11
14 14 14 15 15 16 16 17 17 18 18 19 18 17 17 17 17 16 15 16 16 15 15 14 14 14 14 15 15 14 14 14 14 14 14 13 12 12 11 12 12 11 12 12
14 14 15 15 16 16 16 17 17 18 18 18 18 19 19 17 16 17 16 16 16 16 16 16 16 16 15 14 14 15 14 14 14 13 13 13 13 12 12 12 12 12 12 12
14 14 15 15 16 17 17 17 18 18 18 17 18 19 19 17 17 18 17 16 17 16 16 16 17 17 16 15 15 15 15 14 14 13 13 13 13 13 13 13 13 12 12 12
14 14 15 16 16 17 17 17 17 16 16 15 19 18 19 19 19 19 18 17 17 17 17 16 16 17 17 17 17 17 16 15 14 14 14 14 14 13 13 13 13 13 13 12
13 14 15 16 16 17 17 17 17 13 15 16 19 19 20 20 20 20 19 18 18 17 17 17 17 18 19 17 17 17 17 16 15 14 14 14 14 14 14 13 13 13 13 12
14 14 15 16 16 17 17 18 18 18 18 17 19 19 20 20 20 20 19 18 18 17 17 16 17 18 18 18 17 17 17 17 15 14 14 14 15 14 14 13 13 13 13 12
15 16 16 17 17 17 17 17 17 18 15 15 18 19 19 21 21 20 20 20 19 19 18 17 17 17 18 19 17 17 17 17 16 15 15 15 15 14 14 13 13 13 13 12
15 15 16 16 17 17 17 17 17 18 17 15 15 17 20 20 21 20 19 19 20 19 19 17 17 18 19 19 17 17 17 16 16 16 15 15 15 14 14 13 13 13 13 13
16 16 15 16 17 17 18 18 17 17 17 18 17 17 19 20 20 20 21 20 20 19 19 19 17 18 19 19 18 18 17 17 16 16 16 15 14 14 14 14 13 13 13 13
16 16 15 16 16 17 17 18 18 17 17 17 15 17 19 19 19 20 18 19 19 19 20 19 18 18 18 19 19 18 18 17 17 16 16 15 15 14 14 14 13 13 13 13
14 17 16 15 16 17 17 17 18 17 17 17 17 17 18 19 19 20 20 19 19 19 19 19 18 18 19 19 19 18 18 17 17 16 16 15 15 15 15 14 14 14 13 13
12 15 17 16 16 17 17 17 18 17 17 17 17 17 17 18 18 19 20 19 20 19 19 19 19 18 19 18 19 18 17 17 17 17 16 15 15 15 15 14 14 14 13 13
11 12 16 16 16 16 17 17 17 18 18 17 17 18 18 18 19 18 19 20 19 19 19 19 19 18 18 18 19 19 18 17 16 17 17 16 15 15 15 14 14 14 13 13
5 9 13 14 15 15 16 17 17 17 18 18 17 18 18 18 18 18 19 19 19 19 18 18 18 18 18 18 18 18 18 18 17 16 17 16 16 16 16 15 14 14 13 13
5 8 8 14 14 12 15 16 17 17 18 18 18 18 18 18 18 18 18 18 18 17 18 18 18 18 18 17 17 17 18 18 18 17 17 17 16 15 15 15 14 14 13 13
7 8 9 12 13 14 15 15 16 17 17 17 17 17 17 18 18 18 18 18 18 17 16 17 17 18 18 18 18 17 17 18 18 18 18 17 17 16 16 15 14 14 13 13
8 9 10 12 12 12 14 15 15 16 16 16 16 17 17 17 17 17 17 17 17 17 17 18 17 17 18 18 18 18 18 17 18 18 18 17 16 16 16 15 14 14 12 12
8 8 9 11 12 13 14 14 15 14 13 14 15 16 15 16 16 17 17 17 17 17 17 17 18 18 17 17 18 17 18 18 18 18 17 16 15 16 16 15 13 12 12 12
2 3 7 10 12 12 13 13 13 12 12 13 14 14 15 15 15 15 16 16 16 17 16 16 17 17 18 17 17 17 18 17 17 16 15 16 16 16 15 12 11 11 12 12
2 4 5 5 9 10 9 11 11 12 11 11 12 13 14 14 15 15 15 15 15 16 16 16 16 16 17 17 17 16 17 17 16 14 15 16 16 15 14 12 11 12 12 12
2 4 4 5 8 6 6 9 9 10 11 11 12 13 13 14 14 14 14 14 13 14 14 15 16 16 16 16 17 16 16 17 16 14 14 15 14 13 12 12 12 12 12 12
2 4 3 5 7 7 7 7 8 9 10 10 12 13 13 13 12 12 12 13 14 13 13 14 15 16 15 14 14 15 15 16 15 13 13 13 13 12 12 12 12 12 12 11
3 4 5 6 6 6 5 6 8 9 10 10 11 11 11 11 11 11 11 11 12 12 9 13 14 15 15 14 14 14 13 12 12 12 12 11 12 12 12 12 12 12 10 10

GFSCGP_700_temp_012.txt.gz
Temp
11 11 12 13 14 14 15 15 16 18 17 17 18 18 17 16 15 15 15 14 14 14 15 14 13 12 14 14 14 13 13 13 13 13 13 12 12 11 11 11 11 11 10 9
11 11 12 12 13 14 15 16 17 18 17 17 17 18 17 16 16 16 16 15 15 14 14 14 14 13 14 14 14 14 14 13 13 13 13 13 12 11 11 11 11 10 10 10
11 12 12 12 13 13 14 15 17 16 17 17 17 17 16 16 15 15 15 16 15 15 15 14 14 14 14 14 14 14 14 14 14 13 13 12 12 12 12 11 11 11 10 10
12 12 13 13 13 13 14 15 16 16 16 16 16 16 16 16 16 15 15 16 16 15 15 15 14 14 14 14 14 14 14 14 14 14 13 13 13 13 12 12 11 11 10 11
12 13 13 13 13 14 14 15 15 15 16 16 16 17 17 18 16 16 16 17 17 17 15 16 16 15 15 15 14 14 14 14 14 14 14 13 13 13 12 12 11 11 11 12
13 13 13 13 13 14 15 15 15 16 16 14 16 17 17 18 17 17 17 17 18 17 16 16 16 16 16 15 14 14 14 14 14 14 14 14 13 13 13 13 12 12 12 12
13 13 13 14 14 14 15 15 15 13 14 13 17 17 17 18 18 18 18 17 17 17 17 16 16 16 16 16 16 15 14 13 14 14 14 14 14 14 14 13 12 13 13 12
12 12 13 14 14 14 15 15 15 11 11 13 17 16 17 19 19 19 19 18 18 18 18 17 17 18 17 17 16 16 15 14 14 14 14 14 14 14 14 13 13 13 13 12
13 13 14 14 14 14 15 15 16 16 16 14 16 17 18 18 19 19 19 19 18 18 18 18 18 17 18 17 17 17 16 15 14 15 14 15 14 14 14 14 13 13 13 12
13 13 14 15 15 15 15 16 16 15 12 13 15 17 18 18 19 19 19 19 19 18 18 18 18 19 18 17 17 16 16 16 15 15 16 15 14 14 14 14 14 13 13 12
14 13 15 15 15 15 15 15 16 16 16 14 10 15 17 18 18 19 19 20 19 19 18 18 18 18 18 18 17 17 16 16 16 15 16 16 15 14 14 14 14 14 13 13
12 14 13 15 15 15 15 16 16 16 16 16 16 16 17 18 18 19 19 19 19 19 19 18 18 18 18 18 17 17 16 16 16 16 16 16 15 15 14 14 14 14 13 13
11 12 13 14 15 15 15 15 16 17 17 16 14 16 17 18 18 19 19 19 19 18 19 18 18 19 18 18 18 17 17 17 16 16 16 16 15 15 15 14 14 14 13 13
9 10 12 14 14 15 15 16 16 16 16 16 16 16 17 17 18 18 18 19 20 18 18 18 18 18 18 18 18 17 18 18 16 16 16 16 15 15 15 15 14 14 13 13
6 8 10 11 13 15 16 16 16 16 16 16 16 16 17 17 18 18 18 18 19 19 18 19 19 19 19 18 18 18 18 18 17 17 17 16 15 15 15 15 14 14 14 13
6 5 8 10 13 15 16 16 16 17 16 17 17 17 17 17 17 18 18 18 18 19 19 19 19 19 19 18 18 18 18 19 17 17 17 17 16 15 16 15 15 14 14 13
3 3 4 8 13 14 15 16 16 17 17 16 16 17 18 17 17 18 18 18 18 19 19 19 19 19 18 18 18 18 18 18 17 17 16 17 16 15 16 16 15 14 14 13
2 3 4 6 10 11 15 16 16 16 17 17 16 17 18 18 18 18 18 18 18 18 19 19 18 18 18 18 18 18 18 18 18 17 16 16 16 16 16 16 16 15 14 14
3 4 4 6 9 13 15 15 16 16 16 16 17 17 17 18 18 18 17 18 18 18 18 18 18 18 18 18 18 18 18 18 18 18 17 17 16 16 16 16 15 15 14 14
4 5 4 6 7 9 14 15 16 16 15 16 16 16 17 17 17 17 17 17 18 18 18 18 17 18 17 17 18 18 17 17 17 18 18 17 17 16 16 16 16 15 14 13
3 4 4 5 8 11 12 14 14 15 14 14 15 16 16 17 17 17 17 17 17 17 18 18 18 18 18 17 17 17 17 18 18 18 18 18 17 16 15 15 15 15 13 13
2 2 3 4 6 8 10 13 14 14 14 14 14 15 16 16 16 16 16 16 16 17 17 17 17 17 17 17 17 17 17 17 17 17 18 18 17 17 15 15 15 13 12 13
0 1 4 6 4 6 7 9 11 13 14 13 13 14 14 15 15 15 15 16 16 16 16 16 16 16 17 17 17 17 17 17 17 17 17 17 17 17 16 16 14 12 12 12
-0 1 3 4 5 4 6 8 9 10 11 12 13 13 13 13 14 14 14 15 15 15 15 15 15 15 15 16 17 17 17 17 17 17 16 17 17 17 16 15 12 11 11 11
0 1 2 4 5 4 5 6 8 9 10 10 12 13 13 12 13 13 13 13 14 14 13 14 14 14 14 14 16 16 17 17 17 17 16 16 15 13 13 12 11 11 11 11
0 0 2 3 4 3 4 5 6 8 10 10 11 12 12 12 12 13 13 13 12 11 11 13 13 13 14 12 11 16 16 16 15 15 15 14 13 12 12 11 10 9 9 11

GFSCGP_700_temp_015.txt.gz
Temp
11 11 12 13 13 14 14 15 15 17 15 16 16 16 16 16 15 16 15 15 14 14 14 14 14 14 13 12 12 13 13 12 12 12 12 12 12 11 11 11 10 10 9 9
11 11 12 12 12 13 14 14 15 17 16 15 15 16 16 16 17 18 17 16 15 14 14 14 14 14 14 14 14 13 13 12 12 12 12 12 11 11 11 10 10 10 10 10
11 11 11 11 12 12 13 14 16 16 16 16 16 16 14 15 16 16 15 16 15 15 15 15 14 14 14 14 14 14 14 13 13 12 12 12 12 12 12 12 11 10 9 10
11 12 12 12 12 12 13 14 15 15 14 15 15 14 14 15 14 15 16 16 15 15 15 14 14 14 15 14 14 14 14 13 13 13 13 12 12 12 12 11 10 10 10 10
11 12 12 12 12 13 13 14 14 14 14 14 15 14 16 15 14 15 16 16 16 16 15 16 16 15 15 15 15 14 14 14 13 13 13 13 13 12 12 11 11 10 11 11
13 13 12 13 12 13 13 13 13 14 14 12 15 14 16 15 15 17 17 16 17 17 17 16 16 15 15 15 14 14 14 14 14 14 13 13 13 13 12 12 12 12 11 12
11 12 13 12 12 12 13 13 12 11 11 12 15 14 15 17 17 17 18 18 18 17 17 17 17 16 15 15 15 14 14 14 14 14 13 13 13 13 12 12 12 12 12 12
11 11 12 12 12 13 13 13 12 9 8 12 15 14 16 17 18 17 18 18 18 18 18 18 17 17 17 16 16 15 14 13 13 14 14 14 13 13 13 12 13 12 13 12
12 12 13 13 13 13 13 13 13 13 13 12 15 16 16 17 18 18 18 18 18 18 18 18 18 17 17 17 17 16 16 15 14 13 13 13 13 13 13 13 13 13 13 12
12 13 13 14 13 13 13 14 13 12 10 11 13 15 16 17 18 18 18 18 18 18 18 18 18 18 17 18 17 17 16 16 15 14 13 13 14 13 13 13 13 13 13 12
11 12 13 13 13 14 13 13 13 14 14 11 12 14 16 16 17 18 18 18 18 18 18 19 18 18 18 17 17 18 17 16 15 14 13 13 14 14 14 13 14 13 13 13
9 9 11 12 13 14 14 14 13 14 13 14 14 15 17 17 18 18 18 18 19 18 19 19 19 18 18 18 17 18 18 17 16 15 14 14 14 14 14 14 14 13 13 13
7 8 10 11 12 12 13 14 14 14 14 14 13 14 16 16 17 17 18 18 19 19 19 20 18 18 19 18 18 18 18 17 16 16 15 15 15 15 15 14 14 14 14 13
4 5 6 8 11 12 12 14 15 15 14 14 14 15 16 16 17 17 18 18 19 19 19 20 19 18 18 18 18 18 18 18 17 16 15 15 15 15 15 15 14 14 14 13
3 3 5 6 7 9 10 12 15 14 15 14 14 15 16 16 17 17 17 18 18 19 19 19 18 19 18 17 17 18 18 18 17 16 15 16 15 15 15 15 14 14 14 14
3 3 4 5 7 9 10 12 13 15 15 15 15 15 16 17 17 17 17 18 18 18 19 18 18 18 18 18 18 18 18 18 18 17 16 16 15 15 15 15 15 14 14 14
2 3 3 3 7 9 10 12 13 13 14 15 16 16 16 16 17 17 17 17 18 18 18 17 17 18 19 19 19 18 18 18 18 17 17 16 16 16 16 15 15 15 15 15
1 2 2 2 7 6 11 12 13 14 14 15 16 16 17 17 17 17 17 17 18 18 18 18 18 18 19 19 19 19 18 18 18 17 17 17 16 16 16 15 15 15 15 15
2 2 2 3 5 8 11 13 14 14 14 15 16 16 16 17 17 17 17 17 17 18 18 18 19 18 18 19 19 19 18 18 18 18 17 17 16 16 16 16 15 15 15 15
2 3 1 3 4 5 10 12 13 15 14 15 16 16 17 17 16 17 17 17 17 17 18 18 18 18 18 18 18 18 18 18 18 18 18 17 17 16 16 15 15 15 15 15
-0 1 -1 1 3 6 8 11 12 12 14 15 16 16 16 16 17 17 17 17 17 17 17 17 18 18 18 18 18 18 18 18 18 18 18 17 17 17 16 16 15 15 15 15
1 1 -0 1 3 4 7 9 11 11 14 15 15 16 16 16 17 17 18 18 17 17 17 17 17 17 17 17 17 17 17 17 17 18 17 18 18 18 17 16 15 15 15 15
-1 1 2 1 4 7 7 7 9 11 11 12 14 14 15 16 16 17 17 17 17 17 17 17 17 17 17 17 17 17 17 17 17 17 17 17 17 17 17 16 15 15 14 13
-0 0 1 2 4 6 7 6 8 9 10 12 13 14 14 14 14 15 15 15 15 16 15 16 16 16 17 17 17 17 17 17 17 17 17 17 17 17 16 17 16 15 14 13
-1 -0 1 2 5 6 7 6 6 8 9 10 11 12 13 13 14 14 14 14 14 14 14 14 14 14 14 15 16 16 16 16 17 17 16 16 17 17 17 16 16 15 14 11
-2 -1 0 2 4 6 7 6 5 6 8 9 10 11 11 12 12 12 13 13 13 13 13 13 13 14 14 15 15 15 15 15 16 16 16 16 16 16 16 16 15 14 12 10

GFSCGP_700_temp_018.txt.gz
Temp
9 9 11 12 12 13 13 13 14 15 15 15 15 15 15 15 15 15 15 14 14 14 14 14 13 13 13 13 13 12 12 12 12 12 12 12 12 11 10 10 9 10 9 9
9 10 11 12 12 12 13 13 14 15 15 15 15 15 15 15 16 16 16 15 14 14 15 14 14 13 13 13 13 13 12 12 12 12 12 12 11 11 10 10 10 10 10 10
10 10 11 11 11 12 12 13 14 14 14 14 15 15 15 16 16 15 15 15 14 14 14 15 14 14 14 14 14 13 13 13 13 13 12 12 12 12 11 11 11 10 10 10
10 10 11 11 11 12 12 13 13 13 13 13 14 14 15 16 17 16 15 16 16 14 14 14 14 14 14 14 14 14 13 13 13 13 13 12 12 12 11 11 10 10 10 10
11 11 10 10 12 12 12 13 13 13 13 13 13 13 14 16 16 16 17 16 16 16 14 14 14 14 14 14 14 14 14 13 13 13 13 13 13 12 11 11 10 11 11 10
11 11 11 12 12 12 12 12 12 12 12 10 13 13 14 16 16 17 17 17 17 17 16 15 15 14 14 14 14 14 14 14 13 13 13 13 13 13 12 11 11 11 11 11
10 11 11 12 11 11 11 11 11 10 9 11 14 13 14 16 17 16 17 17 17 17 17 16 16 16 15 15 14 14 14 14 14 14 13 13 13 13 12 12 12 11 11 11
10 10 11 12 11 12 11 11 11 7 7 11 14 14 15 16 16 17 17 17 17 17 17 17 17 17 16 16 16 15 14 14 14 14 14 13 13 13 12 12 12 12 11 11
11 11 13 12 12 12 11 11 12 12 11 10 13 15 15 15 16 17 17 18 18 17 17 18 17 17 17 17 16 16 15 15 14 14 14 13 13 13 13 12 12 12 12 11
11 11 12 13 12 12 12 12 11 11 8 8 11 13 16 16 17 17 17 18 18 18 18 18 18 17 17 17 17 17 16 16 15 14 14 13 12 12 13 12 12 12 12 12
10 10 12 11 11 12 12 12 12 12 12 7 8 13 15 15 17 17 18 18 18 18 18 18 18 18 18 17 17 17 17 16 15 15 14 14 13 12 12 13 12 13 12 12
8 9 10 11 12 13 13 13 12 12 11 12 12 13 16 16 17 17 18 18 18 18 18 18 18 18 18 18 17 17 17 17 16 16 15 14 13 13 13 13 13 13 13 13
5 6 8 9 10 12 11 12 12 12 13 12 11 13 15 17 16 16 16 18 18 18 18 18 18 18 19 19 18 18 17 17 17 16 16 15 14 14 14 13 13 13 13 13
3 4 5 6 8 8 10 11 12 12 12 12 12 13 14 15 16 17 17 17 18 18 18 18 19 19 19 20 19 18 18 18 17 16 16 16 15 15 15 14 14 14 13 13
2 3 3 4 5 6 7 9 11 11 12 12 12 12 13 14 14 15 16 17 17 17 18 19 19 19 19 20 19 18 18 18 18 17 16 16 16 15 14 14 14 14 14 13
1 1 2 3 4 6 6 7 9 10 10 10 12 13 14 15 15 15 15 16 16 17 17 18 19 19 19 19 19 19 18 18 18 18 17 16 16 16 15 15 15 14 14 13
1 1 2 2 3 5 6 8 9 10 10 11 11 12 13 14 15 15 16 16 16 17 17 17 18 19 19 19 19 19 19 18 18 18 18 17 17 16 15 15 15 15 15 14
-1 0 1 1 3 3 7 9 11 11 12 12 12 13 14 15 15 16 16 17 17 17 17 18 18 18 18 18 18 18 18 18 18 18 18 17 17 16 16 15 15 15 15 15
-1 -0 1 1 3 5 7 9 10 11 12 13 13 14 14 15 15 16 16 17 17 17 17 18 17 18 18 18 19 18 18 18 18 18 18 18 17 17 16 16 16 15 15 15
-0 -1 -1 1 2 2 7 9 9 9 10 13 13 15 15 15 15 16 16 17 17 17 17 17 17 18 18 18 18 18 18 18 18 18 18 18 17 17 16 16 15 15 15 15
-1 -3 -3 -1 1 3 5 8 9 9 10 12 13 15 14 15 16 16 16 17 17 17 17 17 17 17 18 18 18 18 18 18 18 18 18 18 17 17 16 16 15 15 15 15
-1 -2 -2 -3 -1 1 5 7 8 10 11 12 14 15 15 15 16 16 16 17 17 17 17 17 17 17 17 18 18 18 18 18 18 18 18 18 17 17 16 17 16 16 15 14
-3 -2 -1 -0 0 3 5 7 8 9 11 12 14 15 15 15 15 16 16 17 17 17 17 17 17 17 17 17 17 17 17 17 18 18 17 17 17 17 16 15 15 16 16 15
-3 -2 -2 -2 1 3 4 6 8 10 10 11 12 14 14 15 15 16 16 17 16 16 15 16 16 17 16 16 17 16 17 17 17 17 17 17 17 17 16 16 16 16 17 15
-3 -2 -1 -1 0 1 2 4 6 8 10 11 11 12 12 12 13 14 14 14 14 15 15 15 15 16 16 16 16 16 16 16 16 16 17 17 17 16 16 17 17 16 17 17
-3 -3 -2 -0 0 1 1 3 4 7 10 10 11 11 11 11 12 12 13 13 13 13 14 14 14 14 15 15 15 15 16 16 16 16 16 16 16 17 17 16 16 16 16 16

GFSCGP_700_temp_021.txt.gz
Temp
9 9 9 9 10 10 12 12 13 14 14 14 15 15 15 15 15 15 15 14 14 14 13 13 13 13 12 12 13 12 12 11 12 12 12 11 11 11 10 10 9 9 9 9
9 9 9 10 11 11 12 11 12 13 14 14 14 15 15 15 16 15 15 14 14 14 14 14 13 13 13 13 13 13 13 12 12 12 12 11 11 10 10 10 9 9 9 9
10 10 9 10 10 10 11 11 12 13 13 14 14 14 15 16 16 16 16 15 14 14 14 15 14 14 13 13 14 13 13 13 13 12 12 12 11 11 11 11 10 10 9 9
9 9 11 10 9 10 10 12 11 11 12 14 13 15 15 15 16 16 16 16 16 14 14 14 14 14 14 14 14 14 13 13 13 13 13 12 12 12 11 11 10 10 10 9
10 10 10 9 11 10 10 10 12 11 12 12 13 14 15 15 16 16 17 18 17 15 15 14 14 14 14 14 14 14 13 13 13 13 13 13 12 12 11 11 11 10 10 10
10 10 10 11 11 10 10 10 11 11 12 13 13 13 15 14 16 16 17 17 18 17 15 14 14 14 14 14 14 14 14 13 13 13 13 13 13 12 12 12 11 11 11 10
9 10 10 10 9 10 10 11 12 12 13 14 14 13 14 15 15 16 17 17 18 17 16 15 15 15 14 14 14 14 14 14 13 13 13 13 13 13 12 12 12 11 11 11
10 9 10 11 10 10 10 11 13 13 15 15 13 14 14 15 16 16 17 17 18 17 17 16 16 16 15 15 14 14 14 14 14 13 13 13 13 13 13 12 12 12 12 11
10 11 11 10 11 10 10 10 12 12 12 13 15 14 14 15 16 16 17 17 17 17 18 18 17 16 16 16 15 15 14 14 14 14 14 14 13 13 13 13 12 12 12 11
10 10 11 11 10 11 11 11 10 11 13 13 15 13 16 16 16 16 17 17 18 18 18 18 18 17 17 17 16 16 15 15 14 14 14 14 14 13 13 13 12 12 12 12
9 10 11 10 10 11 10 10 11 12 12 15 15 16 15 15 16 17 17 18 18 18 18 18 18 18 18 17 17 17 16 16 15 15 14 14 13 13 13 12 12 12 12 12
8 9 10 10 10 11 11 11 11 12 11 12 14 15 16 16 16 17 17 18 18 18 18 18 18 18 18 18 18 17 17 17 16 16 15 15 14 13 13 12 12 11 12 12
7 8 9 10 10 11 11 11 11 12 13 12 13 15 15 15 15 15 16 17 18 18 18 18 18 18 18 18 18 18 18 17 16 16 16 15 15 14 14 14 12 11 12 13
4 5 8 11 11 10 10 10 11 11 12 12 12 14 14 15 15 15 16 16 16 17 17 17 18 18 18 18 18 18 18 18 17 17 16 16 15 15 15 14 13 13 12 13
3 3 4 5 7 6 7 9 9 9 11 12 13 13 12 13 14 15 16 17 16 17 17 17 17 18 18 18 18 19 19 18 18 17 17 17 16 16 15 15 14 15 14 14
1 2 3 3 4 4 5 7 8 8 9 9 10 10 11 12 12 13 14 15 16 16 16 17 17 17 17 18 19 19 19 18 18 17 17 17 17 16 16 15 14 14 15 14
0 1 2 4 3 4 5 7 7 7 8 9 10 10 12 13 13 13 14 14 15 16 16 17 17 17 17 18 19 19 19 19 18 18 17 17 17 17 16 16 15 15 15 15
-1 -0 0 2 2 5 7 8 8 9 10 10 11 11 12 13 14 14 14 14 15 16 17 17 17 17 17 18 18 19 19 19 18 18 18 18 18 17 17 16 16 15 15 15
-1 -2 -0 2 3 5 6 6 7 8 9 10 11 12 13 13 13 14 15 15 16 16 17 17 17 17 18 18 18 19 18 18 18 18 18 18 18 18 17 17 16 16 15 15
-1 -2 -2 0 3 5 6 7 6 7 7 9 11 12 13 13 13 14 15 16 16 16 16 17 17 17 18 18 18 19 19 18 18 18 18 18 18 17 18 17 16 16 15 15
-3 -4 -3 -2 0 3 4 6 6 7 9 9 10 12 13 14 14 15 15 15 16 16 16 17 17 17 17 18 18 18 18 18 18 18 18 18 18 18 18 17 17 16 16 15
-3 -3 -3 -3 -1 0 3 5 4 7 8 9 10 11 13 14 14 15 15 16 16 16 16 17 17 17 17 17 17 18 18 18 18 18 18 18 18 18 18 17 17 16 16 15
-4 -3 -2 -2 -0 1 2 4 5 6 7 9 10 11 12 14 14 15 15 16 15 16 16 17 17 17 17 17 17 17 17 18 18 18 18 18 18 18 18 18 17 16 16 16
-5 -4 -3 -3 -2 -1 1 3 3 5 7 8 9 11 12 13 15 15 15 15 15 16 16 16 17 17 17 17 17 17 17 17 17 17 17 17 18 18 17 17 17 17 17 17
-5 -5 -3 -3 -2 0 1 1 1 3 5 8 9 9 10 12 14 14 14 14 14 15 16 16 16 17 17 17 17 17 17 17 17 17 17 17 17 17 17 17 17 17 17 16
-3 -2 -3 -3 -2 -1 1 1 1 2 3 6 8 9 9 11 10 11 11 12 12 13 13 14 14 15 15 15 16 16 16 16 16 17 17 17 17 17 17 17 17 17 17 16

GFSCGP_700_temp_024.txt.gz
Temp
9 9 10 11 11 13 15 15 15 16 16 15 16 16 16 15 13 14 13 15 14 14 14 13 13 12 12 12 12 12 12 12 11 11 11 11 11 11 10 10 10 9 9 9
9 10 11 11 12 12 13 14 15 15 15 15 16 16 16 15 14 14 13 15 15 14 14 13 13 13 13 12 12 12 12 12 12 12 12 12 11 11 11 10 10 10 10 10
11 11 11 11 11 11 12 13 14 15 15 14 15 16 16 16 15 14 13 13 15 14 14 14 14 14 13 13 13 13 13 12 12 12 12 12 11 11 11 11 11 10 10 10
11 12 11 11 11 11 12 12 13 14 15 16 16 18 17 17 16 15 14 14 15 15 14 14 14 14 14 14 13 13 13 13 13 13 12 12 12 12 11 11 11 10 10 10
11 11 11 11 11 11 12 13 13 13 14 14 16 16 17 17 16 16 15 15 14 15 15 15 15 15 14 14 13 13 13 13 13 13 13 12 12 12 11 11 11 11 11 10
11 11 12 11 11 11 12 12 13 12 14 16 16 16 17 17 17 16 16 15 17 17 17 16 15 14 14 14 14 14 13 13 13 13 13 13 13 12 12 12 11 11 11 11
11 11 11 11 11 11 11 12 14 15 16 17 16 16 16 17 17 16 17 16 17 17 17 16 15 15 14 14 14 14 14 14 13 13 13 13 13 13 12 12 11 11 11 11
12 12 11 12 12 12 11 12 16 16 18 18 16 17 17 17 16 16 16 17 16 17 17 17 17 16 15 15 14 14 14 14 14 13 13 13 13 13 13 12 12 12 12 11
13 13 13 12 12 12 12 12 14 17 17 18 19 17 17 16 17 16 16 17 17 17 17 17 17 16 16 15 15 14 14 14 14 14 13 13 13 13 13 13 12 12 12 12
12 14 13 12 12 12 13 13 14 15 16 17 18 18 18 17 16 16 16 17 17 16 18 18 17 17 17 17 16 15 15 14 14 14 14 14 14 13 13 13 13 13 12 12
10 12 14 13 12 13 12 13 13 15 16 18 19 20 18 17 16 16 16 17 17 17 17 18 18 18 17 17 17 17 16 15 14 14 14 14 14 14 14 13 13 13 13 12
9 11 13 13 13 13 13 13 13 15 15 15 17 20 17 16 16 16 17 17 17 17 17 18 18 18 18 18 17 17 17 17 16 15 15 14 14 14 14 14 13 13 13 13
7 9 12 13 13 12 13 13 13 14 15 15 17 18 16 16 16 15 16 16 16 16 17 18 18 18 18 18 18 18 18 17 17 16 16 15 15 14 14 14 13 13 12 13
6 9 11 15 14 13 13 13 13 14 14 16 16 17 16 16 15 15 15 15 15 16 16 17 18 18 18 18 18 18 18 18 17 17 17 16 16 16 15 14 14 13 13 12
4 7 7 10 9 10 13 13 13 14 14 15 16 16 15 15 15 14 14 14 16 16 16 16 17 17 18 18 18 18 18 18 18 17 17 17 16 16 15 15 14 14 13 13
2 6 5 7 7 7 9 10 12 13 14 14 14 15 15 15 14 14 13 15 16 16 16 16 17 17 17 17 18 18 18 18 18 18 17 17 17 16 16 15 15 14 14 14
1 4 4 8 8 8 8 9 9 10 11 11 12 12 13 13 12 13 15 15 15 16 16 16 16 17 17 17 18 18 18 18 18 18 18 17 17 17 16 16 16 15 15 14
-0 1 4 7 6 8 10 11 10 10 10 10 11 11 12 12 12 12 13 13 15 15 16 17 17 16 17 17 17 18 19 19 19 19 18 18 17 17 17 17 17 16 16 15
-1 0 3 5 6 9 9 8 8 9 10 11 11 11 11 11 12 12 14 14 15 16 16 16 17 17 17 17 17 18 19 19 19 19 18 18 18 18 17 17 17 17 16 16
-1 -1 1 4 5 8 9 8 7 7 9 10 9 9 10 10 12 13 15 14 14 15 16 16 17 17 17 17 17 18 18 19 19 19 18 18 18 18 18 18 17 17 17 16
-0 -1 0 2 4 6 7 5 5 7 8 6 7 7 10 11 11 13 13 14 15 16 16 16 16 17 17 17 18 18 18 18 19 18 18 18 18 18 18 18 18 18 17 17
0 0 1 1 2 4 5 4 5 5 5 6 7 9 10 11 12 13 14 14 15 15 16 16 16 16 17 17 17 17 18 18 18 18 18 18 18 18 18 18 18 18 18 17
-1 -1 1 2 2 2 3 3 3 5 5 7 9 9 10 11 12 13 14 15 15 15 15 16 16 16 17 17 17 17 17 18 18 18 18 18 18 18 18 18 18 18 18 17
-2 -2 -2 -1 -0 0 -0 1 1 1 5 6 7 8 10 11 12 13 14 14 14 15 15 16 16 16 17 17 17 17 17 17 17 18 18 18 18 18 18 18 18 18 18 18
-3 -3 -3 -2 -2 -1 -0 -0 0 0 1 6 7 8 10 11 11 13 13 14 14 15 15 15 16 16 16 17 17 17 17 17 17 17 17 17 17 17 17 17 17 17 17 17
-5 -4 -3 -2 -2 -2 -1 -1 -0 -0 2 4 5 7 9 11 10 11 13 13 13 14 14 15 15 15 16 16 16 17 17 17 17 17 17 17 17 17 17 17 17 17 17 17

GFSCGP_700_temp_027.txt.gz
Temp
10 10 11 13 13 14 16 17 18 18 18 18 18 18 18 17 17 16 15 14 13 12 11 11 13 11 10 9 12 12 11 11 11 11 11 11 11 11 10 10 10 10 10 10
10 11 12 12 13 14 15 16 18 18 18 18 18 18 18 18 17 16 16 14 13 13 12 11 13 12 12 12 12 12 12 12 12 11 11 11 11 11 11 10 10 10 10 10
12 13 12 13 14 14 15 16 17 18 18 18 18 18 18 18 18 16 16 15 14 13 13 14 14 13 13 12 13 13 12 12 12 12 11 11 11 11 11 11 11 11 11 11
12 14 13 13 14 14 15 15 16 17 18 18 17 19 18 18 18 17 16 16 15 14 13 13 14 14 14 14 13 13 13 13 12 12 12 12 12 12 11 11 11 11 11 10
13 13 14 13 14 14 15 16 15 16 16 17 18 18 19 18 18 18 17 16 16 15 14 13 15 15 14 14 14 13 13 13 13 13 13 13 12 12 12 11 11 11 11 11
13 14 14 14 14 14 14 15 15 15 16 18 17 18 19 20 19 19 18 17 17 16 15 13 13 14 15 14 14 13 13 13 13 13 13 13 13 12 12 12 12 12 12 12
13 14 14 14 14 14 14 14 16 17 18 18 17 18 19 19 19 19 18 18 17 17 15 14 13 14 15 14 14 14 14 13 13 13 13 13 13 12 12 12 12 12 12 12
14 14 14 14 14 15 14 15 17 17 19 20 18 19 18 19 19 19 19 18 18 17 16 15 13 14 15 15 15 14 14 14 14 14 13 13 13 13 13 13 12 12 12 12
15 15 15 14 14 15 15 15 16 19 19 21 20 19 19 19 19 18 19 18 18 18 16 15 14 14 16 15 15 14 14 14 14 14 14 13 13 13 13 13 13 13 13 12
15 16 16 15 14 14 16 15 16 17 19 20 21 21 20 19 18 19 18 18 18 18 17 16 15 14 17 16 16 15 15 15 15 14 14 14 13 13 13 13 13 13 13 13
13 15 16 16 14 15 14 15 15 17 18 21 21 21 20 20 19 18 18 18 18 18 17 16 15 15 16 16 16 16 16 15 15 15 15 14 14 14 14 13 13 13 13 13
12 14 14 16 15 15 15 15 16 16 18 19 20 21 19 20 19 18 18 18 18 18 18 17 16 15 14 16 17 17 17 16 16 15 15 15 15 14 14 14 14 14 13 13
11 12 14 16 16 15 15 15 16 16 18 18 20 20 18 18 18 18 18 18 18 18 18 17 17 16 15 15 17 17 17 17 17 16 16 15 15 15 15 15 14 14 14 13
7 10 13 17 17 16 15 16 16 17 17 18 18 19 18 17 17 17 17 18 18 17 17 17 17 17 16 15 17 18 18 17 17 17 16 16 17 17 16 15 15 14 14 13
6 9 11 13 16 16 15 15 16 16 17 17 19 18 18 17 16 16 16 16 16 16 16 16 16 16 16 15 17 18 17 17 17 17 17 17 17 17 16 15 15 14 14 14
6 7 9 12 14 13 14 16 15 16 16 17 17 19 18 17 16 16 16 15 15 15 15 15 15 16 17 17 18 18 18 18 18 18 18 18 17 17 17 16 16 15 15 15
3 6 9 11 11 12 12 14 15 16 16 16 16 17 17 17 16 15 14 14 14 14 15 15 15 15 17 17 18 17 18 18 18 18 18 18 18 17 17 17 16 17 16 15
2 4 6 9 10 12 12 13 13 14 15 16 16 16 16 15 14 14 14 14 14 15 15 15 16 16 15 16 16 17 17 18 18 18 19 19 18 18 17 17 17 17 16 16
1 2 6 8 11 12 12 12 12 12 13 13 13 13 13 13 13 13 13 14 15 14 14 15 15 16 15 15 15 15 16 18 18 19 19 19 19 18 18 17 17 17 17 17
2 2 3 7 10 12 12 11 11 11 12 12 12 12 13 13 13 13 13 13 13 14 14 14 14 14 14 16 17 17 17 18 18 19 19 19 19 19 18 18 17 17 17 17
2 2 3 4 6 9 10 9 9 10 10 10 11 11 11 11 11 12 12 13 14 15 15 14 15 16 16 16 17 17 17 17 18 18 18 19 19 19 18 18 17 17 17 17
2 3 3 4 5 7 8 8 8 6 6 6 7 7 8 7 8 11 13 13 13 13 14 15 15 16 16 16 17 17 17 17 18 18 18 19 19 18 18 18 18 17 17 17
1 2 4 4 5 5 6 5 6 4 4 4 4 5 5 6 8 11 13 13 13 14 14 15 15 16 16 16 17 17 17 17 17 17 18 18 18 18 18 18 18 17 18 18
-0 1 1 2 2 3 3 3 3 2 3 3 3 4 4 5 10 11 12 12 13 14 14 15 15 15 16 16 16 17 17 17 17 17 17 18 18 18 18 18 18 18 18 18
-1 -0 0 1 1 1 1 1 1 2 2 4 3 4 6 8 10 11 12 13 13 14 14 14 15 15 15 16 16 16 17 17 17 17 17 17 18 18 18 18 17 18 17 17
-2 -1 -1 -0 1 1 0 1 1 1 4 5 6 7 8 10 10 11 11 12 13 13 14 14 15 15 15 16 16 16 16 16 17 17 17 17 17 17 17 17 17 17 16 17

GFSCGP_700_temp_030.txt.gz
Temp
11 12 12 13 14 14 16 17 17 18 18 18 18 18 17 16 14 14 14 14 13 12 11 11 10 9 9 10 12 11 12 12 12 11 11 11 11 11 11 11 10 11 11 11
11 11 13 13 14 14 15 16 18 18 19 19 19 19 18 17 16 15 15 12 13 13 12 11 11 10 9 11 13 12 12 12 12 12 11 11 11 11 11 11 11 11 11 11
12 13 13 13 14 14 15 16 17 19 19 19 19 19 19 18 17 17 15 16 15 14 13 12 13 12 12 12 14 13 13 13 12 12 12 11 11 11 11 11 11 11 11 11
12 13 13 13 14 15 15 16 17 18 19 19 19 20 19 18 18 18 16 17 15 14 13 12 12 13 14 13 14 14 13 13 12 12 12 12 12 12 12 11 11 12 11 11
13 13 14 14 14 15 15 16 16 17 18 19 20 19 20 19 19 19 18 17 15 15 14 13 13 14 14 13 14 14 13 13 13 12 12 12 12 12 12 12 12 12 12 12
13 14 14 15 15 15 16 16 17 17 17 19 19 20 19 19 19 19 18 18 17 16 15 14 13 13 12 12 13 14 14 13 13 13 13 13 12 12 12 12 12 12 13 12
13 14 14 15 16 15 16 16 17 17 18 18 18 18 19 20 19 19 19 18 18 17 16 15 14 13 14 14 15 14 14 13 13 13 13 13 13 13 13 13 12 13 13 13
14 14 15 15 16 16 16 16 17 16 18 18 18 19 18 19 20 19 19 19 18 17 17 16 15 14 15 15 15 15 14 14 14 14 13 13 13 13 13 13 13 13 13 13
15 15 15 16 16 16 16 16 17 18 18 19 19 18 19 19 19 20 20 20 19 18 17 16 15 14 16 15 15 15 15 15 14 14 14 13 13 13 13 13 13 13 13 13
14 15 16 16 16 16 16 16 16 17 18 19 20 21 19 19 19 19 19 20 19 19 18 17 16 15 17 16 15 15 15 15 15 14 14 14 14 13 13 13 13 13 13 13
13 14 16 16 16 16 16 17 16 17 18 20 20 22 22 20 20 20 19 19 19 19 18 17 16 15 17 17 16 15 15 15 15 15 15 14 14 14 14 14 13 13 13 13
12 13 14 17 17 16 16 16 17 17 18 19 20 22 21 21 20 20 19 19 19 19 18 18 17 16 15 17 17 16 16 16 16 15 15 15 15 14 14 14 14 14 13 13
10 12 14 15 17 16 16 16 16 17 17 18 19 21 20 20 20 19 19 19 19 19 19 18 17 16 15 17 17 17 17 17 16 16 15 15 15 15 15 15 14 14 14 14
7 9 13 16 16 17 16 16 16 17 17 18 19 19 18 18 19 19 18 18 18 18 18 18 17 17 16 15 17 17 17 17 16 16 16 16 16 16 15 15 15 15 15 14
7 9 11 14 16 17 17 16 17 17 18 18 19 19 18 18 18 18 18 18 18 18 18 18 18 17 17 16 16 15 16 17 17 17 17 17 16 16 16 16 15 15 15 15
5 8 10 12 14 15 16 17 17 17 17 18 18 20 18 17 17 17 17 17 17 17 17 17 17 17 16 16 16 16 16 16 17 17 17 17 17 17 16 16 16 16 16 15
3 5 8 10 12 14 15 16 17 17 17 18 18 19 18 17 17 16 16 16 15 15 16 16 16 17 16 16 16 16 17 17 17 18 18 18 18 18 17 17 17 17 17 16
2 3 5 8 11 12 14 15 15 17 17 17 18 18 18 17 16 16 15 15 15 15 15 15 15 15 16 17 17 17 18 17 18 18 18 18 18 18 18 18 17 17 17 17
2 3 5 8 10 12 13 14 14 15 17 17 17 17 16 16 15 15 14 14 14 14 14 14 14 15 16 16 16 16 16 17 17 17 18 18 18 18 19 19 18 18 17 17
2 3 3 7 10 12 13 13 14 14 14 14 14 15 15 14 14 14 14 13 13 13 13 14 14 15 15 16 16 16 16 16 17 18 18 18 18 18 19 19 19 18 17 17
3 3 4 5 7 10 9 11 12 14 9 10 12 13 13 13 13 11 13 13 13 14 14 14 14 14 15 15 15 15 15 15 17 18 18 18 18 18 19 19 19 18 18 17
4 3 4 5 6 7 7 9 9 6 6 9 10 9 11 11 11 10 11 12 13 14 14 14 14 14 14 14 15 15 16 17 17 17 17 18 18 18 18 19 18 18 18 18
2 3 4 4 6 6 5 5 4 5 5 6 6 6 5 6 8 8 12 13 12 12 12 13 14 14 14 15 15 16 16 16 17 16 17 17 17 18 18 18 18 18 18 18
-0 1 1 2 3 4 3 3 4 3 4 4 4 5 4 4 7 10 12 12 11 9 12 13 14 14 13 15 15 16 16 17 17 17 17 17 17 17 17 17 17 17 18 17
-1 -1 -0 1 2 2 2 3 2 2 2 3 3 4 3 7 9 10 9 10 11 11 12 13 13 14 15 15 15 16 16 16 16 17 17 17 17 17 17 17 17 17 17 17
-2 -1 -1 0 1 1 1 1 2 2 2 2 3 5 7 8 8 7 7 10 11 11 11 12 12 14 14 15 15 15 16 16 16 16 17 16 17 17 17 17 17 16 16 16

GFSCGP_700_temp_033.txt.gz
Temp
11 10 11 11 12 12 13 14 15 16 17 17 17 17 16 13 13 14 13 11 10 12 10 10 10 9 9 9 11 12 12 12 11 12 11 11 11 11 11 11 11 10 10 10
10 10 11 11 12 12 13 14 15 16 17 17 17 18 15 15 15 16 15 12 11 13 11 11 10 10 10 11 12 12 12 13 12 12 11 11 11 11 11 11 11 11 11 10
10 12 11 11 12 13 13 14 15 16 17 18 18 18 16 16 17 15 14 14 11 14 13 13 11 12 12 13 13 13 13 13 13 12 12 12 11 11 11 11 12 11 11 11
10 11 12 12 12 13 13 14 15 15 16 17 19 17 18 17 17 17 16 14 15 14 13 13 13 11 13 14 14 13 13 13 13 12 12 12 12 12 12 11 12 12 12 11
11 11 12 12 13 13 14 14 15 15 16 16 17 18 19 18 17 17 17 16 15 14 12 13 14 14 13 13 14 14 13 13 13 13 13 12 12 12 12 12 12 12 12 12
11 12 12 12 13 13 14 14 15 15 16 15 17 17 19 19 18 17 17 16 14 14 15 15 14 14 13 14 14 13 13 13 13 13 13 13 13 12 12 13 12 12 12 12
12 12 13 13 13 14 14 14 14 13 14 14 16 17 18 19 19 19 17 17 17 16 16 15 14 15 13 14 14 15 14 14 13 13 13 13 13 13 13 13 13 13 13 12
12 12 12 13 14 14 14 15 14 11 12 14 16 17 18 18 18 19 19 18 18 16 17 17 16 15 15 15 15 15 15 14 14 14 13 13 13 13 13 13 13 13 13 13
11 12 13 13 14 14 15 15 15 16 17 16 17 17 17 18 19 19 19 18 18 17 17 16 17 16 15 15 15 15 15 14 14 14 14 14 14 13 14 13 13 13 13 13
11 12 13 14 14 15 15 15 15 16 12 12 17 17 17 18 19 19 19 19 18 18 18 17 17 16 17 16 16 15 15 14 14 14 14 14 14 14 13 13 13 13 13 13
8 11 13 14 14 14 16 16 16 16 16 11 12 17 19 19 19 19 19 19 19 18 17 18 17 16 17 17 16 15 14 15 14 14 15 14 14 14 13 13 13 13 13 13
5 8 11 12 15 15 15 16 16 15 15 16 16 17 19 20 20 20 19 19 19 19 18 18 17 17 17 17 17 16 15 15 15 15 15 15 14 14 14 14 14 14 13 13
2 7 11 12 12 14 15 16 16 16 16 16 14 16 19 20 21 20 19 19 19 19 18 18 18 17 17 17 17 16 16 16 16 16 16 15 15 15 15 14 14 14 14 14
-1 4 6 10 13 14 15 16 16 16 16 16 16 17 19 19 20 20 19 19 19 19 18 18 18 17 17 18 18 17 16 16 15 16 16 16 16 16 16 15 15 15 15 14
-0 4 7 10 13 14 15 16 16 16 16 16 16 17 19 19 19 19 19 19 19 19 19 18 18 18 17 17 17 17 16 16 16 16 16 16 16 16 16 16 16 16 16 15
1 2 6 10 12 12 13 16 16 16 16 16 17 17 18 18 19 18 18 19 18 18 18 18 18 18 17 17 17 18 17 16 16 16 16 16 16 16 16 16 16 16 16 16
-2 1 4 8 11 12 13 14 16 16 16 17 17 18 18 18 18 18 18 18 18 18 18 17 16 16 16 17 17 17 17 17 17 17 17 17 17 17 17 16 16 16 16 16
-3 1 3 7 10 10 13 14 15 16 17 17 17 18 17 17 17 16 17 17 16 16 16 16 16 15 15 15 15 16 16 16 17 18 18 18 18 18 17 17 17 16 16 16
-1 1 3 5 9 11 12 12 13 16 13 14 15 17 17 16 16 15 15 15 16 16 16 16 15 15 15 15 15 15 16 16 17 17 18 18 18 18 18 18 18 17 17 17
1 1 3 4 7 10 7 11 13 13 10 10 14 15 16 15 16 14 14 14 15 15 15 15 15 15 15 15 15 16 16 16 17 17 17 17 17 18 18 18 18 18 17 17
1 1 3 4 5 5 7 9 12 11 4 7 11 13 14 14 11 12 14 14 15 15 16 16 16 16 15 15 15 15 15 15 16 16 16 16 17 17 18 17 18 18 18 17
2 2 2 4 4 2 2 5 6 4 4 6 7 8 9 8 8 10 12 13 13 14 14 14 14 14 15 15 15 15 15 15 15 15 16 16 16 16 17 17 17 18 18 18
-0 -1 -1 0 0 -1 0 2 2 4 4 4 5 6 6 7 8 9 10 11 12 13 14 14 13 14 14 14 15 15 15 15 15 15 16 16 17 17 17 17 17 17 18 18
-3 -1 -1 0 0 -1 -1 -1 1 2 3 3 4 4 5 6 7 9 10 10 11 13 14 14 13 13 13 14 14 14 14 15 15 15 15 16 16 16 16 17 17 17 17 17
-1 -2 -1 -1 -0 -0 1 -1 -1 2 2 3 3 4 4 5 7 8 11 11 12 12 13 13 13 13 13 14 14 14 14 15 15 15 16 16 16 16 16 16 17 17 17 16
-2 -3 -3 -2 -1 -2 0 2 2 2 2 2 3 4 5 6 7 8 10 11 11 12 13 12 12 13 13 13 13 14 15 15 15 15 16 16 16 16 16 16 16 17 17 16

GFSCGP_700_temp_036.txt.gz
Temp
11 10 10 12 11 11 11 12 13 14 15 15 15 15 15 15 14 14 15 15 16 15 12 10 10 10 10 10 12 12 11 11 10 11 10 10 10 11 11 10 11 10 10 10
10 10 13 11 11 11 11 12 13 14 15 15 16 15 14 15 14 15 16 15 14 15 14 12 9 10 10 12 12 12 12 11 11 11 11 11 11 11 11 11 11 10 10 10
10 11 11 11 11 11 11 12 13 13 16 15 16 14 12 13 14 14 14 14 14 15 15 14 11 12 12 12 12 12 12 11 11 11 11 11 11 10 11 11 11 11 10 10
9 11 11 10 10 11 11 12 13 13 13 13 15 14 13 14 14 13 14 15 16 15 14 14 13 12 13 13 13 12 12 11 11 11 11 11 12 12 12 11 11 11 11 10
9 10 10 11 12 11 11 12 13 13 13 14 14 15 15 15 15 15 15 16 16 15 15 15 14 14 14 12 11 12 12 12 12 12 11 12 12 12 11 11 12 11 11 11
9 10 11 11 11 11 11 12 13 13 13 12 14 14 16 13 15 16 16 16 16 16 16 16 14 13 13 13 12 11 12 12 12 12 12 12 12 12 12 12 12 12 11 11
9 10 11 11 11 11 11 12 12 11 12 11 14 14 15 16 15 17 18 17 16 16 16 16 15 13 14 14 13 13 13 13 13 12 12 12 12 12 12 12 12 12 12 12
9 9 10 11 11 12 12 12 12 9 9 12 14 14 16 16 17 17 18 18 18 17 17 16 16 16 16 14 14 14 14 13 13 13 13 13 12 12 12 12 12 12 12 12
8 9 11 11 11 12 12 12 13 14 14 13 15 15 15 17 17 16 17 17 17 17 17 17 17 16 16 15 15 14 14 14 14 14 13 13 13 13 13 13 13 13 12 12
3 6 11 11 12 12 13 13 13 13 10 10 13 16 16 17 17 18 17 18 17 17 17 17 17 16 16 16 16 15 14 14 14 14 13 13 13 13 13 13 13 13 13 12
-1 1 10 11 11 12 12 13 14 14 14 10 10 15 17 18 18 19 18 18 18 17 17 17 17 17 17 17 16 15 14 14 14 14 14 14 14 14 13 13 13 13 13 13
-2 -1 5 10 12 12 13 13 14 14 12 14 15 15 17 17 18 19 19 19 18 18 18 18 18 17 17 17 16 16 14 14 14 15 15 14 14 14 14 13 13 13 13 13
-3 -1 2 9 10 12 12 13 14 14 15 15 13 15 17 17 18 18 19 19 18 18 18 18 17 17 17 17 17 16 15 14 15 15 15 15 15 15 14 14 13 13 13 13
-4 -4 -3 1 9 11 12 13 13 15 14 14 15 15 16 18 18 19 20 19 19 19 19 18 18 18 17 17 17 17 16 15 14 15 16 15 15 15 15 14 14 14 14 14
-3 -2 0 1 3 8 11 13 14 14 15 15 15 15 16 17 18 20 20 19 19 19 19 18 18 18 17 17 17 17 17 16 15 16 16 16 16 15 15 15 15 15 14 14
-3 -1 -1 5 8 10 11 13 14 14 15 15 16 16 16 17 18 19 20 19 19 19 18 18 18 18 17 17 17 17 17 17 16 16 17 16 16 16 16 16 16 15 15 15
-3 -3 -2 5 9 10 11 12 13 14 15 16 15 16 16 16 18 18 19 19 19 19 19 18 18 18 18 17 17 17 17 17 17 16 16 16 16 16 16 16 16 16 16 16
-3 -2 -1 4 8 9 9 10 11 13 13 14 14 16 16 16 18 18 18 18 19 18 18 18 18 18 17 17 17 17 17 16 16 17 16 16 16 16 16 16 16 16 16 16
-3 -3 -0 3 5 10 11 10 9 8 8 10 13 15 16 16 17 17 16 16 16 15 16 17 16 17 17 17 17 16 16 16 16 16 17 17 17 17 17 17 17 17 16 16
-3 -3 -2 2 4 4 2 8 9 9 8 8 11 12 14 15 17 15 15 15 15 15 15 15 15 15 16 16 16 16 16 16 16 17 17 17 17 17 17 17 17 17 17 16
-3 -0 2 2 3 2 2 6 8 6 3 4 7 11 12 13 14 14 14 15 15 15 15 15 15 15 15 14 15 15 15 16 16 16 16 16 17 18 17 17 17 17 17 17
-2 -2 -1 1 0 0 0 2 2 1 2 3 5 6 9 11 12 13 13 14 15 15 15 15 15 15 15 15 15 15 15 16 16 16 16 16 17 17 17 17 17 17 17 17
-3 -3 -3 -3 -2 -2 -1 -1 -1 0 1 3 4 5 6 8 11 11 12 13 14 14 15 15 15 15 15 15 15 15 15 15 15 15 15 16 16 16 16 16 16 16 17 17
-4 -4 -3 -3 -2 -1 -1 -1 -1 -0 1 2 3 4 5 7 8 10 11 12 13 14 14 14 14 15 15 15 15 15 14 14 14 14 14 15 15 15 15 15 15 16 16 16
-4 -3 -1 -1 -1 -2 -0 -0 -1 0 0 1 2 3 4 6 8 9 10 11 12 13 13 14 14 14 14 15 15 15 14 14 14 14 14 14 14 14 15 15 15 16 16 16
-5 -4 -3 0 0 -0 0 -1 -0 0 0 1 2 3 5 6 7 8 9 10 11 11 11 12 12 13 13 14 14 14 14 14 14 14 14 15 15 15 15 15 16 16 16 16

GFSCGP_700_temp_039.txt.gz
Temp
10 8 9 12 12 10 11 11 12 14 13 13 13 14 14 14 13 14 13 14 15 14 13 12 13 12 11 10 10 10 11 10 10 10 10 10 10 10 10 10 10 10 10 10
8 8 12 10 10 9 10 11 12 14 13 13 13 14 14 14 15 14 15 15 14 14 13 12 12 13 13 11 11 11 11 11 11 10 10 10 10 10 10 10 10 10 10 10
8 10 10 9 10 9 10 10 11 13 13 13 13 14 14 14 14 13 14 14 14 14 15 14 14 14 14 13 12 11 11 12 11 11 10 10 10 10 10 11 10 10 10 10
7 9 9 10 10 10 9 11 11 12 12 12 14 12 13 13 14 13 14 14 14 14 13 14 14 14 15 14 12 12 12 12 11 11 11 11 10 11 11 11 10 10 10 10
7 8 9 7 10 10 10 10 11 12 12 11 12 13 14 13 13 14 14 14 14 15 15 14 15 14 15 14 13 12 11 11 11 11 11 11 11 11 11 10 10 10 10 10
6 8 9 10 9 9 10 10 11 11 11 10 12 12 13 13 13 15 15 15 15 15 16 15 15 14 14 13 13 13 12 11 11 11 11 11 11 11 11 10 10 10 11 11
6 7 8 9 10 9 9 10 9 8 8 10 13 12 12 14 14 15 15 16 16 16 16 15 15 14 14 14 13 13 12 12 11 11 11 11 11 11 11 11 11 11 11 11
2 6 7 9 9 10 9 10 10 6 8 11 12 11 13 14 15 16 16 16 16 15 15 16 16 15 15 15 14 13 13 13 12 12 12 11 11 11 11 11 11 11 11 11
-0 4 8 8 9 9 10 9 10 12 11 11 13 13 13 14 16 17 16 16 15 16 15 16 16 16 16 15 15 14 14 13 13 13 12 12 12 12 12 11 11 12 11 11
-3 -2 6 9 10 9 10 10 10 10 8 8 10 14 14 15 15 16 17 17 16 16 16 15 16 16 16 16 15 14 14 13 13 13 13 12 12 12 12 12 12 12 12 11
-3 -3 6 7 8 10 10 10 11 11 11 10 8 13 15 15 15 16 16 17 17 17 16 16 17 16 16 16 15 15 14 13 12 13 13 13 13 12 12 12 12 12 12 11
-4 -3 -2 6 9 10 10 10 11 11 10 12 12 12 15 16 16 16 17 17 17 18 18 17 17 17 16 16 16 15 14 13 13 13 13 13 13 13 13 13 12 12 12 12
-5 -3 -1 6 8 9 10 10 11 12 12 12 11 13 15 15 16 17 17 17 18 18 18 18 17 17 17 16 16 15 14 13 13 13 13 13 14 13 13 13 13 13 12 12
-5 -4 -3 0 5 4 9 11 11 12 12 13 13 13 15 16 16 17 17 18 17 17 18 18 18 18 17 16 16 16 15 14 13 13 14 14 14 14 14 14 13 13 12 12
-5 -4 -3 -1 3 4 7 9 11 11 12 13 13 14 15 16 17 17 17 17 19 19 18 18 18 18 17 16 16 16 16 14 14 13 14 14 14 14 14 14 14 13 13 13
-4 -4 -3 1 5 5 6 8 10 12 12 13 13 14 15 15 16 16 17 18 20 20 19 19 19 18 18 17 17 17 16 16 15 15 15 15 15 14 14 14 14 14 14 13
-5 -4 -4 3 6 7 6 6 10 12 12 13 13 14 14 15 16 16 17 19 19 19 19 19 19 19 18 17 17 17 17 17 16 16 15 15 15 15 15 15 15 15 15 14
-6 -4 -4 1 5 6 4 5 8 10 9 11 13 14 15 15 16 16 18 19 19 18 19 19 19 19 18 18 17 16 17 17 16 16 16 16 16 16 15 15 16 15 15 15
-5 -5 -4 -1 2 4 6 6 6 7 7 9 11 13 13 15 15 15 17 18 18 19 19 19 19 18 18 18 17 16 17 16 17 16 16 16 16 16 16 16 16 15 15 15
-4 -3 -4 -2 1 3 3 5 6 6 7 6 11 13 12 13 14 14 16 18 18 19 19 18 18 18 18 17 17 17 16 16 17 17 16 16 15 15 16 16 16 15 15 16
-3 -3 -3 -3 0 1 4 5 5 5 2 4 6 8 11 12 14 13 13 13 17 18 18 18 17 17 17 17 17 17 16 16 16 16 16 15 15 15 15 15 15 15 16 16
-3 -3 -3 -1 -0 -0 3 4 5 1 1 2 5 7 7 9 11 12 13 13 14 15 16 16 16 17 17 16 16 16 16 16 16 16 16 15 16 16 16 17 16 16 16 16
-4 -4 -4 -2 -2 -1 -1 1 1 0 1 2 3 5 6 8 9 11 12 13 13 14 14 14 14 14 15 15 15 15 16 16 16 16 17 16 16 16 16 16 16 17 16 16
-4 -4 -4 -3 -3 -2 -2 -1 0 1 1 2 3 3 4 7 8 9 11 11 13 13 14 14 14 14 14 14 14 15 15 15 15 15 16 16 17 17 16 16 16 15 15 15
-5 -4 -4 -3 -2 -1 -1 -1 0 1 1 1 2 3 3 4 6 8 9 10 11 12 13 14 14 14 14 15 15 15 15 15 15 15 16 16 16 15 15 15 15 15 15 15
-4 -4 -4 -2 -2 -0 -1 -1 -1 0 0 1 1 2 3 4 4 6 7 9 10 10 12 13 14 14 14 14 14 14 14 14 14 14 14 14 14 14 14 14 14 14 15 15

GFSCGP_700_temp_042.txt.gz
Temp
8 8 9 13 10 10 9 10 12 13 13 12 13 12 13 13 14 14 13 13 14 14 12 12 11 10 10 10 10 10 10 10 10 10 9 10 9 9 9 9 10 10 10 10
7 8 10 10 9 9 9 9 10 12 12 12 12 13 13 13 14 14 14 14 14 14 13 12 12 11 11 11 10 10 10 10 10 10 10 10 9 9 9 9 9 10 10 10
6 8 8 8 9 8 8 9 11 11 11 12 12 12 13 13 13 13 13 13 14 14 13 13 12 12 11 11 11 11 10 10 11 10 10 10 9 9 10 10 10 10 10 10
5 7 7 8 9 9 8 10 10 11 10 11 12 12 13 13 14 14 13 13 14 14 13 13 13 13 13 12 12 12 12 11 11 10 10 10 10 10 10 10 10 10 10 10
5 6 6 7 8 8 10 9 10 10 9 10 11 11 13 14 14 15 15 14 13 14 13 13 14 14 13 12 12 12 12 11 11 11 11 10 10 10 10 10 10 10 10 10
6 6 6 7 8 7 9 9 9 9 9 8 10 11 12 14 15 15 15 14 14 14 14 13 14 13 13 12 12 12 12 12 11 11 11 11 10 10 10 10 10 10 10 10
5 6 6 7 7 7 7 7 7 6 7 8 11 10 11 14 15 15 15 16 15 14 14 14 13 14 14 13 12 12 12 11 11 11 11 11 11 10 10 10 10 10 10 11
2 4 7 7 7 7 7 8 8 4 5 9 11 10 11 13 14 15 16 16 15 15 14 14 14 14 14 13 13 12 12 12 12 12 12 12 11 11 11 10 10 10 11 10
-1 1 5 6 7 7 7 7 8 9 9 8 11 11 12 13 14 15 16 15 15 15 15 15 14 14 14 14 13 14 13 12 12 12 12 12 12 11 11 11 10 11 11 10
-3 -3 3 6 6 7 7 8 8 9 7 6 9 11 12 13 13 15 15 16 16 16 16 15 15 15 15 14 14 13 13 13 13 12 12 12 12 12 11 11 11 11 11 11
-2 -3 -1 3 5 7 7 8 8 9 9 8 6 10 13 13 14 15 16 16 16 16 17 17 16 15 15 14 14 14 13 13 13 12 12 12 12 12 12 12 11 11 11 11
-3 -4 -4 -0 6 7 7 8 9 9 8 9 9 11 13 14 14 15 16 16 17 17 17 17 17 16 16 15 15 14 14 13 13 13 12 12 12 12 12 12 12 11 11 11
-4 -4 -4 -0 5 6 5 7 9 9 10 9 9 10 13 13 13 14 15 16 16 17 17 17 16 17 16 16 16 15 14 13 13 12 12 12 12 12 12 12 12 12 11 11
-5 -5 -4 -3 3 2 5 7 8 9 10 10 10 11 11 13 14 15 15 16 16 17 17 17 17 17 17 16 16 16 15 13 13 12 12 12 13 13 13 12 12 12 12 12
-5 -5 -5 -3 -2 -1 1 6 7 8 9 10 11 12 12 13 14 14 15 15 16 16 17 17 18 18 17 17 16 16 15 14 13 12 12 13 13 13 13 13 13 13 12 12
-5 -6 -5 -4 -2 -0 1 5 6 7 9 10 11 12 12 13 13 14 14 15 16 17 17 17 18 18 18 18 17 16 16 15 14 13 13 13 13 13 13 13 13 13 13 13
-6 -7 -5 -4 1 1 1 4 6 7 9 10 11 12 12 13 13 14 15 16 17 17 17 18 18 18 18 18 17 16 16 16 14 13 12 13 14 14 14 14 14 13 13 13
-6 -6 -6 -4 -1 2 3 5 6 7 8 10 10 11 12 13 14 14 15 16 17 17 18 18 18 18 19 18 18 17 16 16 14 14 14 15 15 15 14 14 14 14 14 14
-6 -6 -6 -5 -1 2 2 3 4 7 6 9 10 11 12 13 14 15 15 16 17 18 19 19 19 19 18 18 18 17 16 16 15 14 15 15 15 15 15 15 15 14 14 15
-6 -6 -6 -4 -3 2 1 3 4 6 4 5 9 11 12 13 13 14 15 16 18 19 19 19 19 18 18 18 18 17 16 16 16 15 16 15 15 15 15 15 14 14 14 14
-6 -6 -6 -5 -3 0 1 3 4 4 3 4 5 8 9 12 13 13 15 15 17 18 18 18 18 18 18 18 18 17 16 16 16 15 15 15 14 15 14 14 14 14 15 14
-4 -4 -3 -2 -0 0 2 3 4 1 2 3 5 6 7 10 10 12 14 15 16 17 18 18 18 18 18 18 17 17 16 16 15 15 16 15 15 15 15 14 14 14 15 15
-5 -4 -4 -3 -2 -2 -1 0 -0 0 1 3 4 5 7 7 9 9 11 13 15 16 17 17 17 17 18 17 17 17 16 16 15 15 16 16 15 15 15 16 15 16 16 16
-4 -4 -4 -3 -2 -2 -2 -1 -0 0 1 2 3 5 6 7 7 9 10 11 12 13 14 15 17 17 16 17 17 17 17 16 16 15 15 16 16 16 16 15 16 16 16 16
-5 -4 -4 -4 -3 -2 -2 -1 -0 0 1 1 2 3 6 7 7 7 9 11 11 12 12 13 14 15 15 15 15 15 16 16 15 16 15 15 16 16 15 16 15 15 15 16
-5 -5 -4 -4 -4 -2 -1 -1 -1 -0 1 1 2 2 5 5 6 7 7 9 10 11 11 12 13 13 14 14 14 14 15 15 15 15 15 15 15 15 15 16 15 15 15 15

GFSCGP_700_temp_045.txt.gz
Temp
8 7 10 9 8 7 8 9 11 12 13 12 13 13 14 13 13 13 14 13 13 13 12 11 11 11 10 10 10 10 10 9 9 9 9 9 9 9 9 8 9 9 9 9
7 8 9 8 8 8 8 8 9 11 11 11 12 13 13 14 14 13 13 14 13 13 12 11 11 11 10 10 10 10 10 10 10 10 10 9 9 9 9 8 8 9 9 9
6 7 8 8 8 8 8 8 8 10 11 11 12 12 13 14 13 13 13 13 13 13 13 12 12 11 11 10 10 10 10 10 10 10 10 10 9 9 9 9 9 9 9 9
6 7 6 6 7 7 7 9 9 8 9 12 11 14 13 13 14 14 14 14 13 13 13 13 12 12 12 11 10 10 10 10 10 10 10 10 10 10 10 9 9 9 9 9
5 6 6 6 7 7 7 7 9 9 8 8 10 11 14 13 13 14 14 15 14 14 13 14 14 13 12 11 11 11 10 10 10 10 10 10 10 10 10 9 9 9 9 9
5 6 6 6 7 7 7 7 8 8 8 10 10 10 13 13 13 14 15 15 15 15 14 13 13 13 12 12 11 11 11 10 10 10 10 11 10 10 10 10 10 10 10 10
5 5 5 6 6 6 6 7 9 9 9 10 11 10 11 13 13 15 15 15 15 15 14 14 13 13 13 12 12 12 11 11 11 11 11 11 10 11 11 10 10 10 10 10
3 6 6 6 6 7 7 7 9 9 11 12 11 11 11 12 13 14 14 15 15 15 15 14 14 14 14 13 13 13 13 12 12 11 11 11 10 11 11 11 11 10 10 10
0 3 5 4 5 5 7 6 8 9 8 10 12 11 11 12 12 13 14 14 15 15 15 15 14 14 14 13 13 13 13 12 12 12 12 11 11 11 11 11 11 11 10 10
-1 -1 2 4 5 5 7 7 7 8 9 10 12 12 12 12 12 13 14 14 15 15 15 15 15 14 14 14 13 12 12 12 12 11 11 11 11 11 11 11 11 11 11 10
-2 -2 -1 1 3 5 6 5 7 8 8 11 11 13 12 12 13 14 14 15 15 16 16 16 16 16 15 14 13 13 12 12 12 11 11 11 11 12 11 11 11 11 11 11
-3 -2 -2 -1 1 4 2 4 6 8 9 9 10 12 12 12 14 14 14 14 15 16 16 16 16 16 16 15 14 14 13 12 12 12 12 11 12 11 12 12 12 11 11 11
-4 -4 -3 0 2 4 2 4 5 7 8 9 10 10 11 12 13 13 13 15 15 15 16 16 16 17 16 16 15 15 14 13 12 12 12 12 12 11 12 12 12 11 11 11
-4 -4 -4 -2 0 -2 -1 0 3 4 8 8 9 10 11 12 13 13 14 14 15 15 15 16 16 16 17 17 16 15 15 14 13 12 12 12 12 12 12 12 12 12 12 12
-5 -5 -5 -5 -3 -3 -4 -3 1 -1 5 8 9 10 10 11 13 13 14 14 15 15 16 16 16 16 17 17 17 16 15 14 13 13 12 12 12 12 12 12 12 12 12 12
-5 -5 -6 -5 -4 -4 -4 -2 -1 -1 3 5 8 10 10 11 12 12 13 13 13 14 15 16 16 16 17 17 17 16 16 15 14 13 13 12 11 12 12 12 12 12 12 12
-6 -5 -6 -4 -3 -3 -2 -1 -1 1 3 5 8 9 10 11 11 12 12 13 14 14 15 15 16 17 17 18 17 17 16 16 15 14 13 12 12 12 13 13 13 13 13 13
-6 -6 -6 -5 -5 -2 1 2 3 2 2 6 8 9 10 11 11 12 13 13 14 15 15 16 16 17 17 18 18 17 17 16 15 15 14 13 12 12 13 14 14 13 13 13
-7 -6 -6 -5 -4 -3 1 2 2 3 3 7 8 8 10 10 11 12 12 13 14 15 16 16 17 17 17 18 18 17 17 16 15 15 14 13 13 13 14 14 14 14 14 13
-5 -6 -6 -6 -4 -1 0 1 2 3 3 5 9 8 10 10 11 12 13 14 15 15 17 17 17 17 18 18 18 17 17 17 16 15 14 14 14 14 15 14 14 14 14 14
-6 -6 -6 -6 -5 -4 -1 1 2 3 2 4 5 9 10 10 11 12 13 14 15 15 17 18 18 18 18 18 18 18 17 17 16 16 15 14 14 14 14 14 14 14 14 14
-6 -6 -6 -6 -5 -4 -1 0 1 1 2 4 5 5 7 8 9 9 12 14 15 15 16 16 16 18 18 18 18 17 17 17 16 16 15 14 14 14 14 14 14 14 14 14
-5 -5 -4 -4 -4 -3 -3 -0 -0 0 1 3 4 6 7 7 8 8 9 12 14 14 15 16 16 17 17 17 17 17 17 17 16 16 15 14 14 14 14 14 14 14 14 15
-5 -4 -4 -4 -3 -3 -3 -1 -0 0 1 2 4 5 6 7 7 9 9 10 11 12 13 15 17 17 17 16 17 17 17 16 16 16 15 15 15 14 14 14 14 14 15 16
-5 -5 -4 -4 -3 -2 -3 -1 -0 1 1 2 3 4 6 7 7 8 9 11 11 12 12 13 14 15 16 16 16 16 17 16 16 16 16 15 15 14 15 15 15 15 15 15
-5 -5 -5 -4 -4 -3 -2 -2 -1 -0 0 1 1 3 5 6 7 7 8 10 11 11 11 12 13 14 13 14 14 15 15 16 16 16 15 15 15 15 15 15 15 15 15 15

GFSCGP_700_temp_048.txt.gz
Temp
7 7 8 10 10 11 12 13 14 14 14 13 14 14 14 14 13 14 13 13 13 13 12 11 10 10 10 10 10 9 9 9 9 9 10 9 9 9 9 9 9 9 9 9
6 7 9 9 9 9 10 11 12 13 13 13 14 14 15 13 14 14 13 13 13 13 12 11 11 10 11 11 10 10 10 9 9 9 10 9 9 9 9 9 9 9 9 9
8 9 9 8 8 8 9 11 12 12 11 12 13 15 15 14 12 12 14 13 12 13 13 12 11 11 11 11 11 11 10 10 9 9 10 10 9 9 9 9 9 9 9 9
7 9 8 8 8 8 10 10 10 11 11 13 13 16 15 15 13 12 14 14 14 13 13 13 12 12 11 11 11 11 10 10 10 10 10 10 10 9 9 9 9 9 9 9
8 7 8 8 8 9 10 10 10 10 11 12 13 14 16 16 15 13 12 14 14 14 14 13 13 13 12 11 11 11 11 10 10 10 10 10 10 10 9 9 10 10 10 9
7 6 7 8 8 8 8 9 9 10 11 13 13 14 16 16 16 15 13 13 15 15 14 14 13 12 12 11 11 11 11 11 11 10 10 10 10 10 10 10 10 10 10 10
6 6 6 7 8 8 8 9 11 12 13 14 14 13 14 16 16 15 15 14 15 15 15 14 14 13 13 12 12 12 11 11 11 11 11 11 10 10 10 10 10 10 10 10
7 8 6 6 7 9 8 9 12 13 15 16 14 15 14 14 14 15 14 15 13 13 15 15 15 14 13 13 13 12 12 12 11 12 11 11 11 10 10 10 10 10 10 10
6 7 5 5 6 6 9 9 10 12 14 16 16 14 14 14 14 14 14 14 14 13 15 15 15 15 14 14 14 13 13 12 12 12 12 12 11 10 11 11 11 11 11 11
2 4 4 3 6 6 7 10 10 10 12 13 15 15 15 14 14 14 14 14 14 13 15 15 15 15 14 14 14 13 13 13 13 12 12 12 12 11 11 10 11 11 11 11
-0 1 4 3 5 7 7 7 8 10 11 14 15 15 15 15 14 13 14 14 14 14 15 15 15 15 15 14 14 13 14 13 13 13 13 12 12 12 11 10 11 11 11 11
-1 0 1 3 4 4 4 5 8 9 11 11 13 15 15 14 14 14 14 14 15 14 14 15 15 15 15 15 14 14 13 14 13 13 13 13 12 12 11 11 11 11 11 11
-2 -1 1 4 4 3 3 5 5 6 8 10 13 13 13 13 13 13 14 14 14 14 14 15 15 15 16 16 15 15 14 13 13 13 13 13 12 12 12 11 11 11 11 11
-3 -2 -1 3 4 2 2 2 4 5 7 9 10 11 12 12 12 13 13 13 14 14 14 14 15 15 16 16 16 16 15 14 13 13 13 13 13 13 13 12 11 11 11 11
-4 -4 -2 -1 -1 -1 0 1 1 2 3 5 8 10 11 12 12 13 13 12 13 13 14 15 15 16 16 16 16 16 15 15 14 13 13 13 13 13 12 12 12 12 12 12
-4 -4 -3 -2 -1 -1 -1 0 1 1 1 2 3 6 9 11 11 12 12 12 12 13 14 14 15 15 16 16 16 16 16 16 15 14 13 13 13 12 12 12 12 12 12 12
-5 -4 -3 -2 -1 -0 0 0 1 2 2 2 3 6 9 11 10 11 11 11 12 13 13 14 15 15 16 16 17 17 16 16 15 15 14 13 13 12 13 12 12 12 12 12
-4 -5 -5 -3 -1 -0 -0 -0 1 2 3 3 3 5 8 9 9 10 11 12 13 13 13 14 15 15 16 16 17 17 17 16 16 15 14 14 13 13 12 12 12 13 13 13
-5 -5 -5 -4 -2 -2 -1 -0 1 2 3 3 4 5 8 8 8 10 11 12 12 13 14 14 15 15 16 16 17 17 17 17 16 15 15 14 14 13 12 12 12 13 13 13
-5 -5 -6 -4 -4 -2 -0 -1 -0 2 3 2 3 6 7 7 9 9 10 11 12 13 14 15 15 15 16 16 17 17 18 17 17 16 15 15 14 14 13 12 12 13 14 14
-5 -5 -5 -5 -4 -3 -4 -4 -4 -1 2 2 5 6 7 7 8 10 10 11 12 13 14 15 15 16 16 17 17 17 17 17 17 16 15 15 15 14 13 13 13 13 14 14
-5 -6 -6 -6 -5 -4 -4 -4 -3 -0 2 3 3 4 6 8 8 9 10 10 12 13 14 15 16 16 17 17 17 17 17 18 17 16 16 16 14 14 13 12 13 14 14 14
-6 -5 -5 -6 -5 -5 -4 -4 -2 -0 2 3 4 4 5 7 7 9 10 11 12 13 14 14 15 17 17 17 17 17 17 17 17 16 16 15 15 14 14 14 14 14 14 15
-5 -5 -5 -5 -4 -3 -4 -3 -3 -2 0 2 4 5 6 6 6 7 8 8 11 12 13 12 12 14 16 17 17 17 17 17 15 16 16 15 15 14 14 14 14 14 15 15
-6 -5 -5 -4 -4 -3 -4 -3 -3 -2 -1 0 2 5 6 7 7 8 7 9 8 10 10 11 10 10 11 14 17 17 17 17 17 16 16 16 15 14 14 13 13 14 14 14
-6 -6 -6 -5 -4 -4 -3 -3 -3 -2 -1 -1 -0 3 4 5 7 7 7 8 9 9 9 10 10 10 11 12 14 16 17 17 16 16 16 16 15 14 14 13 13 13 14 14

GFSCGP_700_temp_051.txt.gz
Temp
7 8 10 11 12 13 15 17 16 17 17 15 15 15 10 14 14 12 11 11 10 9 9 8 8 8 7 10 10 10 10 10 10 9 9 9 9 7 8 7 8 9 9 9
9 10 11 12 12 13 14 15 16 17 16 15 15 15 15 14 14 13 12 11 10 10 9 8 8 8 8 10 11 10 10 10 10 10 9 9 7 6 6 6 9 9 9 9
10 11 11 11 12 12 13 14 15 16 16 15 15 14 16 13 15 13 13 12 11 10 10 10 10 8 10 10 11 11 11 10 10 10 9 9 9 7 8 7 9 9 9 9
10 11 11 11 12 12 13 13 14 15 15 15 15 16 15 15 14 14 13 13 12 11 10 10 10 10 11 10 11 11 11 11 10 10 10 10 10 9 9 7 7 10 9 10
10 10 11 11 12 11 12 13 13 13 14 15 15 16 17 16 14 15 14 13 12 13 13 13 13 12 12 11 11 11 11 11 11 10 10 10 9 9 9 7 7 8 10 10
9 10 10 11 11 11 11 12 12 13 14 15 15 16 18 16 17 14 16 15 13 12 12 13 13 12 12 11 11 12 12 12 11 11 10 10 10 10 9 9 8 9 9 10
9 9 9 9 10 11 10 11 13 14 15 16 16 16 17 18 17 16 17 16 14 13 12 13 13 13 13 13 12 12 12 12 12 12 11 11 10 10 10 10 10 10 7 7
11 11 10 9 9 11 11 11 14 14 17 18 16 17 16 17 18 17 13 16 15 14 13 12 14 14 14 14 13 13 12 12 12 12 12 12 11 10 10 10 10 10 7 7
10 11 8 8 9 10 11 11 12 14 16 18 18 17 17 17 17 17 15 16 13 15 14 12 12 14 14 14 14 14 13 13 12 12 12 12 12 11 10 10 10 11 10 8
7 8 9 8 7 7 8 11 12 12 14 16 18 19 18 17 17 16 16 16 15 13 14 14 12 12 14 15 14 14 13 13 12 12 12 12 12 11 11 11 11 11 11 11
5 5 8 7 6 8 9 9 10 12 13 16 17 18 18 17 16 16 16 16 16 16 15 14 13 12 14 14 14 14 14 14 13 13 13 12 12 12 11 11 11 11 11 11
3 4 6 7 8 8 9 10 10 11 12 14 15 17 17 17 17 16 16 16 16 16 16 14 14 12 11 14 14 14 14 14 14 14 14 13 13 12 12 12 12 11 11 11
2 2 5 6 6 6 7 8 8 10 11 13 15 15 16 16 16 15 15 15 15 16 16 15 14 13 12 14 15 14 14 14 14 14 14 14 13 13 13 12 12 12 12 12
-1 1 3 6 7 5 7 7 8 9 10 11 12 14 15 15 14 14 14 15 15 15 16 15 14 14 13 12 15 15 14 14 14 14 14 14 14 14 13 13 12 12 12 12
-2 -1 0 2 2 3 3 5 6 6 7 9 11 12 12 13 13 14 14 14 14 15 15 15 15 14 13 13 15 15 14 14 14 14 14 14 14 14 13 13 13 13 13 12
-2 -2 -1 0 2 2 3 3 4 4 5 6 7 8 9 9 9 11 12 14 13 13 14 15 14 14 13 13 15 16 15 15 15 15 14 14 14 14 14 13 13 13 13 13
-3 -2 -2 -1 1 2 2 3 3 4 4 5 5 6 7 7 8 10 11 13 13 13 13 13 13 13 13 13 16 15 16 15 15 16 15 14 14 14 14 13 13 13 13 13
-3 -3 -3 -2 0 1 2 3 3 4 4 4 5 5 6 7 8 10 10 11 11 11 11 11 11 12 12 13 13 16 15 15 15 16 15 14 15 14 14 13 13 13 13 13
-2 -3 -3 -3 -1 0 1 2 2 1 2 2 3 4 5 6 7 8 9 9 11 11 11 12 13 13 13 13 13 14 16 16 16 16 16 15 15 15 14 14 13 13 13 13
-2 -2 -4 -2 -2 -0 1 2 -1 -1 -1 0 2 2 4 6 7 8 8 9 10 11 12 12 13 13 14 15 15 15 17 17 16 16 16 16 15 15 15 14 13 13 12 13
-4 -4 -4 -3 -3 -2 -1 -1 -2 -3 -1 0 3 3 5 6 7 8 9 9 10 11 12 12 13 14 14 15 15 16 16 17 17 17 16 16 16 15 14 14 13 13 12 12
-4 -4 -4 -4 -3 -3 -3 -3 -3 -2 -1 0 3 5 5 6 6 7 8 9 10 11 12 12 13 14 14 15 15 16 16 17 17 17 17 16 16 15 14 14 14 13 12 12
-5 -5 -4 -4 -3 -4 -4 -5 -4 -4 -2 -1 0 2 3 4 6 7 8 9 9 10 11 11 13 14 15 15 15 16 16 17 17 17 17 16 16 15 15 14 14 13 12 12
-5 -5 -5 -5 -4 -5 -5 -4 -4 -4 -3 -2 -0 1 2 2 5 6 7 8 9 10 10 11 12 13 14 15 16 16 16 16 17 17 17 16 16 15 15 14 13 13 12 12
-6 -6 -6 -5 -5 -5 -4 -4 -4 -4 -3 -2 -0 0 2 2 3 5 6 8 8 9 10 11 12 13 14 15 16 15 16 16 17 17 17 16 15 15 15 14 14 14 12 13
-6 -6 -6 -6 -5 -5 -5 -4 -3 -3 -2 -2 -1 -1 2 4 4 5 6 7 7 8 8 10 12 12 12 13 14 16 17 16 16 17 16 16 15 15 15 15 14 14 14 14

GFSCGP_700_temp_057.txt.gz
Temp
8 9 9 9 10 11 12 13 14 15 17 16 15 14 14 14 13 12 11 9 10 9 10 9 8 8 8 8 9 10 11 10 10 10 10 10 10 9 9 10 9 10 10 9
8 8 9 10 10 11 12 13 14 15 17 18 16 15 14 14 14 12 10 10 12 9 9 9 9 8 9 10 10 10 11 10 10 10 10 10 10 9 9 9 10 10 10 10
8 10 11 10 11 12 12 13 14 15 16 16 16 14 12 13 12 12 10 10 10 11 9 9 9 9 9 10 11 11 12 11 11 10 10 10 10 9 10 9 9 10 10 10
9 10 10 11 11 12 13 14 14 15 15 15 15 13 13 12 13 14 13 12 10 10 10 9 9 9 9 11 11 11 12 11 11 10 11 11 11 12 11 10 10 10 10 10
10 10 10 11 12 12 13 13 14 15 15 15 15 15 16 13 14 14 14 12 11 10 11 10 10 9 11 12 12 12 12 11 11 11 11 11 11 11 11 10 9 10 10 10
9 11 11 11 12 13 13 13 14 14 14 13 15 15 16 15 17 15 14 13 13 12 10 13 10 10 10 11 12 12 12 12 11 11 11 11 11 11 11 11 11 11 11 10
9 10 11 11 12 12 13 13 12 11 11 11 15 15 15 15 16 16 16 16 14 13 10 12 10 10 10 11 12 12 13 13 11 12 11 11 11 11 11 11 12 11 11 11
9 10 11 11 11 12 12 13 12 9 9 12 14 15 15 16 16 16 15 15 14 13 12 11 12 12 11 13 13 12 13 13 12 12 12 12 11 11 11 11 12 12 11 11
8 9 10 11 11 11 12 12 13 13 13 12 15 16 16 16 16 16 15 14 13 12 11 12 10 13 12 13 14 14 13 13 13 13 12 12 11 11 11 11 11 11 12 12
6 7 10 10 11 11 11 12 11 12 9 9 13 14 15 17 18 16 16 14 15 15 13 13 12 10 12 12 13 13 13 12 13 13 13 13 12 12 12 12 11 12 11 12
6 5 10 8 10 11 11 11 10 10 11 9 9 12 15 15 16 17 18 16 15 15 14 14 12 11 11 11 11 14 14 13 12 12 13 13 13 12 12 12 12 12 11 12
4 4 5 6 8 8 9 10 10 10 10 11 11 12 15 14 15 16 16 16 16 15 14 13 12 11 11 11 11 12 14 14 13 12 13 12 13 13 12 12 12 12 12 12
3 4 4 6 8 8 8 9 10 9 10 10 10 11 13 14 14 12 11 12 13 13 13 13 13 13 14 13 12 12 12 14 14 13 13 13 13 13 13 13 12 12 12 12
2 2 2 2 3 3 4 6 7 8 9 9 10 11 13 12 13 13 10 9 10 11 11 13 13 13 13 13 13 14 13 12 14 14 14 14 14 14 14 13 13 13 13 12
1 1 2 2 2 2 2 3 4 5 6 7 8 10 11 11 12 12 11 11 10 8 9 11 11 12 14 14 14 14 13 12 14 14 14 15 14 14 13 13 13 13 13 13
-0 -0 0 1 1 1 2 2 3 4 5 6 7 9 9 9 10 10 12 12 11 10 9 9 10 13 13 14 14 13 14 11 14 14 14 14 14 14 14 14 14 13 14 13
-1 -1 -0 -1 -0 0 1 2 2 3 4 5 6 7 7 7 8 9 10 12 12 11 11 12 12 13 12 13 12 14 14 11 13 14 14 14 14 14 14 14 14 14 14 14
-2 -1 -2 -2 -2 -2 1 1 2 3 3 4 4 5 6 5 6 8 8 9 10 11 11 10 9 9 9 10 11 13 12 11 12 14 14 14 14 13 14 14 14 14 14 14
-1 -1 -1 -2 -2 -1 -0 1 2 1 2 3 3 4 6 4 5 7 7 9 9 9 10 9 8 9 9 10 9 9 10 10 12 11 14 15 14 14 14 14 14 14 14 14
-2 -2 -3 -3 -3 -2 1 0 1 1 1 2 2 2 4 4 5 6 7 8 9 8 8 9 10 10 10 8 9 9 8 10 12 13 12 13 15 14 14 14 14 14 14 14
-3 -2 -2 -2 -3 -2 -1 -1 -0 -1 -0 1 1 1 2 2 4 5 6 8 9 9 9 9 10 9 10 9 9 10 9 11 13 12 12 12 14 15 15 15 14 14 14 13
-5 -5 -4 -4 -3 -3 -3 -1 -2 -1 0 -1 -0 1 2 2 4 4 4 5 6 8 8 9 9 9 9 9 10 9 8 10 12 14 12 11 12 15 16 16 15 14 14 13
-5 -5 -6 -5 -4 -4 -4 -4 -3 -3 -2 -1 -1 -0 -0 1 3 4 4 4 4 6 7 10 9 9 9 8 10 12 13 12 11 12 13 13 12 14 15 16 16 15 14 14
-5 -5 -5 -6 -5 -5 -5 -4 -4 -3 -3 -2 -1 -1 -1 -1 0 2 3 3 3 6 7 7 6 10 9 9 9 10 12 13 13 13 13 13 14 14 14 16 16 16 15 14
-5 -5 -6 -5 -5 -4 -4 -5 -4 -4 -4 -4 -4 -2 -1 -2 -1 -0 2 2 2 4 6 7 7 9 10 10 10 10 10 12 13 13 13 14 14 14 14 15 16 16 16 15
-5 -5 -5 -6 -6 -6 -6 -5 -4 -4 -4 -4 -4 -3 -3 -4 -2 -0 1 0 1 2 4 6 7 8 10 11 10 10 10 11 12 13 13 14 14 14 15 15 15 16 16 15

GFSCGP_700_temp_060.txt.gz
Temp
8 8 9 10 9 10 10 10 11 13 14 13 14 13 14 13 12 12 12 13 12 10 9 8 8 9 8 8 8 8 8 8 9 8 10 10 10 9 10 9 9 9 9 9
8 8 9 9 9 10 10 10 12 13 13 14 14 14 13 13 13 13 12 12 11 10 9 8 8 9 8 8 8 8 9 10 10 9 10 9 9 9 10 9 10 9 9 9
8 9 9 9 9 10 10 11 12 12 13 13 13 12 12 12 11 11 10 10 10 10 9 9 9 10 9 8 9 9 10 10 10 10 9 9 8 9 9 9 10 9 9 9
8 9 9 9 9 10 10 11 12 12 13 14 13 11 11 12 11 11 11 12 12 10 9 9 9 9 9 9 9 10 10 10 10 10 10 10 9 10 10 9 10 10 10 9
8 9 10 9 10 10 11 12 12 13 13 13 13 14 13 11 11 12 12 14 14 13 11 10 10 10 9 9 9 10 10 10 10 10 11 10 10 10 10 9 10 10 10 10
8 9 9 10 10 11 11 12 13 13 13 11 13 14 9 12 14 14 13 13 13 13 12 12 10 10 9 9 9 9 10 10 10 10 11 11 10 10 10 10 11 10 11 10
9 9 10 10 10 11 11 12 11 10 10 8 13 13 15 15 14 14 15 14 14 12 12 12 10 11 10 10 10 10 10 11 11 10 10 11 10 10 11 10 11 10 10 11
8 9 10 10 10 11 11 12 11 8 7 9 13 13 15 15 16 16 16 13 13 12 12 13 12 12 11 11 12 11 11 11 11 11 11 11 11 10 11 11 11 11 11 10
7 9 9 9 10 11 11 11 12 12 11 11 13 13 15 14 15 15 16 15 14 13 13 13 13 12 12 12 12 12 12 11 11 11 11 11 11 11 11 11 11 11 11 11
6 8 9 10 10 11 11 11 11 11 7 9 11 13 13 13 14 14 15 16 15 14 14 14 14 13 13 13 11 12 12 11 12 12 11 11 11 11 11 11 11 11 11 11
6 7 8 9 8 7 9 9 10 10 10 6 7 11 11 12 13 14 14 15 15 15 14 15 14 14 14 15 14 14 12 11 11 11 11 11 11 10 10 11 11 11 11 11
4 6 7 8 8 7 7 6 6 9 9 9 10 10 10 11 11 11 12 14 13 13 13 13 13 14 13 13 13 14 14 13 12 11 11 11 11 11 10 11 11 11 11 11
4 3 5 7 8 7 7 6 5 7 8 9 8 10 9 10 11 10 10 13 12 13 13 12 12 11 11 11 12 14 14 14 13 11 11 11 11 12 11 11 11 11 11 11
2 3 3 3 1 2 2 5 4 3 5 4 8 9 9 8 9 11 10 9 9 11 11 11 11 12 13 12 10 12 13 14 14 12 11 11 11 11 11 11 11 11 11 11
1 1 2 2 2 2 2 3 3 3 3 3 5 6 6 6 8 9 10 9 8 9 10 10 10 12 13 13 12 11 13 14 14 13 12 11 11 11 11 11 11 11 11 11
-1 -1 -0 1 2 2 2 2 3 3 3 3 4 4 5 5 6 7 9 8 8 7 7 8 9 11 12 12 12 12 12 12 13 13 13 13 11 11 12 12 12 11 11 12
-2 -2 -1 -1 -1 0 0 2 2 3 2 2 2 3 4 4 5 6 7 8 8 8 8 7 8 9 10 11 12 11 11 12 13 12 13 14 13 11 12 13 12 12 12 12
-2 -2 -2 -2 -1 -4 0 1 1 2 1 1 2 3 3 3 4 5 6 7 7 7 8 8 9 10 10 11 13 12 12 12 11 11 13 13 13 12 12 13 13 13 12 12
-2 -2 -2 -2 -2 -1 0 -1 -0 0 0 0 1 3 3 3 3 3 4 5 6 7 7 8 8 10 11 9 10 11 11 10 10 11 13 13 13 12 11 13 13 13 13 13
-2 -2 -2 -3 -3 -4 -1 -1 -1 -1 -0 0 0 2 3 3 2 3 4 4 5 5 7 7 8 8 7 8 9 10 9 11 12 13 13 12 12 12 11 12 13 13 13 13
-2 -3 -3 -4 -3 -2 -3 -2 -1 -1 -1 1 1 1 2 2 2 4 5 5 5 5 5 6 7 8 7 7 9 10 11 12 13 12 13 13 12 12 12 11 11 12 12 13
-4 -4 -5 -5 -4 -3 -4 -4 -4 -3 -1 -1 0 0 1 2 2 3 3 4 6 6 5 5 8 8 8 7 8 8 9 10 13 13 11 12 12 12 12 13 12 11 12 12
-5 -5 -5 -5 -4 -4 -4 -4 -4 -3 -2 -2 -1 -1 -0 0 1 2 3 3 4 4 5 6 8 8 8 8 8 8 8 8 10 10 12 12 12 12 11 11 12 11 12 12
-4 -4 -4 -5 -5 -5 -5 -5 -5 -5 -4 -3 -3 -1 -1 -1 0 1 2 3 4 4 4 5 7 7 7 8 8 8 8 9 10 10 9 10 11 12 12 12 12 12 12 13
-4 -4 -4 -4 -5 -5 -5 -6 -5 -5 -4 -3 -3 -3 -2 -4 -1 -0 1 3 3 4 4 5 6 7 7 8 8 8 8 9 9 9 9 10 11 10 11 11 12 13 14 14
-3 -4 -4 -4 -5 -5 -6 -6 -5 -5 -5 -5 -4 -4 -4 -5 -4 -2 0 2 3 3 4 5 5 6 6 6 9 8 8 9 10 10 10 10 10 11 11 12 13 13 13 14

GFSCGP_700_temp_063.txt.gz
Temp
8 7 8 8 9 9 10 11 11 12 12 12 13 14 13 12 13 13 12 12 12 11 10 8 8 8 8 8 8 8 8 8 9 9 9 9 10 9 9 9 9 8 8 8
8 7 8 8 9 9 9 10 11 12 12 12 13 13 12 12 13 13 11 12 12 10 9 8 8 8 8 8 8 8 8 8 8 9 9 9 9 9 9 9 9 9 8 8
7 8 8 8 9 9 9 10 11 11 12 12 12 13 12 11 11 12 11 11 11 11 10 9 10 10 8 9 8 8 8 8 9 9 9 9 9 9 9 9 9 9 9 9
7 8 8 8 8 9 9 11 10 11 11 12 13 11 12 11 12 12 12 12 11 12 10 10 11 12 9 8 8 8 8 8 8 9 9 10 10 10 9 9 8 9 9 9
7 8 9 8 9 9 10 11 11 11 11 12 12 11 12 12 12 13 13 13 12 11 12 12 12 11 11 9 9 8 8 8 8 9 10 10 10 10 9 9 9 9 9 9
7 8 8 9 9 9 10 10 10 10 11 10 13 13 13 14 15 15 13 13 12 10 10 10 11 10 10 10 9 8 8 9 9 9 9 10 10 10 9 9 9 9 9 9
8 8 8 9 9 10 10 10 10 9 8 8 13 12 14 15 15 15 15 14 14 13 11 10 10 11 10 10 10 9 9 9 9 9 10 10 10 10 9 9 9 10 9 9
8 8 8 9 10 10 11 11 11 8 6 9 12 13 13 13 15 14 15 14 13 13 12 11 12 12 12 10 12 11 9 9 9 10 10 10 10 10 10 9 10 9 10 9
7 8 8 9 9 10 10 10 11 11 10 11 11 12 12 12 13 14 15 15 14 13 13 13 13 13 12 11 12 12 10 10 10 10 10 10 10 11 10 10 10 10 10 9
6 7 8 8 9 9 10 9 10 11 6 8 9 10 8 11 12 13 14 16 15 15 13 13 13 13 13 12 12 12 11 11 11 11 11 11 10 11 11 10 10 10 10 10
6 7 8 8 7 7 9 8 9 9 10 4 5 7 7 9 10 12 13 14 16 15 13 13 13 12 13 12 11 11 10 11 11 11 11 11 11 10 10 11 11 10 10 10
5 6 6 5 6 6 7 5 6 7 7 8 9 6 7 8 9 11 12 14 15 15 13 12 12 12 12 12 12 12 11 10 11 11 11 11 11 11 11 10 11 10 10 10
4 5 5 4 4 5 5 4 5 5 6 5 5 6 6 7 9 10 11 13 14 12 11 11 11 11 11 12 12 11 11 11 11 11 11 10 11 11 11 11 11 10 10 10
3 4 3 2 1 2 2 3 4 4 3 4 4 5 6 7 8 9 9 10 10 9 8 10 10 10 11 11 11 11 11 11 11 11 11 11 11 11 11 11 11 11 10 10
2 2 2 1 1 1 1 2 3 3 3 3 4 3 4 5 7 7 8 9 9 8 8 9 10 11 11 10 9 9 10 11 10 10 11 11 11 10 10 11 11 11 11 11
0 -0 0 1 1 1 1 2 2 2 2 3 4 3 4 4 5 6 6 7 8 8 8 8 8 9 10 10 9 9 10 11 12 12 11 11 11 10 10 11 11 11 11 11
-1 -1 -1 -0 0 1 1 0 1 1 1 2 3 3 2 4 4 5 6 6 7 8 7 6 7 9 10 9 9 10 11 12 13 12 12 12 11 11 11 11 11 11 11 11
-2 -2 -2 -2 -1 -4 -1 -0 -0 0 -0 0 1 2 2 2 3 4 5 6 6 6 7 7 7 7 8 7 10 11 11 12 12 12 12 12 12 11 11 11 11 11 11 11
-2 -2 -2 -2 -2 -1 -0 -0 -0 -0 -0 0 0 1 1 1 2 4 4 4 5 6 6 7 7 7 7 7 10 11 11 12 12 11 11 12 12 12 11 11 12 12 12 11
-2 -2 -2 -3 -3 -5 -1 -1 -2 -3 -2 -0 0 1 1 1 0 2 3 4 4 5 6 7 7 7 8 8 7 9 11 10 10 11 11 12 12 12 12 11 11 12 12 12
-3 -3 -3 -4 -3 -3 -2 -2 -1 -2 -2 -2 -1 -0 -0 -0 0 2 2 3 3 4 5 5 7 7 8 7 7 7 7 8 8 10 11 12 13 13 13 12 11 11 12 12
-3 -3 -3 -4 -4 -4 -4 -4 -3 -3 -3 -3 -2 -2 -1 -1 -1 0 1 2 3 4 4 5 6 8 8 8 8 8 8 8 9 10 11 12 12 13 13 12 11 10 11 11
-3 -3 -3 -3 -3 -3 -3 -3 -3 -3 -2 -2 -2 -1 -1 -1 -1 -1 0 1 2 3 4 5 5 6 8 8 8 9 8 8 8 9 10 11 11 12 12 12 11 11 11 12
-3 -3 -4 -4 -3 -4 -4 -4 -4 -4 -4 -4 -4 -3 -3 -2 -1 -1 -0 1 2 3 4 4 5 6 7 6 7 8 8 8 8 8 8 8 8 10 11 12 11 11 11 12
-3 -3 -3 -3 -4 -4 -5 -5 -5 -4 -4 -4 -4 -4 -4 -3 -1 -2 -1 1 2 2 3 4 4 5 6 5 7 6 7 8 8 8 9 9 8 9 9 10 11 11 11 12
-2 -3 -4 -4 -4 -5 -5 -5 -5 -6 -5 -5 -4 -5 -5 -4 -3 -4 -2 -1 -0 1 2 3 5 5 5 6 6 7 7 7 9 8 9 9 9 9 10 11 11 12 12 12

GFSCGP_700_temp_066.txt.gz
Temp
8 8 9 9 8 9 9 10 11 11 11 11 12 12 12 12 12 13 12 11 11 10 9 8 8 8 7 7 7 7 8 9 9 9 9 9 9 9 9 9 9 8 8 8
8 8 9 8 7 8 9 10 11 11 11 12 12 13 14 13 12 12 12 12 11 11 9 8 8 8 8 7 8 8 7 8 8 8 8 8 8 8 9 9 9 8 8 8
7 8 8 7 7 8 9 10 10 11 11 12 12 13 14 13 12 11 11 11 10 10 10 9 8 9 8 8 8 8 8 8 8 8 9 9 9 8 9 9 9 9 8 8
6 7 7 7 8 8 9 9 10 10 10 11 12 11 13 13 12 12 12 11 11 10 10 9 9 9 9 9 9 8 8 8 8 9 9 9 9 9 9 9 9 9 9 8
7 7 7 7 8 8 8 9 9 10 10 10 12 11 13 12 12 13 12 12 12 11 10 10 10 9 9 9 9 9 8 8 8 9 10 10 9 9 8 9 9 9 9 9
7 7 8 8 8 9 9 9 9 10 10 9 12 12 14 13 14 14 13 13 12 12 11 11 11 9 9 9 9 9 8 8 8 8 9 10 10 9 9 9 9 9 9 9
7 7 8 8 9 9 9 9 8 7 7 7 12 12 12 13 14 14 13 12 13 13 13 12 12 11 10 10 9 9 9 8 8 8 9 9 10 10 10 9 9 9 10 9
7 8 7 8 8 9 9 10 9 7 4 8 11 12 12 12 13 14 14 13 13 12 12 12 12 11 11 10 10 9 9 9 8 8 9 9 9 10 10 10 10 9 9 9
7 7 7 8 9 9 9 9 10 10 8 9 10 11 11 12 12 13 14 14 14 13 12 12 12 12 11 11 10 9 9 9 9 9 9 10 10 10 10 10 10 10 9 9
6 7 7 8 8 9 9 9 10 10 6 8 8 7 8 11 12 13 13 13 14 14 13 11 12 12 11 10 10 9 9 9 9 10 9 10 10 10 10 10 10 10 9 9
6 7 6 7 6 8 8 8 9 9 9 5 4 5 6 8 10 12 13 13 14 15 14 12 11 11 11 10 11 10 9 9 9 9 9 9 10 10 10 10 10 10 10 10
5 5 5 4 5 5 7 6 8 9 7 8 7 5 6 7 8 10 12 13 14 14 14 13 12 11 11 10 11 10 10 9 9 9 8 8 9 10 10 10 10 10 10 10
5 5 3 2 4 5 5 4 5 6 7 5 5 5 5 6 8 9 10 12 12 13 13 13 12 11 11 11 11 11 10 10 9 9 9 8 8 8 10 11 10 10 10 10
3 4 5 4 4 4 4 4 4 5 5 3 3 4 5 6 7 8 8 9 10 10 10 10 11 12 12 11 11 11 11 11 10 9 9 9 8 8 8 9 11 11 10 10
2 3 2 2 3 2 2 2 3 4 4 4 3 4 4 4 5 6 6 7 8 8 8 7 8 9 10 11 11 11 11 11 11 11 10 9 9 8 8 8 9 10 11 10
1 1 0 0 0 0 1 2 2 4 3 3 4 4 4 3 3 4 5 6 6 7 6 8 8 8 8 9 10 10 11 12 11 11 11 11 10 9 9 9 9 10 10 11
-0 0 0 -0 -1 0 0 0 1 2 3 3 3 4 4 4 4 3 4 5 5 6 6 6 7 7 8 8 8 9 11 12 11 11 11 12 11 10 9 9 10 10 11 10
-2 -1 -0 -0 -0 -3 -2 -1 -0 0 1 1 2 2 3 4 4 4 4 4 5 5 5 6 6 6 7 7 7 8 9 10 10 11 11 11 11 10 10 9 10 10 11 11
-2 -2 -2 -2 -2 -2 -2 -1 -1 -0 0 1 1 1 1 2 4 3 3 3 4 4 5 6 6 6 6 6 7 7 8 9 10 11 11 11 11 11 10 9 10 10 10 10
-2 -2 -2 -2 -2 -4 -2 -1 -1 -0 -0 0 0 1 1 1 1 3 3 3 3 3 4 5 6 6 7 6 6 7 8 9 10 10 11 11 11 12 11 10 10 10 10 9
-2 -3 -3 -3 -3 -3 -2 -2 -2 -3 -2 -1 -1 -1 -1 -0 1 2 2 2 2 3 3 4 5 6 6 7 7 7 9 10 7 7 8 10 12 12 12 11 11 10 11 11
-2 -3 -3 -3 -4 -4 -3 -3 -3 -3 -3 -3 -2 -2 -2 -1 -1 0 1 2 2 2 3 3 4 5 6 6 7 7 7 6 5 6 7 8 9 11 12 12 12 11 11 11
-3 -2 -3 -3 -3 -3 -3 -3 -3 -3 -2 -2 -2 -3 -3 -2 -2 -1 -0 1 1 2 3 3 3 5 6 6 6 7 7 7 7 7 6 7 8 9 10 12 12 11 11 11
-2 -2 -2 -3 -3 -3 -3 -4 -3 -3 -3 -3 -3 -3 -3 -3 -3 -2 -1 0 1 1 2 3 4 4 5 6 6 7 7 8 8 7 7 7 7 7 7 10 11 11 12 12
-3 -3 -2 -2 -3 -3 -4 -4 -4 -3 -3 -3 -3 -3 -3 -4 -4 -3 -2 -1 -1 0 1 2 3 5 5 5 6 6 7 7 8 8 7 7 7 7 7 7 8 10 11 12
-2 -2 -2 -3 -3 -3 -3 -4 -4 -4 -4 -4 -3 -3 -4 -4 -4 -4 -4 -3 -1 -1 -0 1 2 3 5 6 6 6 6 7 8 8 8 8 7 8 7 7 8 8 10 11

GFSCGP_700_temp_069.txt.gz
Temp
8 9 10 8 8 8 9 10 11 11 11 12 12 12 12 12 11 12 11 11 10 9 8 8 8 8 8 8 8 9 9 9 9 9 9 8 9 9 8 8 8 8 8 8
8 9 9 8 8 8 8 9 10 11 11 11 12 13 13 13 13 11 11 12 10 9 8 8 8 8 8 8 8 8 8 9 9 8 7 8 9 8 8 9 9 9 8 8
7 8 9 8 7 8 8 9 10 10 11 12 12 13 13 13 14 13 11 11 10 10 10 9 8 8 8 7 7 8 8 9 8 8 8 8 9 9 9 9 9 9 8 8
6 8 8 7 7 8 8 9 9 10 10 12 12 13 13 13 13 13 12 11 11 11 10 9 8 8 8 8 8 8 8 8 8 8 8 8 8 9 8 8 9 9 9 8
7 7 7 7 7 8 8 9 9 9 10 10 11 12 13 13 12 12 12 12 11 11 11 10 9 9 9 8 8 8 8 8 8 9 9 9 9 8 8 8 9 9 9 8
7 7 7 7 7 8 8 9 9 9 9 12 11 12 11 11 12 11 12 12 11 11 11 10 9 9 9 8 8 8 8 8 8 8 9 9 9 9 8 8 9 9 9 9
7 7 7 7 8 8 8 9 10 11 11 13 12 12 9 10 11 13 14 13 12 12 11 11 11 10 9 9 8 8 8 8 8 8 9 9 10 9 9 8 8 9 9 9
7 7 7 8 8 9 8 9 11 11 11 13 11 12 8 10 11 12 14 13 13 13 12 12 12 12 11 10 8 8 8 8 8 8 8 9 9 10 10 9 9 9 8 9
7 6 7 8 8 8 9 8 10 9 8 12 11 10 10 10 11 12 13 14 13 13 13 12 12 11 11 10 9 9 9 8 8 8 8 8 9 10 10 9 9 9 9 8
6 6 6 7 8 8 9 9 9 10 11 12 9 8 8 10 11 12 12 13 14 13 13 12 12 11 11 10 10 9 9 9 8 8 8 8 8 9 10 10 10 9 9 9
6 7 6 6 7 8 8 8 9 10 9 12 11 8 6 7 9 12 12 13 14 14 13 12 11 11 11 10 10 9 9 8 8 8 8 8 8 9 10 10 10 9 9 9
6 6 5 4 5 6 7 8 9 10 8 8 10 6 5 7 8 9 11 12 13 13 13 13 12 11 11 10 10 10 9 9 8 8 8 8 8 8 9 10 10 9 9 9
5 5 4 4 4 5 5 6 7 8 9 7 11 6 5 6 7 9 10 11 12 12 12 12 12 12 12 11 10 10 10 9 9 9 8 8 8 8 8 9 10 9 9 9
5 5 5 6 5 5 5 5 5 6 6 5 5 4 5 6 7 8 8 7 8 10 10 11 11 11 11 11 11 11 10 10 10 9 9 8 8 8 8 8 8 9 9 9
4 4 4 4 5 5 5 5 5 4 4 5 3 3 5 5 6 6 7 7 7 7 7 7 8 9 10 11 11 11 11 11 10 9 9 9 8 8 8 8 8 8 9 9
2 2 2 2 2 3 3 4 5 4 4 4 4 4 4 4 5 5 4 5 6 7 6 7 7 8 8 8 10 11 11 11 11 11 10 10 9 9 8 8 8 8 8 9
1 1 0 0 1 1 1 2 3 2 3 3 3 4 4 4 4 4 4 4 5 6 6 5 7 7 7 7 8 7 8 11 11 11 10 11 10 10 10 9 9 9 8 8
-0 -0 -0 -1 -1 1 0 1 1 1 2 2 2 3 3 4 4 4 4 4 4 4 5 5 6 6 6 7 7 7 7 8 10 10 10 10 11 10 11 10 10 10 10 10
-1 -1 -1 -1 -1 -2 -1 -0 1 1 1 1 1 1 2 2 3 3 3 4 4 4 5 5 5 5 5 6 6 7 7 7 8 9 9 10 10 10 11 11 11 10 10 10
-2 -2 -2 -1 -1 1 -1 -0 0 0 -1 1 1 1 1 1 1 1 2 2 3 3 4 5 5 5 5 5 5 6 6 7 7 8 9 9 10 10 9 10 11 10 10 10
-3 -3 -3 -2 -2 -2 -1 -1 -1 -2 -2 -1 -1 -1 -0 0 1 1 1 1 2 3 3 3 4 5 5 5 5 5 5 6 7 7 8 9 9 10 10 10 11 11 10 10
-2 -2 -3 -3 -3 -2 -1 -2 -2 -2 -2 -2 -1 -1 -1 -0 0 1 1 1 2 2 2 2 3 4 5 5 5 6 6 5 5 6 6 7 9 9 9 10 10 10 10 10
-2 -2 -2 -1 -1 -1 -1 -2 -2 -2 -2 -2 -2 -1 -1 -1 -1 -1 0 1 1 2 2 3 3 3 4 5 5 6 6 6 6 5 6 6 6 7 7 8 9 10 10 11
-2 -2 -2 -2 -1 -1 -1 -1 -2 -2 -2 -2 -2 -2 -2 -1 -1 -0 -0 -0 0 1 2 2 2 3 4 3 4 5 5 6 6 6 6 6 6 6 7 7 8 9 9 10
-2 -2 -1 -1 -2 -2 -1 -1 -2 -2 -2 -2 -2 -2 -2 -2 -2 -1 -1 -1 -1 -0 0 1 2 2 3 3 3 4 5 6 6 6 7 6 7 7 7 7 7 8 9 10
-1 -1 -1 -1 -1 -1 -1 -2 -2 -3 -3 -3 -3 -3 -4 -4 -3 -3 -2 -1 -2 -1 -1 -1 -0 1 2 2 3 3 4 5 6 7 7 7 7 7 7 7 7 7 7 8

GFSCGP_700_temp_072.txt.gz
Temp
8 8 9 10 11 12 14 13 14 13 12 13 13 13 11 13 11 11 10 10 9 8 9 9 8 8 8 9 9 9 9 9 9 9 9 8 8 8 8 8 8 8 8 9
7 8 10 10 10 10 11 13 13 12 12 13 13 13 11 11 11 11 11 11 9 8 8 9 9 8 8 9 9 9 9 9 9 9 8 8 8 8 8 9 8 8 8 9
9 10 9 8 9 10 11 13 13 13 12 12 13 13 12 13 10 10 11 9 9 9 8 8 8 8 8 8 9 9 9 9 9 9 8 8 9 9 8 8 8 8 9 9
9 9 8 8 9 10 12 11 12 12 12 14 13 17 13 11 10 10 10 11 9 9 9 8 8 8 8 8 8 8 8 8 8 8 8 9 9 8 8 8 8 9 8 9
9 9 8 9 10 10 12 10 11 12 12 13 13 15 12 12 11 12 12 11 9 10 10 9 8 7 8 8 8 8 8 8 8 8 8 8 9 9 8 8 8 8 8 8
9 8 9 10 10 9 10 10 10 11 13 14 15 15 14 13 10 10 9 10 10 9 10 9 8 8 8 8 8 8 8 8 8 8 8 8 9 9 9 9 8 8 9 9
8 8 9 9 9 9 9 11 13 14 14 16 15 14 11 9 10 12 12 12 9 9 9 9 8 8 8 8 8 8 8 7 8 8 8 8 9 9 9 9 8 8 8 9
9 9 8 8 9 10 10 11 15 14 16 16 13 14 10 9 11 11 13 14 12 9 9 9 9 8 8 8 9 8 8 8 8 8 8 8 9 9 9 9 9 8 8 9
10 9 7 8 8 9 10 11 13 14 14 17 14 10 9 8 9 12 13 13 10 10 9 9 9 9 8 9 9 9 8 8 8 7 8 8 8 9 9 9 9 8 8 7
8 8 7 7 8 9 10 10 11 12 15 15 15 13 10 8 10 11 13 13 12 9 9 9 9 8 9 9 9 9 9 8 8 8 8 8 8 8 9 9 9 9 9 9
6 8 7 8 8 9 9 10 10 13 14 16 16 13 7 6 10 11 12 13 13 13 10 10 10 9 9 8 9 9 9 8 8 8 8 8 8 8 8 9 9 9 9 9
6 8 8 8 7 8 8 9 10 12 13 13 15 9 5 6 9 10 11 12 13 12 12 11 11 10 9 9 9 10 9 9 8 8 8 8 8 8 8 9 9 9 9 9
6 6 7 6 6 6 7 7 7 9 11 13 15 8 4 6 7 7 10 10 10 11 10 10 10 9 11 10 10 8 9 9 9 9 8 8 8 8 8 8 8 9 9 9
5 5 5 9 8 8 6 6 6 8 11 12 12 6 4 3 6 7 7 7 9 9 9 9 9 11 11 11 10 10 10 9 9 9 9 9 8 8 8 8 8 8 9 9
4 5 4 5 5 5 5 5 6 7 8 10 9 7 4 2 5 6 6 6 7 7 7 8 8 9 10 11 11 10 10 10 10 9 9 9 8 9 8 8 8 8 8 9
4 4 4 4 5 4 5 4 4 5 6 7 7 4 2 4 5 5 6 6 5 6 7 7 7 7 7 8 9 10 10 11 10 10 10 10 9 9 8 8 8 8 8 8
2 3 3 6 3 3 5 5 4 4 4 6 6 3 4 4 4 4 4 5 5 5 6 6 7 7 7 7 8 8 9 9 10 10 10 10 9 9 9 9 9 9 9 9
1 1 2 5 3 5 2 4 2 3 1 3 4 4 4 4 4 4 4 4 4 5 5 5 5 6 6 7 7 7 8 7 7 9 10 10 10 10 10 9 9 10 10 10
-0 0 1 3 4 3 1 2 1 2 1 2 2 3 3 4 3 3 4 4 4 4 5 5 5 5 5 6 6 6 7 7 7 9 9 9 10 10 9 9 10 10 10 10
-1 -1 0 1 3 5 2 2 2 2 2 2 2 2 2 2 2 1 2 3 3 3 4 4 5 5 5 5 5 6 6 6 6 7 7 9 10 10 10 10 10 10 10 10
-1 -1 -1 1 1 2 -1 1 1 1 1 1 1 1 1 1 1 1 2 2 3 3 3 3 3 5 5 5 5 5 5 5 6 7 7 7 8 8 9 9 9 9 9 9
-1 -1 -1 -0 1 -0 -1 -0 -0 0 -0 0 0 1 1 1 1 1 2 2 2 3 3 3 4 3 4 5 6 6 5 5 5 5 6 7 7 8 7 8 9 9 9 9
-2 -2 -2 -2 -1 -0 -0 -1 -0 -0 -0 -0 -0 0 0 0 0 0 1 1 1 2 2 3 4 4 4 3 4 6 6 6 5 5 5 5 6 7 8 9 8 9 9 9
-1 -1 -1 -1 -1 -1 -1 -1 -0 -0 -1 -1 -1 -1 -1 -0 -0 0 0 0 1 1 1 1 2 3 4 4 4 4 5 6 6 6 5 5 5 6 6 7 7 8 8 8
-2 -1 -1 -0 -0 -1 -1 -1 -1 -1 -1 -1 -1 -1 -1 -1 -1 -0 -0 0 0 0 1 1 1 2 2 3 4 4 4 4 6 7 6 6 5 5 7 6 7 7 7 8
-1 -1 -1 -1 -1 -1 -1 -1 -1 -1 -1 -2 -2 -2 -2 -2 -2 -2 -1 -1 -1 -0 -0 -0 0 1 1 1 2 3 4 4 4 5 7 7 6 6 6 6 7 7 7 7

GFSCGP_700_temp_075.txt.gz
Temp
8 10 11 12 13 15 16 16 17 17 15 16 16 12 11 11 9 9 10 10 9 9 8 9 8 8 8 8 9 9 10 10 9 9 9 7 8 8 7 9 8 8 8 8
9 10 12 13 14 14 15 17 17 16 15 16 16 16 13 11 11 10 11 10 9 9 9 8 8 8 9 8 9 9 9 9 9 9 8 6 9 7 9 8 8 8 8 8
11 12 12 13 13 13 14 16 17 16 14 15 16 16 14 12 12 11 11 10 10 9 9 8 8 8 8 8 9 9 9 9 9 9 9 9 8 7 8 9 9 9 8 9
11 12 12 12 13 13 15 15 16 16 15 16 15 18 15 13 13 11 11 11 9 9 9 9 8 9 9 7 9 9 9 9 9 9 9 9 9 9 8 8 8 9 9 9
11 12 11 11 12 13 15 14 15 15 15 17 16 17 14 14 13 10 12 10 10 10 9 9 9 9 9 8 9 9 9 9 9 9 9 9 9 8 8 9 9 9 9 9
11 11 11 11 12 13 13 13 13 14 15 17 17 17 14 14 13 11 10 12 11 10 10 9 9 9 9 8 7 8 9 9 9 9 9 9 8 7 8 8 9 9 9 9
10 11 11 11 12 12 13 13 14 15 16 18 17 17 14 12 12 12 11 12 12 10 10 10 9 8 8 9 8 7 8 8 8 8 9 9 9 9 9 9 8 8 9 9
11 11 11 11 12 13 13 14 16 16 18 18 18 18 13 11 10 10 11 11 10 10 10 10 9 9 8 9 8 8 8 8 8 8 8 9 9 9 9 9 9 7 9 9
12 12 11 11 12 13 13 13 15 17 18 19 17 13 11 10 9 12 11 12 11 11 10 11 10 9 9 9 8 8 8 8 8 8 8 8 8 9 9 8 9 8 8 9
10 11 10 10 10 11 12 13 14 15 17 18 18 14 14 11 9 11 12 12 11 11 11 10 10 10 9 8 8 8 7 9 8 8 8 8 8 8 9 9 9 9 8 9
9 10 10 10 10 11 11 12 14 15 16 19 19 14 10 8 8 11 12 12 13 13 12 11 11 10 10 9 8 9 7 9 8 8 8 8 8 8 8 9 9 9 9 10
8 10 11 10 10 9 11 13 13 14 15 16 17 10 8 5 11 11 12 12 12 12 12 12 11 10 9 10 10 9 8 8 9 8 8 8 8 8 8 8 9 9 9 9
7 9 11 10 9 9 10 11 12 13 14 16 17 9 7 6 9 11 10 11 11 11 11 11 11 10 9 9 9 9 10 10 8 8 8 8 8 8 8 8 8 9 9 9
7 8 8 9 11 10 10 10 10 12 13 14 15 8 6 5 7 8 8 8 9 10 11 11 10 10 10 9 9 8 8 8 9 9 8 8 8 8 8 8 8 8 9 9
6 6 7 7 7 9 10 9 9 10 12 13 10 8 7 5 4 6 6 6 7 8 8 8 8 8 9 9 8 9 8 8 9 9 8 9 8 9 8 8 8 8 9 10
6 6 6 6 6 7 8 8 8 9 10 11 10 7 5 4 3 4 5 6 6 6 8 7 7 9 9 9 9 8 8 9 9 9 9 9 9 9 9 8 8 8 9 9
5 7 7 7 6 6 6 7 8 8 9 9 10 6 4 3 3 3 3 6 6 6 6 6 6 6 7 7 7 9 9 9 10 9 9 9 9 9 9 9 9 9 8 9
4 4 6 7 7 7 6 5 7 7 6 5 6 4 4 3 2 2 2 5 5 5 5 6 6 6 7 7 7 7 8 8 9 9 9 9 10 10 10 9 9 9 9 9
3 4 5 6 7 7 4 5 5 5 4 4 3 2 2 2 2 1 4 4 5 5 5 5 5 5 6 6 6 7 7 7 8 8 9 9 10 10 10 10 10 10 9 10
3 2 4 5 6 8 5 3 3 4 4 3 2 1 1 2 4 2 3 4 4 4 4 5 5 5 5 5 6 6 6 7 7 7 8 8 9 9 9 10 10 10 10 10
2 2 2 4 5 6 2 3 3 3 3 1 1 0 1 2 3 2 3 3 3 4 4 4 4 5 6 6 6 6 6 6 7 7 7 7 8 8 8 9 9 9 10 9
3 2 2 3 5 4 1 2 2 2 0 1 0 1 2 2 2 2 2 3 3 3 4 4 4 4 5 5 6 6 6 6 6 6 6 7 8 8 8 9 9 9 9 9
0 1 0 2 2 1 -0 -0 -0 -0 -0 1 0 1 1 1 2 1 2 2 3 3 3 4 4 4 4 4 5 5 6 7 7 7 7 6 7 8 8 8 9 8 8 9
-0 -1 -1 -1 0 -1 -1 -1 0 0 -1 0 0 0 1 0 1 1 1 1 2 2 3 3 3 3 3 4 4 4 5 5 6 7 7 7 7 6 7 8 7 8 8 8
-0 -1 -1 -1 -1 -1 -1 -1 0 0 0 0 -0 -0 -0 -0 -0 0 0 1 1 2 2 2 2 3 3 3 3 4 4 4 5 6 6 7 7 7 7 7 7 8 8 8
0 -0 -1 -1 -1 -1 -1 -2 -1 -0 0 -0 -1 -1 -1 -1 -1 -0 -1 -0 0 0 1 1 2 2 2 2 3 3 3 4 4 4 5 6 7 7 7 7 7 7 8 7

GFSCGP_700_temp_078.txt.gz
Temp
9 10 11 12 13 15 16 17 17 16 16 16 14 13 12 11 10 11 10 9 10 9 9 8 9 8 8 9 10 10 10 10 10 10 10 8 9 8 8 9 9 9 8 9
11 11 13 13 14 14 16 17 18 14 15 15 14 13 12 11 11 10 10 10 10 9 9 9 9 8 8 9 9 9 10 10 10 10 10 8 8 8 9 8 8 10 9 9
12 13 13 14 14 15 16 17 18 16 14 14 16 13 12 11 11 11 11 11 11 11 9 9 8 9 9 9 10 10 10 10 10 10 10 9 9 8 9 9 9 9 9 9
12 13 13 13 14 15 16 16 17 15 16 17 17 17 15 13 12 11 12 11 11 10 10 9 9 9 8 8 9 9 10 10 10 10 10 10 9 8 8 9 8 9 9 9
12 13 13 13 14 15 15 16 17 16 16 17 17 17 16 14 11 11 11 12 11 11 11 9 9 9 9 9 9 10 10 10 10 10 10 10 8 9 9 8 8 8 9 10
13 13 13 13 14 14 15 16 16 16 16 17 18 18 14 13 12 10 12 11 10 10 10 9 9 9 9 9 9 10 10 10 10 10 10 10 9 9 8 9 9 9 9 10
12 13 13 13 13 13 14 15 16 16 17 18 18 18 15 12 13 10 11 10 11 11 10 9 9 9 9 8 8 9 10 10 10 10 10 10 10 9 9 9 8 9 8 10
12 12 12 12 13 14 14 15 16 15 17 18 18 18 13 12 11 11 12 11 10 10 10 11 10 9 9 8 8 9 10 10 10 10 10 10 10 9 9 9 8 9 8 8
11 13 13 13 13 14 14 14 16 17 18 18 17 14 12 11 11 11 11 12 11 11 10 9 9 10 9 9 9 8 9 9 9 10 9 10 10 10 9 8 7 9 9 9
10 11 13 13 13 13 13 14 15 16 16 16 16 14 13 11 9 11 12 12 12 12 11 10 10 10 9 10 8 8 9 9 9 9 10 10 10 10 10 10 11 9 9 9
9 11 11 12 12 13 13 12 13 15 16 18 15 12 13 10 8 11 12 13 13 12 12 10 10 10 10 9 9 9 8 9 8 8 9 10 10 10 10 10 10 9 9 10
9 10 10 12 12 12 13 13 13 14 15 16 10 8 9 9 12 12 12 12 12 12 12 11 10 10 9 10 9 9 9 8 9 8 9 9 9 10 10 10 10 10 9 9
8 10 11 12 12 11 12 12 13 14 15 16 12 10 7 10 11 11 11 11 12 12 12 11 10 9 9 10 9 8 9 9 8 7 8 8 8 9 9 9 9 10 9 10
7 8 9 7 9 11 11 12 13 13 14 15 13 8 6 8 9 9 10 9 11 12 11 11 10 10 10 9 8 8 8 8 9 9 9 8 8 9 9 9 9 9 9 9
7 8 9 9 9 9 12 12 12 12 13 12 9 9 6 6 7 7 8 8 9 11 11 10 10 10 10 9 8 9 8 8 8 9 9 10 10 8 8 9 9 9 9 9
7 8 7 7 9 8 9 12 11 11 12 12 9 9 6 5 6 6 6 7 8 8 9 9 9 9 9 9 9 9 8 9 8 9 9 10 8 9 9 9 9 9 9 9
6 7 7 7 8 8 8 9 9 10 10 8 7 6 5 5 4 3 4 6 8 9 9 9 9 9 9 9 9 8 9 9 9 8 8 9 8 10 9 9 9 9 9 9
6 5 6 7 7 7 8 8 8 8 9 8 8 6 5 4 3 3 3 6 7 8 8 8 8 8 8 9 9 8 8 9 9 9 9 8 8 8 8 9 9 9 9 9
5 5 6 6 3 5 6 7 7 7 8 6 6 5 4 3 3 3 5 6 7 7 7 7 7 6 6 7 7 7 7 7 8 8 8 9 9 8 8 9 9 9 9 10
4 4 5 6 7 8 6 5 5 6 6 6 4 4 3 3 3 2 5 6 6 5 5 6 6 6 6 6 6 6 7 7 7 7 7 8 8 9 9 9 9 9 9 10
4 4 4 5 6 6 3 4 5 5 5 4 4 3 3 3 3 3 3 5 5 5 5 5 5 6 6 6 6 6 7 7 7 7 7 7 8 8 8 9 9 9 9 10
4 4 4 4 5 5 3 3 3 3 2 3 2 1 1 2 3 2 2 4 4 4 4 4 5 5 5 6 6 6 7 7 8 7 7 7 7 8 8 8 8 9 9 10
2 2 2 3 2 2 0 1 2 2 1 2 1 1 1 2 2 2 2 3 3 4 4 4 5 5 5 5 5 6 6 7 7 7 7 8 8 8 8 8 8 9 9 8
2 1 1 1 1 1 0 -0 0 2 -1 -0 -1 -0 1 0 1 1 1 2 2 3 3 3 3 4 4 4 4 4 5 5 6 7 7 7 8 8 8 8 8 9 9 9
1 1 1 0 0 0 0 -0 -1 -0 -1 -1 0 0 -0 -0 1 0 1 1 2 2 2 3 3 3 3 4 4 4 4 4 4 5 5 6 7 7 7 7 8 8 8 8
1 -0 0 -0 0 0 -0 -0 -1 -2 -1 -1 -2 -0 0 0 0 0 0 1 1 1 2 2 2 2 3 3 3 3 4 4 4 4 4 4 5 6 6 7 7 7 8 8

GFSCGP_700_temp_081.txt.gz
Temp
10 10 10 12 12 13 14 15 15 16 15 14 14 12 13 12 11 10 10 10 10 9 9 9 9 9 9 9 9 10 11 10 9 10 9 9 9 9 9 8 9 8 9 9
9 9 11 12 12 13 14 14 15 16 15 15 13 13 13 14 12 10 10 10 10 10 9 9 9 9 10 9 9 10 10 10 10 9 10 9 9 9 9 9 9 9 9 9
10 12 12 12 13 13 14 15 15 15 14 14 11 11 13 12 11 10 10 10 10 10 9 9 9 9 9 10 9 9 10 10 10 9 10 10 9 9 9 9 8 9 9 9
10 12 12 12 13 14 14 15 16 15 14 11 13 12 12 11 11 11 11 11 10 9 10 9 9 9 10 9 10 9 10 10 10 9 10 8 8 9 9 9 9 9 9 9
11 12 12 13 13 14 15 15 16 15 15 15 14 13 14 12 11 11 10 11 10 10 10 9 9 9 10 9 9 9 10 9 10 10 9 10 9 10 9 9 10 9 9 9
11 12 13 13 14 14 15 15 15 16 15 14 16 14 13 12 12 11 10 10 11 10 10 10 9 9 9 9 9 9 10 10 10 10 10 10 11 11 10 9 9 9 9 9
12 12 13 13 13 14 14 14 14 14 13 14 16 16 14 13 11 12 12 11 11 10 11 10 10 9 9 9 10 10 10 10 10 10 10 9 9 10 9 9 9 9 9 10
12 12 12 13 13 13 14 14 14 13 12 14 16 13 12 13 13 12 12 13 11 11 10 10 9 9 9 9 10 10 9 10 10 10 10 9 10 10 9 9 9 10 10 10
11 12 13 13 13 13 14 14 15 15 16 16 13 12 11 13 10 11 12 12 11 9 10 10 9 10 9 9 9 10 9 9 9 10 10 10 9 10 9 9 9 10 9 10
10 10 12 12 13 13 13 14 14 15 13 14 12 12 12 10 10 10 11 12 11 11 11 11 9 11 9 9 8 9 8 8 9 9 9 9 9 9 9 9 9 10 9 9
10 10 11 13 13 13 13 13 13 13 14 12 9 9 8 9 11 12 11 11 11 11 12 10 9 9 10 9 9 9 9 8 8 9 9 9 9 9 9 9 9 9 10 9
9 9 9 11 12 13 13 13 13 13 13 13 11 7 8 9 11 12 12 12 10 11 11 11 11 10 10 9 9 9 9 9 8 9 9 9 9 9 9 9 9 10 10 9
8 9 9 10 12 12 12 12 12 13 13 13 10 8 8 9 11 11 12 11 11 11 11 11 10 11 11 10 9 9 9 9 8 8 9 9 8 9 9 9 9 9 10 10
8 8 8 8 8 9 10 11 12 12 13 11 11 9 8 8 10 10 11 11 11 11 11 11 10 10 10 9 8 8 8 7 8 8 9 9 9 9 9 8 8 9 9 9
7 8 8 8 9 9 9 10 11 12 13 11 9 9 10 8 7 8 8 9 9 10 10 10 10 10 10 9 8 8 9 8 8 8 8 9 9 9 9 9 9 8 9 9
7 7 7 7 8 8 9 9 11 12 11 11 9 7 7 7 6 6 6 6 7 9 9 8 8 9 10 9 8 8 8 8 8 8 8 8 7 7 8 7 8 9 9 9
6 6 6 7 7 8 8 9 9 9 9 9 9 7 6 6 6 5 5 5 6 7 7 7 7 7 8 8 8 8 8 8 9 8 8 8 7 8 8 7 8 8 9 9
5 6 6 6 6 6 8 8 8 8 8 8 8 6 5 6 4 5 5 5 6 7 8 8 7 7 7 8 9 8 8 8 8 8 8 8 7 7 8 8 9 8 8 9
5 5 5 5 5 6 7 7 7 7 7 7 6 5 5 4 7 6 6 6 6 6 7 6 7 7 7 7 7 7 7 8 7 8 8 7 8 7 8 9 8 9 9 9
4 5 5 5 5 4 5 6 6 6 6 6 6 5 5 4 5 5 5 6 6 6 6 6 6 7 7 7 7 7 7 7 7 7 7 7 8 8 8 9 9 9 9 9
4 4 4 4 4 6 5 5 5 6 5 6 5 5 4 3 4 4 6 6 5 5 5 5 6 6 6 6 7 7 8 8 7 7 7 7 7 7 8 8 8 8 9 9
3 3 3 4 4 4 3 3 4 5 4 4 4 4 4 3 3 4 5 3 4 4 4 4 5 5 6 6 6 6 7 7 8 8 8 8 7 7 7 7 7 7 8 8
2 2 2 2 3 2 2 3 3 3 4 4 4 4 3 3 3 3 3 2 2 3 3 4 4 5 5 6 6 6 6 7 7 7 7 8 8 8 8 8 8 8 7 7
2 2 2 2 2 1 1 1 1 3 3 3 3 3 3 2 2 2 2 2 3 3 4 4 4 4 4 4 5 5 6 6 6 6 7 7 7 8 8 8 8 9 9 8
1 1 1 1 2 1 0 0 0 1 0 -1 0 1 1 1 1 2 1 1 2 2 3 3 3 3 3 3 4 4 4 5 5 5 6 6 6 7 7 7 8 8 8 9
1 1 1 0 1 0 0 0 0 0 1 -0 -0 0 1 -0 0 0 0 1 1 2 2 3 2 3 3 3 3 3 4 4 4 4 5 5 5 6 6 7 7 6 7 7

GFSCGP_700_temp_084.txt.gz
Temp
10 10 12 12 12 13 13 14 14 14 12 13 12 13 13 12 9 10 10 9 9 9 9 9 9 10 9 9 9 10 10 10 9 9 9 9 8 9 8 8 8 8 8 8
9 11 12 12 12 13 13 13 13 13 13 13 13 12 11 12 12 11 10 10 9 9 9 9 9 9 9 9 9 10 10 10 10 9 9 9 9 9 9 9 8 8 9 9
9 12 11 12 12 12 13 13 14 14 13 13 13 11 12 11 11 11 10 10 9 9 9 9 9 9 9 9 9 10 10 9 9 9 9 9 9 9 8 8 9 9 9 9
9 11 10 11 12 12 12 14 14 14 14 13 13 13 12 12 11 10 11 10 10 9 9 9 9 9 10 9 9 9 9 9 9 10 9 9 8 9 9 9 9 9 9 9
9 11 10 10 12 12 13 14 14 15 14 13 13 13 14 12 11 12 11 10 9 10 10 9 10 10 10 10 9 9 9 9 9 9 9 9 9 9 9 9 9 9 9 9
9 11 11 12 13 13 13 14 14 14 13 12 14 14 11 13 13 12 12 10 10 10 10 10 10 10 10 9 9 9 9 9 9 9 9 9 9 10 9 9 8 9 9 9
10 10 11 11 12 13 13 13 13 11 11 11 14 12 14 13 13 13 13 12 11 10 11 9 10 9 10 10 9 9 9 9 9 9 10 9 9 10 9 9 9 9 10 9
10 11 11 12 12 13 13 13 13 12 9 13 13 13 13 13 12 11 11 11 10 10 10 9 9 9 9 9 9 9 9 9 10 9 10 10 9 9 9 9 9 9 9 9
9 11 12 12 13 13 13 13 14 13 14 14 11 9 10 11 12 11 11 12 12 12 11 9 9 10 9 9 9 9 9 9 10 9 10 9 9 9 9 9 9 9 9 9
9 10 11 12 12 13 13 13 13 13 11 11 9 9 8 10 12 12 11 11 12 13 12 10 9 10 10 9 9 9 8 8 9 9 9 9 9 9 9 9 9 9 9 9
10 10 11 11 12 13 13 13 12 13 13 10 7 7 10 11 11 11 11 11 12 12 11 11 10 10 9 9 10 9 8 8 9 9 9 8 9 9 9 9 9 10 9 9
9 9 9 10 11 12 12 12 12 13 12 12 10 7 9 10 11 11 11 12 12 12 11 11 10 10 10 9 9 8 8 8 8 9 9 9 9 8 9 9 9 9 9 9
8 9 9 11 11 11 11 11 11 11 12 12 10 6 9 10 11 11 11 11 11 11 11 11 10 10 10 10 10 9 8 8 8 8 9 9 8 9 9 8 8 9 9 9
8 8 8 7 8 8 9 10 11 11 11 12 11 10 9 11 10 10 10 10 10 11 11 11 10 10 10 9 9 8 8 7 8 8 8 8 8 8 9 8 8 9 9 9
7 7 8 8 7 8 8 9 10 11 11 11 11 11 11 10 9 9 9 9 10 10 11 11 10 9 9 9 9 8 8 9 8 7 8 7 8 8 8 8 8 9 9 9
7 6 7 7 7 7 8 8 9 11 11 10 10 10 9 8 7 7 7 8 9 10 11 10 10 10 9 9 9 9 8 8 8 8 8 7 7 7 7 7 8 8 8 8
6 6 6 6 6 6 7 7 8 9 10 11 11 10 10 8 7 6 5 5 5 7 9 7 7 8 7 7 8 7 8 7 7 8 8 6 7 7 7 7 7 7 8 8
5 5 6 6 6 5 6 6 7 8 8 8 8 9 8 7 7 6 5 5 6 7 7 6 6 7 6 7 7 7 7 7 7 8 8 8 7 7 7 7 7 7 7 8
5 5 5 5 5 6 6 7 6 6 6 7 7 6 6 7 7 6 6 5 5 5 6 6 7 6 6 7 7 7 7 7 7 7 7 8 7 7 7 7 8 8 8 8
4 4 5 5 4 4 6 6 6 7 6 5 6 6 6 6 7 7 7 7 6 6 6 6 6 5 5 6 6 7 7 6 7 7 7 7 7 7 7 7 7 8 8 8
4 4 4 4 4 4 5 5 5 5 6 5 5 5 5 5 5 6 6 6 6 6 6 6 6 6 6 6 6 6 7 6 6 6 6 6 6 7 7 7 7 7 7 8
3 3 3 3 4 4 3 4 5 5 5 5 5 5 4 4 4 5 6 6 7 6 5 5 5 5 5 5 5 6 6 7 7 7 7 7 6 6 7 7 7 6 7 7
2 3 3 3 3 2 3 3 4 4 4 4 3 3 3 4 4 4 4 4 5 5 5 4 4 4 4 4 5 5 6 6 6 7 7 7 7 7 7 7 7 7 7 7
2 2 2 2 2 2 1 2 3 3 3 3 3 3 4 3 3 3 3 3 3 3 3 3 3 3 4 4 4 5 5 5 6 6 6 7 7 7 8 8 8 8 8 8
2 2 1 2 1 1 2 2 2 2 3 3 3 3 3 3 3 3 3 2 2 3 3 3 3 3 3 3 3 4 4 4 5 5 5 6 6 6 7 7 7 8 8 8
1 1 1 1 1 1 1 1 1 0 1 1 1 1 1 2 2 1 2 2 2 2 2 2 2 2 2 2 3 3 3 4 4 4 5 5 5 5 6 6 6 6 7 7

GFSCGP_700_temp_087.txt.gz
Temp
9 9 11 11 11 12 12 12 12 12 12 10 11 11 12 10 10 9 9 9 9 9 9 9 9 9 9 9 9 9 10 10 10 10 9 9 8 8 8 8 9 8 8 9
9 10 11 11 11 11 12 12 12 12 11 10 11 12 11 11 11 10 9 9 9 9 9 9 9 9 9 9 9 9 10 9 10 10 8 9 9 9 8 8 8 8 8 8
9 10 11 11 11 11 12 12 13 12 12 11 11 11 12 11 10 10 9 9 9 10 10 9 9 10 9 9 9 9 9 9 9 10 9 9 9 9 8 9 9 8 8 9
9 10 10 11 11 12 12 13 13 13 12 12 12 12 12 12 11 10 10 9 9 9 9 9 9 9 9 9 8 9 9 9 9 10 10 9 8 9 9 9 9 9 9 9
9 10 10 10 11 11 13 13 13 13 12 13 12 12 13 12 11 11 11 10 10 9 9 9 9 9 9 9 9 9 9 9 9 10 9 10 9 8 9 9 9 9 9 9
9 9 9 10 11 11 12 13 12 13 12 11 13 13 13 14 14 12 11 11 11 10 10 9 9 9 9 9 9 8 9 9 9 9 10 9 9 9 9 9 9 9 9 9
9 9 10 11 11 11 12 12 12 10 9 9 13 12 14 13 13 14 13 12 10 10 10 9 9 9 9 9 9 8 8 9 9 9 9 10 9 9 9 9 8 8 8 9
9 10 10 11 11 12 12 12 12 9 7 11 13 12 13 13 13 12 11 11 11 10 10 9 9 9 10 9 9 9 8 8 8 9 10 9 10 10 9 8 8 8 8 9
9 10 11 11 11 12 12 12 13 13 12 12 10 11 13 14 13 12 11 11 11 10 9 9 9 10 10 10 9 9 9 8 8 8 10 9 10 9 9 8 8 9 9 8
9 9 10 11 12 12 12 13 12 13 10 10 8 9 12 13 13 12 12 11 11 11 10 10 10 9 10 10 9 9 9 8 8 8 9 9 9 9 9 9 9 9 8 8
9 9 10 11 11 12 12 12 12 12 12 7 6 9 12 13 12 12 12 11 11 11 11 11 10 10 10 9 9 8 8 8 8 8 9 9 9 9 8 9 9 8 8 8
9 9 10 10 11 11 12 12 12 12 11 11 10 9 12 12 12 12 12 12 12 11 11 10 10 9 9 9 8 9 9 8 8 8 9 9 9 9 8 8 9 9 9 9
9 9 10 10 10 10 9 10 11 11 12 12 10 11 11 12 12 11 11 11 11 11 10 10 10 10 10 9 10 9 8 8 9 8 8 8 9 9 8 8 8 9 9 9
8 8 9 8 7 8 8 9 10 11 11 11 11 13 12 12 12 11 10 11 11 11 11 11 11 10 10 10 9 9 8 8 8 7 8 7 8 8 8 8 8 9 9 9
8 7 7 8 7 7 8 8 9 10 11 11 11 12 12 12 12 11 11 11 11 11 11 11 11 11 10 10 10 9 8 8 7 7 8 7 7 8 8 8 8 8 9 9
7 7 7 7 7 7 7 8 8 10 11 11 11 11 11 11 10 10 10 10 9 10 11 11 11 11 10 9 9 9 8 8 8 8 8 8 7 7 7 7 8 7 7 8
6 6 7 6 7 7 6 7 7 7 8 9 11 11 11 11 10 9 8 9 9 9 10 10 11 11 10 10 9 9 8 7 7 7 7 7 7 7 7 7 7 7 7 7
5 6 6 6 6 3 6 6 6 7 7 7 8 9 9 8 8 7 7 5 7 7 8 7 7 9 9 9 9 8 8 7 7 8 8 7 8 8 7 7 7 7 7 7
5 5 5 6 6 5 5 5 6 8 7 7 7 8 8 8 7 7 6 5 5 6 6 6 5 6 6 6 6 6 6 7 7 7 7 7 7 7 7 7 7 7 7 7
4 4 5 5 5 4 6 6 6 7 6 7 6 7 7 7 7 7 7 5 5 5 5 6 6 6 6 6 6 6 6 6 7 7 7 7 7 6 7 7 6 7 6 6
4 4 4 4 4 4 5 5 6 6 6 7 6 6 7 7 7 7 6 6 6 6 5 6 6 5 6 6 6 6 6 6 6 6 6 6 6 6 6 6 7 7 7 6
3 3 3 3 3 3 4 4 5 5 5 6 6 5 5 5 5 6 6 6 6 6 6 5 5 5 5 5 5 5 6 6 6 6 6 6 6 6 6 6 7 7 7 7
2 3 3 3 3 3 3 3 4 4 5 5 5 4 4 4 4 4 5 5 5 5 5 4 4 4 4 4 5 5 5 6 6 6 6 6 6 7 7 7 7 7 7 7
2 2 2 2 2 2 2 3 3 3 3 3 3 3 3 3 3 3 3 4 4 4 4 4 3 3 3 3 4 4 5 5 6 6 6 6 7 6 6 6 7 7 7 7
2 2 2 2 2 2 2 2 2 2 3 3 3 2 2 1 1 2 2 2 2 2 2 2 2 3 3 4 4 4 4 5 5 5 5 6 6 6 6 6 6 6 6 7
2 2 2 1 1 1 1 1 1 1 1 2 2 2 2 2 2 2 1 1 1 1 1 1 2 2 3 3 3 3 3 4 4 4 4 4 4 5 5 5 5 6 5 6

GFSCGP_700_temp_090.txt.gz
Temp
8 9 10 11 11 11 11 11 11 11 12 11 11 10 10 10 10 10 10 10 10 11 10 9 8 8 8 8 8 9 10 10 9 9 9 8 9 9 9 9 8 8 8 8
8 9 10 10 10 11 11 12 12 12 11 10 9 10 9 11 11 9 10 10 10 10 10 9 9 9 9 8 8 9 9 10 9 9 9 9 9 9 8 9 8 8 8 8
8 9 10 9 10 11 11 12 11 12 11 11 10 10 9 10 10 9 9 10 10 10 10 9 9 10 9 9 9 8 9 10 9 10 10 9 9 8 8 8 8 9 9 8
8 9 9 10 10 11 11 12 12 12 11 11 10 10 11 10 11 10 9 9 10 10 9 9 9 10 10 9 8 8 9 9 9 10 10 9 9 9 8 9 9 9 9 9
8 9 9 9 10 10 11 12 12 12 12 12 11 11 13 11 11 11 11 10 10 10 10 9 9 9 9 9 9 8 8 9 9 9 9 9 9 9 9 9 9 9 9 9
8 9 9 9 10 11 11 11 12 12 11 10 12 12 13 13 13 12 11 10 10 10 10 10 9 9 9 9 8 8 8 9 9 9 9 9 9 9 9 9 9 8 8 8
8 8 9 9 10 10 10 11 10 8 8 8 12 11 13 13 13 12 11 11 10 10 10 9 9 9 9 8 8 9 9 8 9 9 9 9 9 9 8 8 9 8 8 8
8 9 9 9 10 10 11 11 11 8 6 10 11 11 13 13 14 13 12 11 10 11 11 10 9 9 8 9 9 8 9 8 8 9 9 9 9 9 9 8 8 8 8 9
8 9 10 10 10 11 11 11 12 12 10 10 9 12 13 13 13 13 13 12 11 11 11 10 9 9 8 8 9 8 8 8 8 8 8 9 9 9 9 9 8 8 8 8
8 9 10 10 10 11 11 12 11 12 8 9 8 11 14 14 14 14 13 12 11 11 11 10 10 9 9 9 9 8 8 8 8 8 8 8 9 9 9 9 8 8 8 8
8 9 10 10 11 11 11 12 12 12 11 6 5 11 14 14 14 13 13 12 12 12 11 11 10 10 9 10 9 9 9 8 8 8 8 9 8 8 8 9 8 8 8 8
9 9 9 9 9 11 11 12 12 12 10 11 10 12 13 13 14 13 12 12 12 11 11 11 10 10 10 10 9 8 8 8 8 7 8 8 9 9 9 9 9 9 8 8
9 9 9 8 9 9 10 10 11 12 12 11 11 12 13 13 13 13 12 11 11 11 11 10 10 11 10 10 8 9 8 8 8 8 8 8 8 8 9 9 9 9 9 8
9 9 9 8 7 8 8 9 10 11 11 12 12 12 12 13 13 12 12 11 11 11 11 11 11 11 10 10 9 9 8 8 8 8 8 7 7 8 8 8 8 8 9 9
8 7 8 7 7 8 7 8 9 10 10 11 12 12 12 13 12 12 11 11 11 11 12 11 11 11 10 10 9 9 9 9 8 8 7 7 7 8 8 8 7 7 8 8
8 7 7 7 8 8 8 7 8 9 10 10 11 12 12 12 12 12 12 11 11 11 11 11 11 11 10 10 10 9 8 8 8 8 7 8 8 8 8 7 7 7 7 8
7 7 6 7 7 7 8 7 7 7 7 9 10 10 11 11 11 11 10 10 9 10 10 10 11 11 10 10 10 10 9 9 8 8 8 8 7 7 7 7 7 7 7 7
6 6 6 6 6 4 7 7 7 8 7 7 8 9 10 9 9 9 9 9 9 9 9 10 9 10 11 10 8 8 8 8 7 7 7 7 7 7 7 7 7 7 8 8
5 6 6 6 6 5 7 6 6 6 8 8 8 8 9 8 7 8 8 8 7 7 7 6 6 6 7 7 6 7 7 7 7 7 7 7 7 7 8 7 6 7 7 7
4 5 5 5 5 4 6 6 6 6 7 6 7 8 8 8 8 7 7 7 6 5 5 5 5 5 5 5 5 6 6 6 6 6 7 7 7 7 7 7 6 7 7 7
4 4 5 5 5 5 5 5 6 5 6 6 6 7 6 7 7 7 7 7 6 5 5 5 5 5 5 5 5 5 5 5 6 6 6 6 6 6 6 6 6 6 6 7
3 3 3 4 4 4 5 5 5 5 5 5 6 5 5 6 6 6 6 6 6 6 5 5 5 5 5 5 5 5 5 5 5 5 6 6 6 6 6 6 6 6 6 7
3 3 3 3 3 3 4 4 4 4 4 5 5 5 5 5 5 5 5 5 5 5 5 4 4 4 4 4 4 4 5 5 5 6 6 6 6 7 6 6 6 6 6 6
3 3 2 2 3 2 2 3 3 3 3 4 4 5 4 4 4 4 4 4 3 3 4 4 3 3 3 3 4 4 4 4 5 5 5 6 6 6 6 6 7 7 7 7
2 2 2 2 2 2 2 2 2 2 2 3 3 3 3 3 3 3 2 2 2 3 3 3 3 3 3 3 3 4 4 4 5 5 5 6 6 6 6 6 6 6 6 6
2 2 2 2 2 2 2 1 1 1 2 2 2 2 2 2 1 1 1 1 -0 1 1 2 2 2 2 2 3 3 4 4 4 4 4 5 5 5 5 5 5 5 6 6

GFSCGP_700_temp_093.txt.gz
Temp
8 8 8 10 10 11 11 11 11 11 11 10 10 9 9 9 9 9 10 10 10 9 9 9 8 8 8 8 8 9 9 9 9 8 8 8 8 8 8 8 8 8 8 8
9 8 9 9 10 11 11 11 11 11 10 11 10 9 9 9 10 10 10 10 10 9 9 9 9 8 8 8 8 9 9 9 9 9 9 9 9 8 8 8 8 8 8 8
8 8 9 9 10 10 11 11 11 11 10 10 10 9 9 9 9 9 10 10 10 10 9 9 9 9 8 9 8 8 9 9 9 9 9 9 8 9 8 8 8 8 8 8
8 8 9 9 9 10 11 11 12 12 11 10 9 8 9 9 10 10 10 10 10 10 10 9 9 9 9 8 8 8 9 9 9 9 9 8 8 9 8 8 9 8 8 8
8 8 9 8 9 10 11 11 12 11 11 10 9 9 11 11 10 12 10 11 10 10 10 10 9 10 9 9 8 8 8 9 9 9 9 9 9 8 8 8 8 9 9 9
8 8 9 9 9 9 10 11 11 11 10 12 11 11 11 12 14 12 10 10 11 10 10 10 9 9 9 9 9 8 8 8 9 9 9 9 9 8 8 8 8 9 8 9
8 8 8 9 9 9 10 11 10 12 12 13 12 10 13 12 13 12 11 11 11 11 10 10 9 9 9 9 8 8 8 8 8 9 9 9 9 8 8 8 8 8 8 9
8 8 8 9 9 9 10 11 12 12 12 13 11 12 12 13 13 13 13 11 11 10 10 10 9 9 9 9 8 8 8 8 8 8 8 8 9 8 8 8 8 8 8 8
8 8 9 9 9 10 10 10 11 11 11 13 11 12 13 14 14 14 14 12 12 11 11 10 10 9 9 9 9 8 8 8 8 8 8 7 8 8 8 8 8 8 8 8
8 9 9 9 10 10 10 11 11 12 12 13 11 10 13 14 14 14 14 13 13 12 11 11 10 10 9 9 9 8 8 8 8 7 7 8 8 8 8 8 8 8 8 8
8 8 9 9 10 10 10 10 11 11 12 14 14 13 14 14 14 14 14 13 13 12 12 11 11 10 9 9 9 8 8 8 8 7 8 7 8 8 8 8 8 8 8 8
8 8 8 8 10 11 11 11 11 12 10 11 13 13 14 14 14 14 13 13 12 12 12 12 11 10 10 10 9 8 8 8 8 8 7 7 8 8 8 8 8 8 8 8
8 8 8 8 8 9 10 11 11 12 12 12 13 13 13 14 14 14 14 12 12 12 11 11 11 11 10 10 9 8 8 8 8 8 8 7 7 8 8 8 8 8 8 8
8 9 9 10 9 8 9 10 11 11 12 11 12 13 13 14 13 13 13 12 12 11 11 11 11 11 10 10 9 9 9 9 8 8 7 7 8 7 7 8 9 8 8 8
8 8 8 8 8 8 8 9 10 11 11 11 12 12 12 12 12 12 12 12 12 11 11 11 11 11 10 10 10 9 9 9 8 8 7 8 7 7 7 8 8 8 8 8
8 7 7 7 7 7 8 9 9 10 10 11 11 12 12 12 13 12 12 11 11 11 11 11 11 11 11 10 10 9 9 8 9 8 8 8 7 7 6 7 8 8 8 8
7 6 5 6 7 7 8 8 8 8 9 10 10 11 11 12 12 12 11 11 11 11 10 11 11 11 10 10 10 10 9 9 8 8 8 8 8 8 7 7 8 8 8 7
6 6 6 6 7 8 6 7 8 8 8 9 9 9 10 10 10 10 10 10 9 9 9 10 10 10 10 9 8 9 9 8 9 8 8 8 8 8 7 8 7 6 6 6
6 6 6 5 6 6 6 7 7 7 7 8 8 9 10 10 10 10 10 9 8 8 8 8 9 9 10 9 8 7 7 7 8 8 7 7 7 8 7 8 7 6 6 7
5 5 5 5 6 7 6 7 7 6 6 6 7 8 8 8 8 8 8 8 8 8 8 6 5 5 5 6 5 6 7 6 7 7 6 7 7 7 7 8 8 8 7 7
5 5 5 5 5 5 5 6 6 5 6 6 6 7 7 7 7 7 7 7 7 5 5 4 4 5 5 5 4 5 6 6 6 6 6 6 6 7 7 7 7 7 7 8
3 4 4 4 4 4 5 5 5 5 5 5 6 6 6 6 6 6 6 6 6 5 4 4 4 4 4 4 4 4 4 5 5 5 6 6 6 6 5 6 6 7 7 6
3 3 4 4 4 4 4 4 4 4 4 4 5 5 6 5 5 5 5 5 5 4 4 4 5 4 4 4 4 4 4 4 5 5 5 5 5 6 6 5 5 6 6 5
3 3 3 3 3 3 3 3 3 3 3 4 4 4 5 5 4 4 4 4 4 4 4 4 4 4 4 4 4 4 4 4 5 5 5 5 5 5 6 6 6 6 6 6
3 3 3 3 3 3 3 3 3 3 3 3 3 3 4 4 4 4 3 2 2 3 2 2 2 3 3 3 3 4 4 4 5 5 5 5 5 5 6 6 6 6 6 6
3 3 3 3 2 2 2 2 2 2 2 2 3 3 3 3 2 3 2 2 1 1 2 2 2 2 2 2 3 3 3 4 4 4 4 5 5 5 5 5 5 6 6 6

GFSCGP_700_temp_096.txt.gz
Temp
8 9 10 11 12 12 11 11 13 12 10 9 9 9 9 8 8 8 9 8 8 8 8 9 8 8 8 9 9 9 9 8 9 8 8 8 8 8 8 8 9 8 8 8
8 9 11 11 11 12 12 12 13 12 10 9 9 9 9 9 9 8 9 9 9 8 8 8 8 8 8 8 9 9 9 9 8 8 8 8 8 8 8 8 8 8 8 9
10 11 10 9 10 12 13 14 13 12 11 10 9 9 9 9 8 9 8 9 9 8 8 8 9 8 8 8 8 9 9 9 9 9 8 8 8 8 8 8 8 8 9 8
11 10 9 10 11 12 13 12 12 11 11 10 10 9 10 9 8 8 8 9 9 9 9 8 9 9 9 8 8 9 9 9 9 9 8 8 8 8 8 8 8 8 9 9
11 10 9 10 11 10 13 12 12 12 12 11 10 11 9 10 10 9 9 9 9 9 9 9 9 9 9 9 8 9 9 9 9 9 9 8 8 9 8 8 9 8 9 9
10 10 10 11 11 10 11 12 12 13 13 14 12 12 10 10 11 11 10 9 9 10 9 9 9 9 9 9 9 8 8 9 9 9 9 9 8 8 8 9 8 9 9 9
9 9 10 10 10 10 10 12 13 14 15 17 14 13 13 11 11 12 12 11 9 9 9 9 9 9 9 9 9 9 8 8 9 9 9 9 9 8 8 8 8 8 8 8
10 10 10 10 11 11 10 12 14 13 16 16 13 14 14 12 12 13 11 12 11 11 9 9 10 9 9 9 9 8 8 8 8 9 9 9 9 9 8 8 8 8 8 8
11 11 10 10 10 11 11 11 12 14 14 16 15 14 13 14 14 13 13 13 12 12 10 10 10 10 9 9 9 8 8 8 7 8 8 8 8 9 8 8 8 8 8 8
10 11 10 10 10 10 12 12 12 13 15 16 16 15 15 14 14 14 14 13 12 12 12 11 10 10 9 9 9 9 9 8 8 7 8 8 7 8 8 8 8 9 8 8
9 10 10 10 10 11 10 12 13 14 14 17 17 16 14 14 14 14 14 14 13 13 12 12 11 11 10 9 9 9 8 8 8 8 7 8 8 8 8 8 8 9 9 8
8 10 11 10 10 10 12 12 12 13 14 15 15 15 14 14 14 14 14 13 13 13 12 12 11 11 10 10 9 9 8 8 8 7 8 8 8 7 8 8 9 8 8 8
8 9 11 10 10 10 11 12 13 13 14 14 15 16 14 14 14 14 14 13 13 12 12 11 11 11 10 10 10 9 8 8 8 8 8 7 8 8 8 8 8 9 8 8
8 9 10 12 12 11 11 10 11 12 14 15 15 14 14 13 14 13 13 13 12 12 12 11 11 11 11 10 10 10 8 9 9 8 8 7 7 7 7 7 8 9 8 8
7 9 10 10 10 10 11 11 11 12 13 14 15 14 12 13 13 13 13 12 12 12 12 12 12 11 11 10 10 10 9 8 8 8 8 8 8 8 8 8 7 8 8 8
6 7 8 8 9 10 10 10 11 11 11 12 12 12 12 13 13 12 12 12 12 12 12 12 11 11 11 11 10 10 9 9 9 9 9 9 8 8 8 7 7 7 8 8
6 7 7 9 8 9 10 10 10 9 9 11 12 11 12 12 13 12 12 12 12 11 11 11 11 11 11 11 10 10 9 9 8 9 9 9 9 8 8 7 7 7 7 8
6 6 7 8 8 9 7 7 8 8 8 8 9 10 11 11 11 12 12 11 11 11 11 11 11 11 11 11 10 10 10 9 9 8 8 8 8 8 8 7 7 6 7 7
6 7 7 8 8 8 7 7 7 8 9 8 9 9 10 10 10 10 10 10 10 10 10 9 10 10 10 10 10 10 10 8 8 8 8 8 8 8 8 7 7 7 7 7
5 6 7 7 9 10 7 7 7 7 8 7 8 8 9 9 8 7 8 8 8 9 9 9 9 9 9 8 8 7 7 7 7 7 7 7 7 8 8 7 7 7 7 6
6 6 7 7 8 8 5 6 7 7 6 7 7 7 7 5 7 8 7 7 7 8 8 8 7 6 5 5 6 6 5 7 6 6 7 7 7 7 7 7 8 8 7 7
5 5 6 6 7 7 5 6 6 6 5 6 6 6 6 7 6 6 7 6 6 6 7 6 4 5 5 4 5 5 6 6 6 6 7 7 6 6 6 7 7 6 7 7
3 4 4 5 5 5 5 5 5 5 5 5 5 6 6 6 6 6 6 6 5 5 4 4 5 4 5 4 4 4 5 5 5 5 4 4 5 5 6 6 5 7 6 6
3 4 3 4 3 4 4 4 4 4 4 5 5 5 5 5 5 5 5 5 5 5 4 4 4 4 4 4 4 4 4 4 4 4 5 5 5 5 5 5 6 6 5 6
3 4 3 3 3 4 3 3 3 3 4 4 4 4 4 5 5 5 5 5 4 4 4 4 4 3 3 3 4 4 4 4 4 4 5 5 5 5 5 5 6 6 6 6
4 3 3 3 3 2 2 2 3 3 2 3 3 3 3 3 4 4 4 4 3 3 3 3 3 3 3 3 3 3 3 4 4 4 4 4 5 5 5 5 6 6 6 6

GFSCGP_700_temp_099.txt.gz
Temp
10 11 12 13 14 13 11 11 10 10 10 10 9 10 9 9 9 9 10 10 10 9 9 8 8 8 7 6 9 8 9 9 9 9 9 7 7 7 7 7 8 9 9 9
11 12 13 14 14 14 13 10 8 9 11 11 10 9 9 8 9 9 10 10 10 10 9 9 8 8 7 6 7 9 8 9 9 9 8 8 8 7 7 7 9 9 9 9
12 13 13 13 13 13 15 12 12 8 9 10 9 8 8 9 8 9 9 10 10 10 10 9 8 9 8 7 9 10 10 9 9 8 9 8 8 8 8 8 9 9 9 9
12 14 13 12 13 13 15 13 10 9 11 9 9 9 9 9 8 9 9 10 10 9 9 9 9 9 9 8 7 10 10 10 9 9 9 9 8 8 8 9 9 8 9 9
12 13 13 12 13 13 13 12 13 10 11 11 9 11 9 9 9 8 10 9 9 10 10 9 10 9 9 8 8 9 10 10 10 10 9 8 8 8 8 9 8 8 9 9
13 13 12 13 13 13 13 13 14 14 13 11 13 14 11 9 10 9 10 9 10 9 10 10 10 9 9 9 8 8 9 9 9 9 9 9 9 9 9 9 8 8 8 9
12 12 12 12 13 13 13 14 15 16 10 17 14 15 13 11 10 9 10 10 9 9 10 9 10 10 9 9 8 8 9 9 9 9 9 9 9 9 9 8 8 8 9 9
12 13 12 12 13 13 13 15 16 16 16 17 13 15 13 12 12 12 11 11 10 10 10 10 10 10 9 9 8 9 9 9 9 9 9 9 9 9 8 9 8 9 9 9
13 13 13 12 13 13 13 13 15 15 16 13 14 14 12 13 12 11 12 11 11 11 11 10 10 10 9 9 9 9 9 9 9 9 9 9 9 9 9 9 8 9 8 8
12 13 13 12 12 13 14 14 15 16 16 14 15 15 15 13 14 12 11 11 10 11 11 10 10 10 9 9 9 9 8 8 9 9 9 9 9 9 9 9 8 9 9 9
11 12 13 12 12 13 13 14 14 16 16 18 16 16 14 14 14 14 12 12 11 10 10 10 10 10 10 10 9 9 9 8 8 9 8 8 8 8 8 9 9 9 9 9
10 12 12 13 13 13 14 14 14 15 16 17 17 13 12 13 12 15 14 13 12 10 10 10 9 10 11 10 10 9 9 8 8 8 8 8 8 8 8 9 9 9 9 9
10 11 13 13 13 13 13 14 14 15 16 17 18 14 13 11 14 14 14 14 12 12 12 12 11 11 11 11 11 10 9 9 9 8 8 8 8 8 7 8 8 9 9 9
8 10 12 13 13 13 13 13 14 15 16 16 16 12 12 11 13 14 14 14 13 13 12 11 11 11 11 11 10 11 10 10 10 9 8 8 8 7 8 7 7 7 8 9
8 10 11 12 11 13 13 13 14 14 15 16 17 16 13 12 14 13 14 14 13 13 12 12 11 11 11 11 10 10 10 10 9 9 8 9 8 8 8 8 7 7 7 8
8 8 9 12 10 13 13 13 13 13 14 15 14 13 11 10 13 13 13 13 12 12 12 12 11 11 11 11 10 10 9 9 9 9 9 8 8 8 8 8 8 7 7 7
6 6 8 9 12 11 12 12 13 13 14 14 14 11 11 10 11 13 13 12 12 12 12 12 12 12 11 11 10 10 9 9 9 9 9 9 9 8 8 8 8 7 7 6
6 4 6 8 8 12 9 10 11 12 11 12 11 10 10 10 12 12 12 12 13 12 12 12 12 11 11 11 11 10 10 9 9 9 9 9 9 9 8 8 7 6 6 6
6 7 7 7 5 7 9 9 10 11 10 9 10 9 9 11 12 12 10 9 11 12 11 11 11 11 11 11 11 10 10 10 9 9 9 8 8 8 8 8 8 7 6 6
8 7 7 9 7 10 7 7 8 9 10 8 8 8 8 10 9 8 9 9 9 10 10 10 10 11 10 10 10 10 9 9 9 9 8 9 8 8 8 7 7 7 7 7
7 7 8 9 9 4 5 7 8 9 7 7 8 7 7 7 7 7 8 8 9 9 10 9 9 9 9 9 9 9 8 7 7 7 8 8 7 7 7 7 8 8 7 7
7 7 8 8 5 8 6 6 7 5 5 6 6 6 6 6 7 7 7 8 8 8 8 8 8 9 8 8 7 7 6 6 7 7 6 7 6 7 7 7 7 7 7 7
6 6 6 7 6 5 6 6 6 5 4 5 5 5 5 5 6 7 7 7 7 7 7 7 7 7 6 5 5 6 6 6 6 5 6 6 6 6 7 6 6 6 6 6
5 5 5 5 5 5 4 4 4 4 4 4 5 4 4 4 6 6 6 6 6 6 6 6 5 5 4 5 5 4 5 5 5 5 5 5 5 5 5 5 5 6 6 6
6 4 5 5 5 4 3 3 3 3 4 4 5 3 3 3 4 4 5 5 5 5 5 5 4 5 4 4 4 4 4 4 5 5 5 5 5 5 5 5 5 6 6 6
5 5 5 6 5 4 4 3 2 2 2 2 3 4 4 4 2 3 2 4 4 4 4 4 4 4 4 4 4 4 4 4 4 4 4 4 5 5 5 5 5 6 6 6

GFSCGP_700_temp_102.txt.gz
Temp
10 11 12 13 14 14 13 10 10 10 10 10 11 10 10 10 11 11 10 10 11 10 9 9 8 8 8 9 10 10 10 10 9 9 8 8 8 8 8 8 9 9 9 9
12 12 13 14 14 14 14 11 9 9 8 9 10 9 9 10 10 11 10 10 10 10 9 9 9 8 8 9 10 10 10 9 9 9 9 9 9 9 9 9 9 9 9 9
12 14 14 14 14 12 11 12 12 9 9 8 9 8 8 9 9 10 11 11 10 10 10 9 9 9 8 8 10 10 9 9 9 10 10 9 9 9 9 9 9 9 10 9
13 14 15 14 15 13 13 12 10 10 8 6 9 8 8 8 9 10 10 10 9 9 11 10 9 8 9 9 10 11 10 9 10 10 9 9 9 8 8 9 9 8 9 9
13 14 14 15 15 14 12 12 12 10 8 7 9 10 10 9 9 9 10 10 10 9 9 9 10 9 8 9 10 11 11 10 10 10 10 9 9 9 9 10 9 8 9 10
13 14 14 15 15 14 13 12 11 10 8 8 12 12 8 9 10 11 10 9 9 10 10 9 9 10 9 9 9 10 10 10 10 10 10 10 10 9 10 9 8 8 9 10
13 13 14 14 14 14 14 13 13 10 7 11 12 12 12 11 11 11 10 10 10 9 10 10 9 9 9 9 10 10 10 10 10 10 11 10 10 9 9 9 9 9 10 10
13 14 13 14 14 15 15 13 14 11 12 11 11 13 12 12 12 11 9 9 9 10 9 10 9 9 9 10 9 10 9 10 11 11 11 11 10 9 9 8 9 9 10 8
14 14 14 14 14 14 15 15 15 15 13 14 11 11 12 12 12 10 11 13 11 11 10 9 9 9 10 9 9 9 10 9 10 10 10 11 11 10 10 9 9 9 10 10
13 13 14 14 14 14 15 15 15 13 14 13 13 11 12 12 13 12 11 12 12 11 10 10 9 9 10 10 9 9 9 9 10 9 10 10 10 10 10 10 9 9 9 9
12 13 14 14 14 14 14 15 15 16 16 14 15 12 12 12 13 12 11 11 11 10 10 10 9 9 10 10 10 9 10 10 10 10 10 9 9 9 9 10 10 9 9 9
11 12 13 14 14 14 14 15 15 16 16 17 17 14 13 12 11 12 12 12 11 11 10 11 11 10 10 10 10 11 10 10 10 10 9 9 9 8 8 9 9 9 9 9
9 11 12 13 14 14 14 14 15 16 16 16 17 11 12 11 12 12 12 12 12 11 11 10 10 10 10 10 9 10 10 10 10 9 9 9 8 8 8 9 8 8 8 9
9 10 11 13 12 13 14 14 15 15 16 17 17 13 11 12 13 14 14 14 13 12 11 11 10 12 11 11 11 11 10 10 10 9 9 9 9 9 9 8 8 8 8 8
9 10 11 12 11 12 13 14 14 15 16 17 16 15 13 12 13 13 14 14 13 13 12 11 11 10 10 11 11 11 10 10 10 11 9 9 9 9 9 9 7 8 8 8
9 10 9 10 11 11 12 14 14 15 16 16 15 13 13 12 9 10 13 12 13 13 12 12 12 11 11 11 11 11 10 10 10 11 10 9 9 9 9 8 8 8 8 8
8 8 7 10 9 12 13 12 13 15 15 15 12 12 11 11 11 9 11 13 13 13 12 12 12 11 11 11 11 11 10 10 10 10 10 9 9 9 8 8 8 9 8 8
7 7 6 6 8 11 9 11 11 12 14 12 12 11 10 9 9 8 9 12 12 13 12 12 12 12 11 11 11 11 10 10 10 10 9 9 9 8 8 9 8 9 8 7
7 7 7 5 5 6 9 9 9 11 11 10 11 11 10 8 8 8 7 10 12 12 13 12 12 11 11 11 11 11 10 10 10 9 9 9 9 9 9 8 8 9 8 8
8 7 7 6 6 7 6 6 8 9 9 9 9 10 9 9 10 7 8 10 11 12 12 11 11 11 11 11 11 11 11 11 10 10 9 9 9 9 8 8 8 8 8 8
6 7 7 6 2 4 7 8 7 8 6 7 8 8 8 8 7 7 8 11 11 11 10 10 10 10 10 10 10 10 10 10 10 10 9 8 8 8 8 8 7 8 7 7
7 8 8 9 5 5 6 6 7 7 6 7 7 7 7 7 6 6 8 9 10 9 9 9 9 9 9 9 9 9 9 9 9 8 7 8 7 7 7 7 7 7 7 7
7 7 7 7 5 5 6 6 6 6 6 6 6 6 6 6 5 5 7 8 8 8 8 8 8 8 8 8 8 8 8 8 7 6 7 6 7 7 6 6 6 6 6 7
7 6 6 6 5 5 5 5 5 5 5 5 6 6 5 5 4 4 4 7 7 6 7 7 7 7 7 7 6 6 6 5 6 6 5 5 5 5 6 6 5 6 5 6
7 6 6 6 6 5 5 4 4 4 5 4 4 4 5 5 4 4 4 4 6 6 6 6 6 6 5 5 5 5 5 5 5 5 5 5 5 5 5 5 5 5 5 4
7 6 6 6 6 5 5 4 4 3 3 3 3 3 4 4 3 3 3 4 4 4 4 5 5 5 5 4 4 4 4 4 4 4 4 4 5 5 5 5 5 5 4 4

GFSCGP_700_temp_105.txt.gz
Temp
10 10 10 12 12 13 13 12 12 11 7 9 10 11 11 11 10 11 11 11 9 10 10 9 10 9 9 9 10 9 9 10 9 9 9 8 8 8 8 8 8 9 8 8
10 10 12 12 13 12 12 11 11 9 9 10 8 10 10 10 11 11 10 10 9 10 10 10 9 9 9 9 10 9 10 10 9 9 9 9 9 8 9 9 8 8 9 9
10 11 13 13 13 13 12 11 11 10 8 9 9 9 10 10 10 11 10 10 10 10 9 10 10 9 9 9 10 11 10 10 10 10 10 9 9 9 9 9 10 9 9 9
11 12 12 13 14 14 12 11 10 10 10 8 8 8 8 9 10 10 10 10 10 10 9 10 10 10 9 9 10 11 10 10 10 10 10 10 9 9 9 9 9 9 9 10
12 13 13 14 14 13 11 11 8 9 10 9 8 7 9 9 10 10 11 11 10 10 9 9 10 10 10 9 10 10 10 10 9 10 10 9 10 10 10 9 10 9 9 10
12 13 13 14 15 14 10 9 9 9 9 8 9 7 9 10 13 12 10 10 10 10 10 9 9 9 10 9 9 10 10 10 10 10 9 10 10 10 9 9 9 9 9 10
12 13 13 14 13 13 13 11 8 8 7 7 10 8 9 11 12 12 11 10 10 10 10 10 8 8 9 9 9 10 10 11 10 10 10 10 10 9 9 9 10 10 10 10
12 13 13 14 14 12 13 13 11 9 8 9 9 9 11 12 12 11 10 9 9 9 9 9 9 9 8 9 9 9 9 11 10 10 10 10 9 9 9 10 10 10 10 10
12 13 14 14 14 14 13 13 14 12 9 10 9 9 10 11 11 10 10 10 9 9 10 9 9 9 9 9 9 9 9 9 10 10 10 10 10 10 9 9 10 10 9 9
12 12 13 13 14 14 14 14 14 14 8 8 9 7 9 10 11 12 11 10 10 10 10 9 10 10 9 9 9 10 10 9 9 10 10 10 10 9 9 9 10 10 10 10
12 12 13 13 14 14 14 14 14 14 14 11 9 10 12 11 10 11 12 11 11 10 11 10 10 10 9 9 9 9 10 11 9 10 9 9 10 10 9 10 10 10 10 9
10 11 11 12 14 14 14 14 14 15 15 15 15 11 12 13 12 11 11 11 11 12 11 10 9 9 9 10 10 9 10 10 9 9 9 8 9 9 9 9 9 10 9 9
10 11 11 13 14 14 14 14 14 15 15 15 14 11 13 14 13 13 12 12 12 11 10 10 11 10 11 10 10 9 9 9 9 9 9 9 8 8 8 8 9 9 9 9
9 10 10 10 10 11 12 14 14 15 15 15 16 14 13 13 13 12 11 10 11 11 11 11 12 12 11 10 10 11 10 10 9 9 9 8 8 8 8 8 8 8 9 9
9 9 10 10 11 11 12 13 14 14 15 15 15 14 13 13 11 11 11 10 10 10 11 11 11 11 10 9 9 9 10 10 9 9 9 8 8 8 9 8 8 8 8 9
8 9 9 10 10 10 11 12 12 14 15 14 14 13 12 12 12 11 10 10 10 10 10 10 10 10 10 10 10 9 10 10 10 10 10 9 8 8 8 8 8 8 8 9
8 8 8 8 9 10 10 10 11 12 13 14 13 13 12 11 11 12 12 12 12 11 10 10 9 10 10 10 10 10 10 10 11 11 11 10 10 9 9 9 9 9 9 9
7 7 7 7 8 8 8 8 9 9 11 12 12 12 13 12 12 12 11 12 12 12 11 11 11 10 10 10 11 11 10 10 10 10 10 10 10 9 9 9 9 9 9 9
7 7 7 6 6 7 8 7 8 7 8 9 10 9 10 11 10 10 11 11 12 12 12 12 12 11 11 11 10 10 10 10 10 10 9 9 10 9 9 9 9 9 9 9
6 6 7 6 4 4 6 7 7 8 8 8 7 8 7 8 10 9 10 11 11 11 11 12 12 11 11 11 11 11 11 10 10 10 10 10 9 9 8 8 8 8 8 8
6 6 6 6 4 6 7 7 7 7 7 7 7 7 6 6 7 8 9 9 10 10 11 10 10 11 11 11 11 11 11 10 10 10 10 10 9 9 8 8 8 7 7 8
6 5 5 5 5 5 6 7 7 7 7 6 6 8 7 7 5 7 7 8 9 8 9 9 9 9 10 10 10 10 10 10 10 10 10 9 8 7 8 7 6 6 6 7
7 6 6 6 6 6 6 6 6 7 7 7 6 6 5 6 5 6 6 7 8 8 8 8 8 9 9 9 9 9 9 9 9 9 9 8 7 7 7 7 6 7 6 6
7 7 6 6 5 5 5 6 5 5 6 6 6 5 5 5 5 5 5 7 7 7 7 7 7 7 7 8 8 8 8 8 7 7 6 6 7 7 6 6 6 5 5 6
7 6 6 6 6 6 6 5 5 5 6 5 6 5 5 4 4 4 4 3 5 6 6 6 6 6 6 6 6 6 6 5 5 4 5 5 5 5 6 6 5 5 5 5
6 6 6 6 6 6 5 5 4 5 5 5 6 5 5 4 4 4 3 3 3 3 4 6 5 5 5 5 4 4 4 4 4 4 4 5 5 5 5 5 5 5 5 5

GFSCGP_700_temp_108.txt.gz
Temp
9 10 10 12 12 11 11 11 10 9 9 9 9 9 10 10 10 10 10 10 9 9 10 10 10 10 10 9 9 9 10 9 9 8 8 8 8 8 8 8 9 8 8 9
9 9 12 12 11 11 11 10 10 9 9 9 9 8 9 9 10 10 10 10 10 10 10 10 10 10 9 9 9 9 9 9 9 9 9 9 9 9 9 9 9 9 9 9
9 12 11 11 11 11 11 11 10 9 9 8 8 8 8 9 9 10 10 10 10 9 10 10 10 10 10 9 9 10 9 9 9 9 9 9 9 9 9 9 9 9 9 9
10 11 11 11 11 11 11 10 11 10 8 9 8 9 9 8 9 10 10 10 10 10 9 10 10 10 10 9 10 10 10 10 9 10 9 9 9 9 9 9 9 9 9 9
10 11 12 12 13 12 11 10 12 10 8 7 7 8 8 9 9 10 10 10 10 10 9 9 10 10 10 9 9 10 10 10 10 9 9 9 9 10 9 9 9 9 9 9
10 11 12 12 13 12 11 11 10 10 8 7 8 9 8 8 10 10 10 9 9 10 9 10 10 9 9 9 9 10 10 9 10 10 9 9 10 9 9 9 9 9 10 10
11 12 12 12 11 10 11 12 8 8 7 8 8 7 10 9 9 10 10 10 9 9 10 10 10 9 9 9 9 9 10 10 10 10 10 10 10 9 9 10 9 10 9 9
10 12 13 12 12 13 12 13 11 9 7 9 8 8 11 10 10 10 10 9 10 9 9 10 9 10 10 9 9 8 9 10 10 10 10 10 9 9 10 10 10 10 10 9
11 12 12 13 13 13 10 12 13 11 9 9 8 8 10 10 11 12 12 10 9 9 9 9 9 10 10 9 9 8 9 10 10 10 10 10 10 10 10 10 9 9 10 10
11 11 12 13 13 13 14 14 12 12 7 8 7 9 10 11 11 11 11 11 10 9 9 9 9 10 10 9 9 8 8 9 10 10 10 10 11 10 10 10 10 9 9 10
10 11 12 12 13 13 13 14 13 13 13 8 7 9 14 14 13 12 11 10 10 9 9 10 10 10 10 9 10 9 9 9 10 10 9 10 10 10 10 10 10 10 9 9
10 10 11 12 12 14 14 14 14 13 13 13 13 13 15 15 14 13 12 12 11 11 10 9 10 10 10 9 10 10 10 9 9 9 9 8 9 9 9 9 9 9 9 9
9 10 10 12 12 13 13 12 13 14 14 14 13 14 15 14 13 12 12 11 11 10 9 9 9 9 9 9 9 9 9 8 8 9 8 8 8 8 8 9 9 9 9 9
8 8 9 9 9 10 11 11 12 13 14 14 14 15 14 14 13 12 11 11 10 10 9 9 9 9 9 9 9 8 9 9 8 8 8 8 8 8 8 8 8 8 8 8
8 8 9 9 9 10 9 11 11 12 13 13 14 15 14 14 13 12 12 11 10 11 10 9 9 10 10 9 9 9 8 8 8 8 8 9 8 8 7 8 8 8 8 8
8 7 8 9 9 10 10 10 11 12 13 13 14 14 14 14 12 11 11 12 12 11 11 11 10 10 9 9 9 9 9 9 9 8 8 9 8 8 8 9 8 8 8 8
7 7 7 8 8 10 9 8 8 9 11 13 13 14 14 13 11 11 11 11 12 12 11 11 11 10 10 9 8 9 10 9 9 9 9 9 10 9 9 9 9 9 9 8
7 7 7 7 8 6 6 6 7 8 8 10 12 12 12 11 11 11 11 11 11 11 11 11 10 10 10 10 9 8 9 9 9 10 10 10 10 9 9 9 9 9 9 9
7 7 7 7 7 6 6 7 8 8 7 9 10 11 10 9 9 10 9 9 9 9 10 10 9 10 9 9 9 9 9 8 9 10 10 10 9 9 9 9 9 9 9 9
6 6 6 6 6 5 6 7 7 7 6 7 7 9 9 9 9 8 8 9 10 10 10 10 10 10 10 9 8 9 9 10 9 10 9 9 9 9 9 9 9 9 9 8
6 6 6 5 6 7 7 7 7 7 6 7 7 8 8 9 8 7 6 7 8 9 10 10 9 9 9 9 9 9 9 9 9 9 9 10 10 9 9 8 8 8 8 8
6 5 4 5 5 6 6 7 7 6 7 7 7 7 7 7 7 5 5 6 7 8 9 9 9 9 9 9 9 9 9 9 9 10 9 10 9 9 9 8 8 7 7 7
6 6 5 5 6 6 6 6 5 6 6 6 7 7 7 8 7 6 6 6 6 7 8 8 9 9 8 9 9 9 9 9 9 9 9 9 8 6 6 5 6 6 6 6
5 6 6 6 6 6 5 6 6 6 6 5 6 6 7 7 6 5 6 6 6 7 8 8 8 8 8 8 8 8 8 8 8 8 8 8 7 6 5 6 6 6 6 6
6 6 6 6 6 6 6 6 5 5 5 5 5 5 6 5 5 5 5 6 6 6 6 6 6 7 7 7 7 7 7 7 7 7 7 6 5 5 5 5 5 6 5 5
6 6 6 6 6 6 6 5 6 5 5 5 5 4 4 5 5 4 4 3 3 5 6 5 5 5 5 5 6 6 5 5 5 5 5 5 5 5 5 5 5 5 5 5

GFSCGP_700_temp_111.txt.gz
Temp
9 9 10 11 11 11 11 10 10 8 9 8 7 8 8 8 9 9 10 9 9 9 10 9 9 9 9 9 9 10 10 10 9 9 9 8 8 9 8 9 9 9 8 8
9 10 10 10 10 10 11 10 10 9 9 8 8 9 7 8 8 9 9 9 9 9 9 9 9 9 9 9 9 9 10 10 9 9 9 8 9 8 8 9 9 9 9 9
9 10 10 10 10 10 10 10 10 10 9 8 8 8 8 8 9 9 9 9 9 10 10 9 10 10 9 9 9 9 9 10 9 9 8 8 8 8 8 8 9 9 9 9
9 10 10 10 10 11 10 10 11 11 9 8 7 7 8 8 8 9 9 9 9 10 10 10 10 10 9 9 9 10 10 10 10 9 9 9 8 9 9 9 9 9 9 9
9 10 10 10 11 11 10 10 10 10 10 8 7 7 8 9 9 9 9 9 9 10 10 10 10 10 9 9 9 10 10 10 10 10 9 9 9 9 9 8 9 9 9 9
9 10 10 11 12 12 11 10 9 9 10 8 8 8 10 10 10 10 9 9 9 9 10 10 10 9 9 9 9 10 10 9 10 10 10 9 9 9 8 9 9 9 9 9
10 11 11 12 12 10 10 10 9 8 8 8 8 7 10 10 10 9 9 8 9 9 9 10 10 10 9 9 9 9 10 10 9 10 10 10 9 9 9 9 9 9 9 9
10 11 11 12 12 12 10 11 11 8 7 8 7 9 11 9 8 9 9 9 8 9 9 10 10 10 9 9 8 9 9 10 10 10 10 10 9 9 9 9 9 9 9 9
9 11 11 11 12 12 11 10 11 11 8 8 8 11 10 10 8 8 9 8 8 8 9 10 10 10 10 9 9 8 8 9 10 10 10 10 10 9 9 9 9 9 9 9
9 10 12 12 12 11 11 12 11 11 7 7 8 9 11 11 11 11 11 11 10 9 9 9 9 10 10 10 9 8 8 8 9 10 10 10 10 9 9 9 9 9 9 9
9 10 11 11 12 12 11 11 12 12 12 7 6 11 14 13 13 13 12 11 11 10 10 9 9 10 10 10 10 9 8 8 9 9 9 9 10 10 10 10 9 9 9 9
9 9 10 11 12 12 12 11 12 13 12 11 11 13 15 14 13 12 12 11 10 9 9 10 9 9 10 10 10 9 9 9 8 9 9 9 9 9 9 9 9 9 9 9
9 9 9 11 12 10 11 11 12 13 13 13 11 14 15 14 13 12 12 11 11 10 9 9 9 9 9 10 9 9 9 9 8 9 9 9 8 9 8 8 8 9 9 9
8 8 8 8 9 9 9 10 11 12 13 13 13 14 15 15 13 12 12 12 12 11 10 9 9 9 9 9 9 9 9 8 8 8 8 9 8 9 8 8 7 8 8 9
8 8 8 9 9 8 9 10 11 11 12 13 14 14 14 15 13 12 12 11 11 11 10 9 8 9 9 9 8 8 8 8 8 8 9 8 8 7 8 8 8 8 8 8
7 8 8 8 8 8 9 9 10 11 11 13 13 13 14 14 12 12 11 11 10 10 10 9 10 10 10 9 8 8 8 8 8 8 8 9 8 8 8 8 8 8 8 7
7 7 7 8 8 8 8 8 9 8 9 11 12 11 12 12 11 11 11 10 10 10 10 10 9 10 10 9 8 8 8 8 8 8 8 8 8 8 8 8 8 8 8 7
7 7 7 7 8 6 7 7 8 7 7 8 11 11 11 11 11 11 10 9 9 9 10 9 10 9 9 9 9 9 8 8 8 9 7 8 8 8 8 8 9 9 8 8
6 7 6 7 7 6 6 7 8 8 7 7 9 11 10 10 10 10 9 9 9 9 9 9 9 10 9 9 8 8 8 9 8 8 8 8 8 8 8 8 8 8 8 8
6 6 6 6 6 4 7 7 7 8 7 8 8 9 9 9 10 8 8 8 9 9 9 9 9 9 10 9 9 8 8 7 7 7 8 8 8 8 8 8 8 8 8 8
6 6 6 6 5 6 6 7 7 7 7 7 8 8 8 9 8 8 7 8 8 8 9 9 10 10 10 9 9 8 8 8 8 8 8 7 8 8 8 8 8 8 9 8
6 6 5 5 5 6 6 6 6 7 7 7 8 9 8 8 8 8 8 7 7 8 8 9 9 9 9 9 9 9 8 8 8 8 8 8 8 8 8 8 8 8 7 7
6 6 6 6 5 6 6 6 6 6 6 7 7 7 7 7 8 7 7 8 7 7 8 7 8 9 9 8 8 8 8 7 7 7 7 8 8 8 8 7 7 6 5 6
6 6 6 6 5 5 6 5 5 5 6 6 6 6 7 7 6 6 5 5 5 6 6 7 7 7 8 8 8 8 8 8 8 8 8 8 8 8 6 6 7 6 6 6
6 6 6 6 5 5 5 5 5 5 6 5 5 5 6 5 5 5 4 5 5 6 6 6 7 7 7 7 7 7 7 7 7 7 7 7 7 7 6 6 5 5 6 5
6 6 6 6 6 6 5 5 5 5 5 5 5 5 5 5 4 4 4 4 5 5 5 6 6 6 6 6 6 6 6 6 5 5 5 5 5 4 4 4 5 5 5 4

GFSCGP_700_temp_114.txt.gz
Temp
9 9 10 10 10 10 10 10 10 10 10 10 10 8 9 9 9 8 9 10 10 11 9 9 8 9 9 9 10 10 9 9 9 9 9 9 9 8 8 8 8 8 8 8
8 9 9 9 9 10 10 10 10 10 10 9 8 9 9 8 8 8 8 9 9 10 9 9 9 9 9 9 9 10 9 9 9 9 9 9 9 9 9 9 8 8 8 8
8 9 9 9 10 10 10 10 10 10 9 9 8 8 9 8 8 8 8 9 9 10 9 9 9 9 9 9 9 9 9 9 9 9 9 9 9 9 9 9 9 8 8 8
8 9 9 9 10 10 10 10 10 10 10 9 8 8 7 9 9 8 8 8 9 9 9 9 9 9 9 8 9 9 9 9 9 9 9 9 8 8 9 9 9 9 9 8
9 9 9 10 10 10 10 10 10 9 9 8 7 8 8 8 8 9 8 8 9 9 9 10 10 10 9 8 9 9 9 9 9 9 9 9 9 9 9 9 9 9 9 9
9 9 10 10 11 11 11 10 10 9 7 6 8 8 8 9 9 9 9 9 9 10 9 10 10 9 9 8 9 10 10 9 9 8 9 9 9 9 9 9 9 9 9 9
9 10 10 11 11 11 10 10 7 7 6 7 8 7 10 10 10 10 10 9 9 10 10 9 9 9 9 9 8 9 10 10 9 9 9 9 9 9 8 9 9 9 9 9
9 10 11 11 11 12 10 10 10 7 5 7 7 8 12 11 11 10 10 9 9 9 10 9 9 9 9 9 8 9 9 10 10 9 9 9 8 8 8 9 9 9 9 8
9 10 11 11 11 11 9 9 10 10 8 8 9 10 11 10 10 10 9 9 9 9 10 10 9 9 9 9 9 9 9 9 9 9 9 9 8 8 9 9 9 9 8 9
9 10 10 10 11 10 10 10 10 10 6 7 9 10 12 11 10 9 8 9 10 9 10 10 10 9 9 9 9 8 8 8 9 9 9 9 8 8 8 8 8 8 9 9
9 9 10 11 11 11 9 10 10 10 10 6 7 12 14 13 12 12 11 11 10 9 10 10 10 10 9 9 9 9 9 8 9 9 9 9 9 9 9 8 8 9 8 8
9 9 9 10 10 11 10 10 11 11 11 10 10 12 13 13 12 12 11 11 11 11 11 10 10 10 9 9 9 9 9 9 8 8 8 9 9 10 9 9 9 9 8 8
8 9 9 10 10 10 9 10 11 11 12 12 10 13 14 13 13 12 11 11 11 11 9 9 10 9 9 9 9 9 9 9 9 8 8 8 9 9 9 9 9 9 9 8
7 8 9 8 8 9 9 10 11 11 11 12 13 13 13 13 12 12 12 12 12 11 10 9 9 9 8 8 8 8 8 9 8 8 8 8 9 9 9 9 8 8 9 9
7 7 8 8 8 7 7 9 10 10 10 11 13 13 13 13 12 11 11 12 11 10 10 9 8 8 8 8 8 8 8 8 8 8 8 8 8 8 8 8 9 8 8 8
7 7 7 8 8 7 7 8 8 9 9 10 12 13 13 12 11 11 12 11 11 10 9 8 7 8 7 8 9 9 8 8 8 7 8 8 8 8 8 8 8 7 7 7
7 7 7 6 7 7 7 7 7 8 9 9 11 12 12 11 10 10 10 10 10 10 9 9 8 8 8 8 8 8 8 8 8 8 8 8 7 8 8 8 8 7 7 7
6 6 6 6 7 5 7 6 8 7 8 9 10 11 11 9 10 10 10 10 10 9 8 8 9 9 8 8 9 9 8 8 8 8 7 7 8 8 7 8 8 8 8 8
6 6 6 6 6 6 7 6 8 7 8 9 10 10 10 9 10 10 10 9 9 9 9 8 8 8 8 8 9 8 8 7 8 7 8 8 8 7 8 8 7 8 8 8
6 6 6 6 5 4 7 7 7 7 7 8 9 10 9 9 10 9 8 9 10 10 10 9 9 9 9 9 8 8 7 7 7 7 7 7 8 8 8 8 7 7 7 8
5 5 6 6 6 6 6 6 6 6 8 8 9 9 8 8 9 9 8 8 9 9 10 9 9 9 9 9 9 8 8 8 8 7 7 7 8 7 7 7 7 7 7 7
5 6 5 5 5 6 6 5 6 7 7 7 8 8 8 8 8 8 8 8 9 9 9 9 8 9 9 9 9 8 8 8 7 7 7 7 7 7 7 6 8 8 7 7
6 5 5 5 5 6 6 6 6 6 6 7 7 8 7 8 7 8 8 8 8 8 8 8 8 8 8 8 9 9 9 7 7 7 6 7 6 6 6 7 7 8 7 7
6 6 5 5 6 5 5 6 5 5 6 6 6 6 6 7 7 7 7 7 6 7 7 7 7 7 8 8 8 8 8 8 7 6 7 7 6 6 6 6 6 7 6 6
6 6 6 5 5 5 5 5 5 5 5 5 6 5 5 5 5 5 6 6 6 6 6 6 6 6 7 7 7 7 7 7 6 6 6 6 6 5 5 6 6 5 5 5
6 6 6 5 5 5 5 5 5 5 5 4 5 5 5 4 4 5 5 5 5 5 5 5 5 5 5 6 6 5 5 5 5 5 5 5 5 5 4 4 4 4 4 4